<?xml version="1.0" encoding="UTF-8" standalone="no" ?>
<gpx xmlns="http://www.topografix.com/GPX/1/1" xmlns:xsi="http://www.w3.org/2001/XMLSchema-instance" xsi:schemaLocation="http://www.topografix.com/GPX/1/1 http://www.topografix.com/GPX/1/1/gpx.xsd" version="1.1" creator="VisuGPX - https://www.visugpx.com">
  <metadata>
    <name>nasbinal-st chely 2</name>
    <desc><![CDATA[vol d\\\'oiseau d\\\'aubrac_st chely]]></desc>
  </metadata>
  <trk>
    <name><![CDATA[NASBINAL ST CHELY7]]></name>
    <trkseg>
      <trkpt lat="44.66674" lon="3.04045">
        <ele>1184</ele>
        <time>2012-04-27T16:52:31Z</time>
      </trkpt>
      <trkpt lat="44.66674" lon="3.04045">
        <ele>1184</ele>
        <time>2012-04-27T16:53:06Z</time>
      </trkpt>
      <trkpt lat="44.66674" lon="3.04045">
        <ele>1183.52</ele>
        <time>2012-04-27T16:53:09Z</time>
      </trkpt>
      <trkpt lat="44.66674" lon="3.04045">
        <ele>1182.56</ele>
        <time>2012-04-27T16:53:45Z</time>
      </trkpt>
      <trkpt lat="44.6667" lon="3.04052">
        <ele>1183.04</ele>
        <time>2012-04-27T16:54:09Z</time>
      </trkpt>
      <trkpt lat="44.6667" lon="3.04052">
        <ele>1186.4</ele>
        <time>2012-04-27T16:54:15Z</time>
      </trkpt>
      <trkpt lat="44.6667" lon="3.04052">
        <ele>1181.6</ele>
        <time>2012-04-27T16:54:16Z</time>
      </trkpt>
      <trkpt lat="44.6667" lon="3.04052">
        <ele>1187.37</ele>
        <time>2012-04-27T16:54:17Z</time>
      </trkpt>
      <trkpt lat="44.6667" lon="3.04052">
        <ele>1184</ele>
        <time>2012-04-27T16:54:18Z</time>
      </trkpt>
      <trkpt lat="44.6667" lon="3.04052">
        <ele>1185.44</ele>
        <time>2012-04-27T16:54:19Z</time>
      </trkpt>
      <trkpt lat="44.66669" lon="3.04053">
        <ele>1182.08</ele>
        <time>2012-04-27T16:54:21Z</time>
      </trkpt>
      <trkpt lat="44.66669" lon="3.04053">
        <ele>1183.52</ele>
        <time>2012-04-27T16:54:22Z</time>
      </trkpt>
      <trkpt lat="44.66669" lon="3.04052">
        <ele>1183.52</ele>
        <time>2012-04-27T16:54:53Z</time>
      </trkpt>
      <trkpt lat="44.6667" lon="3.04052">
        <ele>1183.52</ele>
        <time>2012-04-27T16:55:25Z</time>
      </trkpt>
      <trkpt lat="44.6667" lon="3.04052">
        <ele>1178.71</ele>
        <time>2012-04-27T16:55:44Z</time>
      </trkpt>
      <trkpt lat="44.6667" lon="3.04052">
        <ele>1184.48</ele>
        <time>2012-04-27T16:55:45Z</time>
      </trkpt>
      <trkpt lat="44.6667" lon="3.04052">
        <ele>1183.04</ele>
        <time>2012-04-27T16:55:51Z</time>
      </trkpt>
      <trkpt lat="44.66678" lon="3.04046">
        <ele>1183.04</ele>
        <time>2012-04-27T16:56:17Z</time>
      </trkpt>
      <trkpt lat="44.66679" lon="3.04046">
        <ele>1183.52</ele>
        <time>2012-04-27T16:56:42Z</time>
      </trkpt>
      <trkpt lat="44.66677" lon="3.04048">
        <ele>1178.71</ele>
        <time>2012-04-27T16:57:07Z</time>
      </trkpt>
      <trkpt lat="44.66677" lon="3.04048">
        <ele>1183.52</ele>
        <time>2012-04-27T16:57:09Z</time>
      </trkpt>
      <trkpt lat="44.66677" lon="3.04048">
        <ele>1183.04</ele>
        <time>2012-04-27T16:57:10Z</time>
      </trkpt>
      <trkpt lat="44.66677" lon="3.04048">
        <ele>1182.08</ele>
        <time>2012-04-27T16:57:35Z</time>
      </trkpt>
      <trkpt lat="44.66677" lon="3.04048">
        <ele>1180.16</ele>
        <time>2012-04-27T16:57:58Z</time>
      </trkpt>
      <trkpt lat="44.66677" lon="3.04048">
        <ele>1183.04</ele>
        <time>2012-04-27T16:58:00Z</time>
      </trkpt>
      <trkpt lat="44.66677" lon="3.04048">
        <ele>1183.04</ele>
        <time>2012-04-27T16:58:01Z</time>
      </trkpt>
      <trkpt lat="44.66677" lon="3.04048">
        <ele>1178.71</ele>
        <time>2012-04-27T16:58:03Z</time>
      </trkpt>
      <trkpt lat="44.66677" lon="3.04048">
        <ele>1184</ele>
        <time>2012-04-27T16:58:04Z</time>
      </trkpt>
      <trkpt lat="44.66677" lon="3.04048">
        <ele>1179.19</ele>
        <time>2012-04-27T16:58:06Z</time>
      </trkpt>
      <trkpt lat="44.66677" lon="3.04048">
        <ele>1183.52</ele>
        <time>2012-04-27T16:58:07Z</time>
      </trkpt>
      <trkpt lat="44.66677" lon="3.04048">
        <ele>1179.67</ele>
        <time>2012-04-27T16:58:28Z</time>
      </trkpt>
      <trkpt lat="44.66677" lon="3.04048">
        <ele>1183.52</ele>
        <time>2012-04-27T16:58:29Z</time>
      </trkpt>
      <trkpt lat="44.66676" lon="3.04048">
        <ele>1180.16</ele>
        <time>2012-04-27T16:58:46Z</time>
      </trkpt>
      <trkpt lat="44.66674" lon="3.04048">
        <ele>1184.48</ele>
        <time>2012-04-27T16:58:50Z</time>
      </trkpt>
      <trkpt lat="44.66678" lon="3.04042">
        <ele>1182.56</ele>
        <time>2012-04-27T16:59:13Z</time>
      </trkpt>
      <trkpt lat="44.66679" lon="3.04038">
        <ele>1187.37</ele>
        <time>2012-04-27T16:59:17Z</time>
      </trkpt>
      <trkpt lat="44.66679" lon="3.04038">
        <ele>1179.67</ele>
        <time>2012-04-27T16:59:18Z</time>
      </trkpt>
      <trkpt lat="44.66679" lon="3.04038">
        <ele>1185.92</ele>
        <time>2012-04-27T16:59:19Z</time>
      </trkpt>
      <trkpt lat="44.66679" lon="3.04038">
        <ele>1175.83</ele>
        <time>2012-04-27T16:59:20Z</time>
      </trkpt>
      <trkpt lat="44.66679" lon="3.04038">
        <ele>1183.52</ele>
        <time>2012-04-27T16:59:21Z</time>
      </trkpt>
      <trkpt lat="44.66679" lon="3.04038">
        <ele>1183.52</ele>
        <time>2012-04-27T16:59:48Z</time>
      </trkpt>
      <trkpt lat="44.66679" lon="3.04038">
        <ele>1183.04</ele>
        <time>2012-04-27T16:59:54Z</time>
      </trkpt>
      <trkpt lat="44.66679" lon="3.04038">
        <ele>1182.56</ele>
        <time>2012-04-27T17:00:29Z</time>
      </trkpt>
      <trkpt lat="44.66679" lon="3.04039">
        <ele>1181.6</ele>
        <time>2012-04-27T17:01:08Z</time>
      </trkpt>
      <trkpt lat="44.66679" lon="3.04039">
        <ele>1182.08</ele>
        <time>2012-04-27T17:01:35Z</time>
      </trkpt>
      <trkpt lat="44.66679" lon="3.04039">
        <ele>1183.52</ele>
        <time>2012-04-27T17:02:00Z</time>
      </trkpt>
      <trkpt lat="44.66679" lon="3.04039">
        <ele>1186.88</ele>
        <time>2012-04-27T17:02:15Z</time>
      </trkpt>
      <trkpt lat="44.66679" lon="3.04039">
        <ele>1183.52</ele>
        <time>2012-04-27T17:02:17Z</time>
      </trkpt>
      <trkpt lat="44.66679" lon="3.04039">
        <ele>1184</ele>
        <time>2012-04-27T17:02:18Z</time>
      </trkpt>
      <trkpt lat="44.66679" lon="3.04039">
        <ele>1184</ele>
        <time>2012-04-27T17:02:40Z</time>
      </trkpt>
      <trkpt lat="44.66679" lon="3.0404">
        <ele>1184</ele>
        <time>2012-04-27T17:02:44Z</time>
      </trkpt>
      <trkpt lat="44.66679" lon="3.0404">
        <ele>1184</ele>
        <time>2012-04-27T17:03:10Z</time>
      </trkpt>
      <trkpt lat="44.66678" lon="3.04041">
        <ele>1184</ele>
        <time>2012-04-27T17:03:12Z</time>
      </trkpt>
      <trkpt lat="44.6667" lon="3.04045">
        <ele>1184</ele>
        <time>2012-04-27T17:03:36Z</time>
      </trkpt>
      <trkpt lat="44.6668" lon="3.04048">
        <ele>1183.04</ele>
        <time>2012-04-27T17:03:46Z</time>
      </trkpt>
      <trkpt lat="44.66681" lon="3.04047">
        <ele>1184</ele>
        <time>2012-04-27T17:04:09Z</time>
      </trkpt>
      <trkpt lat="44.66679" lon="3.04046">
        <ele>1186.88</ele>
        <time>2012-04-27T17:04:35Z</time>
      </trkpt>
      <trkpt lat="44.66679" lon="3.04046">
        <ele>1184</ele>
        <time>2012-04-27T17:04:38Z</time>
      </trkpt>
      <trkpt lat="44.66674" lon="3.04043">
        <ele>1184.96</ele>
        <time>2012-04-27T17:04:59Z</time>
      </trkpt>
      <trkpt lat="44.66678" lon="3.04048">
        <ele>1184.96</ele>
        <time>2012-04-27T17:05:24Z</time>
      </trkpt>
      <trkpt lat="44.66678" lon="3.04048">
        <ele>1184.48</ele>
        <time>2012-04-27T17:05:46Z</time>
      </trkpt>
      <trkpt lat="44.66676" lon="3.0406">
        <ele>1184</ele>
        <time>2012-04-27T17:06:04Z</time>
      </trkpt>
      <trkpt lat="44.66679" lon="3.04061">
        <ele>1184</ele>
        <time>2012-04-27T17:06:13Z</time>
      </trkpt>
      <trkpt lat="44.6668" lon="3.04064">
        <ele>1184.48</ele>
        <time>2012-04-27T17:06:15Z</time>
      </trkpt>
      <trkpt lat="44.66688" lon="3.04078">
        <ele>1183.04</ele>
        <time>2012-04-27T17:06:23Z</time>
      </trkpt>
      <trkpt lat="44.66697" lon="3.04087">
        <ele>1183.52</ele>
        <time>2012-04-27T17:06:29Z</time>
      </trkpt>
      <trkpt lat="44.66698" lon="3.04089">
        <ele>1184.48</ele>
        <time>2012-04-27T17:06:30Z</time>
      </trkpt>
      <trkpt lat="44.66666" lon="3.04036">
        <ele>1185.92</ele>
        <time>2012-04-27T17:07:26Z</time>
      </trkpt>
      <trkpt lat="44.66666" lon="3.04037">
        <ele>1184.48</ele>
        <time>2012-04-27T17:07:27Z</time>
      </trkpt>
      <trkpt lat="44.66667" lon="3.04037">
        <ele>1185.44</ele>
        <time>2012-04-27T17:07:54Z</time>
      </trkpt>
      <trkpt lat="44.66668" lon="3.04039">
        <ele>1185.92</ele>
        <time>2012-04-27T17:08:18Z</time>
      </trkpt>
      <trkpt lat="44.66673" lon="3.04039">
        <ele>1186.4</ele>
        <time>2012-04-27T17:08:24Z</time>
      </trkpt>
      <trkpt lat="44.66688" lon="3.04043">
        <ele>1185.92</ele>
        <time>2012-04-27T17:08:40Z</time>
      </trkpt>
      <trkpt lat="44.66685" lon="3.04044">
        <ele>1185.92</ele>
        <time>2012-04-27T17:09:02Z</time>
      </trkpt>
      <trkpt lat="44.66682" lon="3.04045">
        <ele>1184.96</ele>
        <time>2012-04-27T17:09:20Z</time>
      </trkpt>
      <trkpt lat="44.66675" lon="3.04042">
        <ele>1186.4</ele>
        <time>2012-04-27T17:09:46Z</time>
      </trkpt>
      <trkpt lat="44.66678" lon="3.04037">
        <ele>1185.92</ele>
        <time>2012-04-27T17:10:04Z</time>
      </trkpt>
      <trkpt lat="44.6668" lon="3.04038">
        <ele>1186.88</ele>
        <time>2012-04-27T17:10:18Z</time>
      </trkpt>
      <trkpt lat="44.66688" lon="3.04035">
        <ele>1186.88</ele>
        <time>2012-04-27T17:10:23Z</time>
      </trkpt>
      <trkpt lat="44.66695" lon="3.04055">
        <ele>1186.4</ele>
        <time>2012-04-27T17:10:43Z</time>
      </trkpt>
      <trkpt lat="44.66686" lon="3.04051">
        <ele>1186.4</ele>
        <time>2012-04-27T17:11:08Z</time>
      </trkpt>
      <trkpt lat="44.66675" lon="3.04044">
        <ele>1186.88</ele>
        <time>2012-04-27T17:11:29Z</time>
      </trkpt>
      <trkpt lat="44.66687" lon="3.04052">
        <ele>1186.4</ele>
        <time>2012-04-27T17:11:52Z</time>
      </trkpt>
      <trkpt lat="44.66688" lon="3.04052">
        <ele>1187.37</ele>
        <time>2012-04-27T17:12:11Z</time>
      </trkpt>
      <trkpt lat="44.66674" lon="3.04044">
        <ele>1186.4</ele>
        <time>2012-04-27T17:12:33Z</time>
      </trkpt>
      <trkpt lat="44.66674" lon="3.04044">
        <ele>1186.4</ele>
        <time>2012-04-27T17:12:52Z</time>
      </trkpt>
      <trkpt lat="44.66676" lon="3.04046">
        <ele>1185.92</ele>
        <time>2012-04-27T17:13:15Z</time>
      </trkpt>
      <trkpt lat="44.66675" lon="3.04045">
        <ele>1186.4</ele>
        <time>2012-04-27T17:13:41Z</time>
      </trkpt>
      <trkpt lat="44.66685" lon="3.04041">
        <ele>1212.36</ele>
        <time>2012-04-28T06:46:37Z</time>
      </trkpt>
      <trkpt lat="44.66684" lon="3.04043">
        <ele>1212.36</ele>
        <time>2012-04-28T06:46:38Z</time>
      </trkpt>
      <trkpt lat="44.6668" lon="3.04044">
        <ele>1214.76</ele>
        <time>2012-04-28T06:47:03Z</time>
      </trkpt>
      <trkpt lat="44.66676" lon="3.04042">
        <ele>1214.28</ele>
        <time>2012-04-28T06:47:29Z</time>
      </trkpt>
      <trkpt lat="44.66676" lon="3.04042">
        <ele>1214.28</ele>
        <time>2012-04-28T06:47:30Z</time>
      </trkpt>
      <trkpt lat="44.66677" lon="3.04042">
        <ele>1212.36</ele>
        <time>2012-04-28T06:47:35Z</time>
      </trkpt>
      <trkpt lat="44.66678" lon="3.04042">
        <ele>1209</ele>
        <time>2012-04-28T06:47:38Z</time>
      </trkpt>
      <trkpt lat="44.66678" lon="3.04043">
        <ele>1207.55</ele>
        <time>2012-04-28T06:47:40Z</time>
      </trkpt>
      <trkpt lat="44.66678" lon="3.04043">
        <ele>1205.63</ele>
        <time>2012-04-28T06:47:42Z</time>
      </trkpt>
      <trkpt lat="44.66678" lon="3.04043">
        <ele>1202.27</ele>
        <time>2012-04-28T06:47:43Z</time>
      </trkpt>
      <trkpt lat="44.66678" lon="3.04043">
        <ele>1205.63</ele>
        <time>2012-04-28T06:47:44Z</time>
      </trkpt>
      <trkpt lat="44.66679" lon="3.04043">
        <ele>1202.27</ele>
        <time>2012-04-28T06:47:48Z</time>
      </trkpt>
      <trkpt lat="44.66678" lon="3.04043">
        <ele>1201.3</ele>
        <time>2012-04-28T06:47:50Z</time>
      </trkpt>
      <trkpt lat="44.6668" lon="3.04043">
        <ele>1199.38</ele>
        <time>2012-04-28T06:47:53Z</time>
      </trkpt>
      <trkpt lat="44.66681" lon="3.04043">
        <ele>1194.09</ele>
        <time>2012-04-28T06:47:56Z</time>
      </trkpt>
      <trkpt lat="44.66681" lon="3.04043">
        <ele>1194.09</ele>
        <time>2012-04-28T06:47:57Z</time>
      </trkpt>
      <trkpt lat="44.66681" lon="3.04043">
        <ele>1198.42</ele>
        <time>2012-04-28T06:47:58Z</time>
      </trkpt>
      <trkpt lat="44.66681" lon="3.04043">
        <ele>1196.98</ele>
        <time>2012-04-28T06:47:59Z</time>
      </trkpt>
      <trkpt lat="44.66682" lon="3.04043">
        <ele>1192.65</ele>
        <time>2012-04-28T06:48:07Z</time>
      </trkpt>
      <trkpt lat="44.66682" lon="3.04043">
        <ele>1193.61</ele>
        <time>2012-04-28T06:48:08Z</time>
      </trkpt>
      <trkpt lat="44.66682" lon="3.04043">
        <ele>1190.25</ele>
        <time>2012-04-28T06:48:18Z</time>
      </trkpt>
      <trkpt lat="44.66681" lon="3.04043">
        <ele>1188.33</ele>
        <time>2012-04-28T06:48:35Z</time>
      </trkpt>
      <trkpt lat="44.66681" lon="3.04044">
        <ele>1186.88</ele>
        <time>2012-04-28T06:48:54Z</time>
      </trkpt>
      <trkpt lat="44.66682" lon="3.04043">
        <ele>1185.44</ele>
        <time>2012-04-28T06:49:04Z</time>
      </trkpt>
      <trkpt lat="44.66682" lon="3.04042">
        <ele>1185.44</ele>
        <time>2012-04-28T06:49:15Z</time>
      </trkpt>
      <trkpt lat="44.66681" lon="3.04045">
        <ele>1186.4</ele>
        <time>2012-04-28T06:49:18Z</time>
      </trkpt>
      <trkpt lat="44.66679" lon="3.04045">
        <ele>1184.96</ele>
        <time>2012-04-28T06:49:20Z</time>
      </trkpt>
      <trkpt lat="44.66674" lon="3.04044">
        <ele>1188.33</ele>
        <time>2012-04-28T06:49:34Z</time>
      </trkpt>
      <trkpt lat="44.66669" lon="3.0405">
        <ele>1186.4</ele>
        <time>2012-04-28T06:49:54Z</time>
      </trkpt>
      <trkpt lat="44.66669" lon="3.0405">
        <ele>1185.44</ele>
        <time>2012-04-28T06:50:20Z</time>
      </trkpt>
      <trkpt lat="44.66671" lon="3.04046">
        <ele>1186.4</ele>
        <time>2012-04-28T06:50:45Z</time>
      </trkpt>
      <trkpt lat="44.66672" lon="3.04047">
        <ele>1187.37</ele>
        <time>2012-04-28T06:51:00Z</time>
      </trkpt>
      <trkpt lat="44.66677" lon="3.04046">
        <ele>1187.85</ele>
        <time>2012-04-28T06:51:07Z</time>
      </trkpt>
      <trkpt lat="44.66683" lon="3.04042">
        <ele>1185.92</ele>
        <time>2012-04-28T06:51:19Z</time>
      </trkpt>
      <trkpt lat="44.66683" lon="3.04041">
        <ele>1186.88</ele>
        <time>2012-04-28T06:51:34Z</time>
      </trkpt>
      <trkpt lat="44.66683" lon="3.04041">
        <ele>1185.44</ele>
        <time>2012-04-28T06:51:42Z</time>
      </trkpt>
      <trkpt lat="44.66683" lon="3.04041">
        <ele>1187.85</ele>
        <time>2012-04-28T06:51:50Z</time>
      </trkpt>
      <trkpt lat="44.66682" lon="3.04045">
        <ele>1186.4</ele>
        <time>2012-04-28T06:51:54Z</time>
      </trkpt>
      <trkpt lat="44.66682" lon="3.04048">
        <ele>1185.92</ele>
        <time>2012-04-28T06:51:56Z</time>
      </trkpt>
      <trkpt lat="44.66681" lon="3.04056">
        <ele>1184.96</ele>
        <time>2012-04-28T06:52:02Z</time>
      </trkpt>
      <trkpt lat="44.66683" lon="3.04068">
        <ele>1186.88</ele>
        <time>2012-04-28T06:52:10Z</time>
      </trkpt>
      <trkpt lat="44.66684" lon="3.04072">
        <ele>1187.37</ele>
        <time>2012-04-28T06:52:13Z</time>
      </trkpt>
      <trkpt lat="44.66681" lon="3.04075">
        <ele>1186.88</ele>
        <time>2012-04-28T06:52:18Z</time>
      </trkpt>
      <trkpt lat="44.66682" lon="3.04075">
        <ele>1186.4</ele>
        <time>2012-04-28T06:52:30Z</time>
      </trkpt>
      <trkpt lat="44.66683" lon="3.04078">
        <ele>1187.85</ele>
        <time>2012-04-28T06:52:40Z</time>
      </trkpt>
      <trkpt lat="44.66682" lon="3.04078">
        <ele>1186.4</ele>
        <time>2012-04-28T06:52:47Z</time>
      </trkpt>
      <trkpt lat="44.66682" lon="3.04078">
        <ele>1186.88</ele>
        <time>2012-04-28T06:52:52Z</time>
      </trkpt>
      <trkpt lat="44.66682" lon="3.04078">
        <ele>1185.44</ele>
        <time>2012-04-28T06:52:59Z</time>
      </trkpt>
      <trkpt lat="44.66682" lon="3.04078">
        <ele>1186.4</ele>
        <time>2012-04-28T06:53:32Z</time>
      </trkpt>
      <trkpt lat="44.66684" lon="3.04079">
        <ele>1186.88</ele>
        <time>2012-04-28T06:53:47Z</time>
      </trkpt>
      <trkpt lat="44.66684" lon="3.04079">
        <ele>1183.52</ele>
        <time>2012-04-28T06:53:59Z</time>
      </trkpt>
      <trkpt lat="44.66684" lon="3.04079">
        <ele>1186.88</ele>
        <time>2012-04-28T06:54:00Z</time>
      </trkpt>
      <trkpt lat="44.66684" lon="3.04067">
        <ele>1183.04</ele>
        <time>2012-04-28T06:54:13Z</time>
      </trkpt>
      <trkpt lat="44.66684" lon="3.04073">
        <ele>1186.4</ele>
        <time>2012-04-28T06:54:27Z</time>
      </trkpt>
      <trkpt lat="44.66684" lon="3.04073">
        <ele>1185.44</ele>
        <time>2012-04-28T06:54:30Z</time>
      </trkpt>
      <trkpt lat="44.66684" lon="3.04073">
        <ele>1188.33</ele>
        <time>2012-04-28T06:54:36Z</time>
      </trkpt>
      <trkpt lat="44.66685" lon="3.04075">
        <ele>1184.48</ele>
        <time>2012-04-28T06:54:41Z</time>
      </trkpt>
      <trkpt lat="44.66684" lon="3.04075">
        <ele>1184.96</ele>
        <time>2012-04-28T06:54:50Z</time>
      </trkpt>
      <trkpt lat="44.66684" lon="3.04075">
        <ele>1183.52</ele>
        <time>2012-04-28T06:54:53Z</time>
      </trkpt>
      <trkpt lat="44.66685" lon="3.04076">
        <ele>1183.04</ele>
        <time>2012-04-28T06:54:54Z</time>
      </trkpt>
      <trkpt lat="44.66686" lon="3.04078">
        <ele>1184.48</ele>
        <time>2012-04-28T06:54:56Z</time>
      </trkpt>
      <trkpt lat="44.66688" lon="3.0408">
        <ele>1182.56</ele>
        <time>2012-04-28T06:54:59Z</time>
      </trkpt>
      <trkpt lat="44.66697" lon="3.04089">
        <ele>1185.92</ele>
        <time>2012-04-28T06:55:10Z</time>
      </trkpt>
      <trkpt lat="44.66698" lon="3.04094">
        <ele>1182.56</ele>
        <time>2012-04-28T06:55:14Z</time>
      </trkpt>
      <trkpt lat="44.66696" lon="3.04099">
        <ele>1178.71</ele>
        <time>2012-04-28T06:55:22Z</time>
      </trkpt>
      <trkpt lat="44.66696" lon="3.04099">
        <ele>1178.23</ele>
        <time>2012-04-28T06:55:23Z</time>
      </trkpt>
      <trkpt lat="44.66696" lon="3.04099">
        <ele>1182.08</ele>
        <time>2012-04-28T06:55:24Z</time>
      </trkpt>
      <trkpt lat="44.66696" lon="3.04099">
        <ele>1186.88</ele>
        <time>2012-04-28T06:55:26Z</time>
      </trkpt>
      <trkpt lat="44.66696" lon="3.04099">
        <ele>1186.4</ele>
        <time>2012-04-28T06:55:27Z</time>
      </trkpt>
      <trkpt lat="44.66696" lon="3.04099">
        <ele>1186.88</ele>
        <time>2012-04-28T06:55:31Z</time>
      </trkpt>
      <trkpt lat="44.66695" lon="3.04099">
        <ele>1183.04</ele>
        <time>2012-04-28T06:55:39Z</time>
      </trkpt>
      <trkpt lat="44.66694" lon="3.04099">
        <ele>1183.52</ele>
        <time>2012-04-28T06:55:40Z</time>
      </trkpt>
      <trkpt lat="44.66689" lon="3.04099">
        <ele>1184.96</ele>
        <time>2012-04-28T06:55:46Z</time>
      </trkpt>
      <trkpt lat="44.66676" lon="3.04101">
        <ele>1183.04</ele>
        <time>2012-04-28T06:56:01Z</time>
      </trkpt>
      <trkpt lat="44.66662" lon="3.04103">
        <ele>1183.04</ele>
        <time>2012-04-28T06:56:15Z</time>
      </trkpt>
      <trkpt lat="44.66653" lon="3.04104">
        <ele>1184.96</ele>
        <time>2012-04-28T06:56:22Z</time>
      </trkpt>
      <trkpt lat="44.66652" lon="3.04104">
        <ele>1183.52</ele>
        <time>2012-04-28T06:56:23Z</time>
      </trkpt>
      <trkpt lat="44.66648" lon="3.04105">
        <ele>1184</ele>
        <time>2012-04-28T06:56:27Z</time>
      </trkpt>
      <trkpt lat="44.66643" lon="3.04107">
        <ele>1186.4</ele>
        <time>2012-04-28T06:56:34Z</time>
      </trkpt>
      <trkpt lat="44.6664" lon="3.04107">
        <ele>1186.4</ele>
        <time>2012-04-28T06:56:36Z</time>
      </trkpt>
      <trkpt lat="44.66625" lon="3.04112">
        <ele>1186.4</ele>
        <time>2012-04-28T06:56:50Z</time>
      </trkpt>
      <trkpt lat="44.66617" lon="3.04115">
        <ele>1185.92</ele>
        <time>2012-04-28T06:56:56Z</time>
      </trkpt>
      <trkpt lat="44.66613" lon="3.04119">
        <ele>1186.4</ele>
        <time>2012-04-28T06:57:01Z</time>
      </trkpt>
      <trkpt lat="44.66604" lon="3.04128">
        <ele>1185.44</ele>
        <time>2012-04-28T06:57:10Z</time>
      </trkpt>
      <trkpt lat="44.66599" lon="3.04132">
        <ele>1187.85</ele>
        <time>2012-04-28T06:57:15Z</time>
      </trkpt>
      <trkpt lat="44.66598" lon="3.04132">
        <ele>1190.25</ele>
        <time>2012-04-28T06:57:16Z</time>
      </trkpt>
      <trkpt lat="44.66596" lon="3.04134">
        <ele>1185.44</ele>
        <time>2012-04-28T06:57:18Z</time>
      </trkpt>
      <trkpt lat="44.66595" lon="3.04135">
        <ele>1186.4</ele>
        <time>2012-04-28T06:57:19Z</time>
      </trkpt>
      <trkpt lat="44.66594" lon="3.04138">
        <ele>1187.37</ele>
        <time>2012-04-28T06:57:21Z</time>
      </trkpt>
      <trkpt lat="44.66594" lon="3.04139">
        <ele>1186.88</ele>
        <time>2012-04-28T06:57:22Z</time>
      </trkpt>
      <trkpt lat="44.66586" lon="3.0415">
        <ele>1183.52</ele>
        <time>2012-04-28T06:57:31Z</time>
      </trkpt>
      <trkpt lat="44.66585" lon="3.04151">
        <ele>1180.16</ele>
        <time>2012-04-28T06:57:32Z</time>
      </trkpt>
      <trkpt lat="44.66585" lon="3.04153">
        <ele>1182.08</ele>
        <time>2012-04-28T06:57:33Z</time>
      </trkpt>
      <trkpt lat="44.66584" lon="3.04153">
        <ele>1185.92</ele>
        <time>2012-04-28T06:57:34Z</time>
      </trkpt>
      <trkpt lat="44.6658" lon="3.04158">
        <ele>1184.96</ele>
        <time>2012-04-28T06:57:38Z</time>
      </trkpt>
      <trkpt lat="44.66578" lon="3.0416">
        <ele>1185.92</ele>
        <time>2012-04-28T06:57:40Z</time>
      </trkpt>
      <trkpt lat="44.66578" lon="3.04161">
        <ele>1182.56</ele>
        <time>2012-04-28T06:57:41Z</time>
      </trkpt>
      <trkpt lat="44.66577" lon="3.04163">
        <ele>1179.67</ele>
        <time>2012-04-28T06:57:42Z</time>
      </trkpt>
      <trkpt lat="44.66576" lon="3.04165">
        <ele>1177.75</ele>
        <time>2012-04-28T06:57:44Z</time>
      </trkpt>
      <trkpt lat="44.66575" lon="3.04167">
        <ele>1181.12</ele>
        <time>2012-04-28T06:57:45Z</time>
      </trkpt>
      <trkpt lat="44.66574" lon="3.04168">
        <ele>1182.08</ele>
        <time>2012-04-28T06:57:46Z</time>
      </trkpt>
      <trkpt lat="44.66571" lon="3.04176">
        <ele>1184.48</ele>
        <time>2012-04-28T06:57:53Z</time>
      </trkpt>
      <trkpt lat="44.66565" lon="3.04189">
        <ele>1184</ele>
        <time>2012-04-28T06:58:01Z</time>
      </trkpt>
      <trkpt lat="44.66563" lon="3.04192">
        <ele>1185.44</ele>
        <time>2012-04-28T06:58:04Z</time>
      </trkpt>
      <trkpt lat="44.6656" lon="3.04199">
        <ele>1179.67</ele>
        <time>2012-04-28T06:58:08Z</time>
      </trkpt>
      <trkpt lat="44.66559" lon="3.042">
        <ele>1183.04</ele>
        <time>2012-04-28T06:58:09Z</time>
      </trkpt>
      <trkpt lat="44.66551" lon="3.04213">
        <ele>1187.37</ele>
        <time>2012-04-28T06:58:19Z</time>
      </trkpt>
      <trkpt lat="44.66549" lon="3.04218">
        <ele>1181.6</ele>
        <time>2012-04-28T06:58:22Z</time>
      </trkpt>
      <trkpt lat="44.66548" lon="3.04219">
        <ele>1184</ele>
        <time>2012-04-28T06:58:23Z</time>
      </trkpt>
      <trkpt lat="44.66546" lon="3.04225">
        <ele>1182.56</ele>
        <time>2012-04-28T06:58:27Z</time>
      </trkpt>
      <trkpt lat="44.66544" lon="3.04227">
        <ele>1183.52</ele>
        <time>2012-04-28T06:58:29Z</time>
      </trkpt>
      <trkpt lat="44.66542" lon="3.0423">
        <ele>1180.64</ele>
        <time>2012-04-28T06:58:31Z</time>
      </trkpt>
      <trkpt lat="44.66542" lon="3.04237">
        <ele>1184</ele>
        <time>2012-04-28T06:58:34Z</time>
      </trkpt>
      <trkpt lat="44.66542" lon="3.04238">
        <ele>1184</ele>
        <time>2012-04-28T06:58:35Z</time>
      </trkpt>
      <trkpt lat="44.66541" lon="3.0424">
        <ele>1180.64</ele>
        <time>2012-04-28T06:58:36Z</time>
      </trkpt>
      <trkpt lat="44.66541" lon="3.04242">
        <ele>1182.08</ele>
        <time>2012-04-28T06:58:37Z</time>
      </trkpt>
      <trkpt lat="44.66536" lon="3.04247">
        <ele>1187.37</ele>
        <time>2012-04-28T06:58:42Z</time>
      </trkpt>
      <trkpt lat="44.66536" lon="3.04249">
        <ele>1183.52</ele>
        <time>2012-04-28T06:58:43Z</time>
      </trkpt>
      <trkpt lat="44.66533" lon="3.04252">
        <ele>1182.08</ele>
        <time>2012-04-28T06:58:47Z</time>
      </trkpt>
      <trkpt lat="44.66529" lon="3.04259">
        <ele>1181.12</ele>
        <time>2012-04-28T06:58:52Z</time>
      </trkpt>
      <trkpt lat="44.66525" lon="3.04267">
        <ele>1181.6</ele>
        <time>2012-04-28T06:58:58Z</time>
      </trkpt>
      <trkpt lat="44.66514" lon="3.04286">
        <ele>1181.6</ele>
        <time>2012-04-28T06:59:13Z</time>
      </trkpt>
      <trkpt lat="44.66498" lon="3.04305">
        <ele>1180.16</ele>
        <time>2012-04-28T06:59:30Z</time>
      </trkpt>
      <trkpt lat="44.66493" lon="3.04309">
        <ele>1181.12</ele>
        <time>2012-04-28T06:59:35Z</time>
      </trkpt>
      <trkpt lat="44.66479" lon="3.04321">
        <ele>1180.16</ele>
        <time>2012-04-28T06:59:49Z</time>
      </trkpt>
      <trkpt lat="44.66474" lon="3.04325">
        <ele>1180.16</ele>
        <time>2012-04-28T06:59:54Z</time>
      </trkpt>
      <trkpt lat="44.66471" lon="3.04327">
        <ele>1181.12</ele>
        <time>2012-04-28T06:59:56Z</time>
      </trkpt>
      <trkpt lat="44.66454" lon="3.04339">
        <ele>1180.64</ele>
        <time>2012-04-28T07:00:11Z</time>
      </trkpt>
      <trkpt lat="44.66447" lon="3.04344">
        <ele>1181.12</ele>
        <time>2012-04-28T07:00:17Z</time>
      </trkpt>
      <trkpt lat="44.66428" lon="3.04359">
        <ele>1182.56</ele>
        <time>2012-04-28T07:00:34Z</time>
      </trkpt>
      <trkpt lat="44.66409" lon="3.04372">
        <ele>1180.16</ele>
        <time>2012-04-28T07:00:50Z</time>
      </trkpt>
      <trkpt lat="44.66403" lon="3.04378">
        <ele>1180.64</ele>
        <time>2012-04-28T07:00:57Z</time>
      </trkpt>
      <trkpt lat="44.66397" lon="3.04382">
        <ele>1179.67</ele>
        <time>2012-04-28T07:01:02Z</time>
      </trkpt>
      <trkpt lat="44.66396" lon="3.04383">
        <ele>1181.12</ele>
        <time>2012-04-28T07:01:04Z</time>
      </trkpt>
      <trkpt lat="44.66388" lon="3.04389">
        <ele>1179.67</ele>
        <time>2012-04-28T07:01:11Z</time>
      </trkpt>
      <trkpt lat="44.66374" lon="3.04401">
        <ele>1181.12</ele>
        <time>2012-04-28T07:01:26Z</time>
      </trkpt>
      <trkpt lat="44.66372" lon="3.04402">
        <ele>1179.67</ele>
        <time>2012-04-28T07:01:28Z</time>
      </trkpt>
      <trkpt lat="44.6636" lon="3.04411">
        <ele>1179.19</ele>
        <time>2012-04-28T07:01:40Z</time>
      </trkpt>
      <trkpt lat="44.66345" lon="3.04422">
        <ele>1180.16</ele>
        <time>2012-04-28T07:01:55Z</time>
      </trkpt>
      <trkpt lat="44.66336" lon="3.04428">
        <ele>1182.56</ele>
        <time>2012-04-28T07:02:03Z</time>
      </trkpt>
      <trkpt lat="44.66327" lon="3.04432">
        <ele>1182.08</ele>
        <time>2012-04-28T07:02:11Z</time>
      </trkpt>
      <trkpt lat="44.66314" lon="3.04441">
        <ele>1180.16</ele>
        <time>2012-04-28T07:02:24Z</time>
      </trkpt>
      <trkpt lat="44.66313" lon="3.04442">
        <ele>1183.52</ele>
        <time>2012-04-28T07:02:26Z</time>
      </trkpt>
      <trkpt lat="44.66312" lon="3.04443">
        <ele>1183.04</ele>
        <time>2012-04-28T07:02:27Z</time>
      </trkpt>
      <trkpt lat="44.6631" lon="3.04444">
        <ele>1182.08</ele>
        <time>2012-04-28T07:02:29Z</time>
      </trkpt>
      <trkpt lat="44.66308" lon="3.04446">
        <ele>1180.16</ele>
        <time>2012-04-28T07:02:33Z</time>
      </trkpt>
      <trkpt lat="44.66304" lon="3.04447">
        <ele>1180.64</ele>
        <time>2012-04-28T07:02:46Z</time>
      </trkpt>
      <trkpt lat="44.66304" lon="3.04447">
        <ele>1178.23</ele>
        <time>2012-04-28T07:03:10Z</time>
      </trkpt>
      <trkpt lat="44.66304" lon="3.04447">
        <ele>1180.16</ele>
        <time>2012-04-28T07:03:11Z</time>
      </trkpt>
      <trkpt lat="44.66302" lon="3.0445">
        <ele>1181.12</ele>
        <time>2012-04-28T07:03:15Z</time>
      </trkpt>
      <trkpt lat="44.66297" lon="3.04454">
        <ele>1180.64</ele>
        <time>2012-04-28T07:03:19Z</time>
      </trkpt>
      <trkpt lat="44.66288" lon="3.0446">
        <ele>1184</ele>
        <time>2012-04-28T07:03:27Z</time>
      </trkpt>
      <trkpt lat="44.66281" lon="3.04465">
        <ele>1181.6</ele>
        <time>2012-04-28T07:03:33Z</time>
      </trkpt>
      <trkpt lat="44.66275" lon="3.04467">
        <ele>1182.56</ele>
        <time>2012-04-28T07:03:38Z</time>
      </trkpt>
      <trkpt lat="44.66273" lon="3.04467">
        <ele>1183.52</ele>
        <time>2012-04-28T07:03:40Z</time>
      </trkpt>
      <trkpt lat="44.66267" lon="3.0447">
        <ele>1179.67</ele>
        <time>2012-04-28T07:03:52Z</time>
      </trkpt>
      <trkpt lat="44.66267" lon="3.0447">
        <ele>1181.12</ele>
        <time>2012-04-28T07:04:04Z</time>
      </trkpt>
      <trkpt lat="44.66266" lon="3.04469">
        <ele>1179.67</ele>
        <time>2012-04-28T07:04:19Z</time>
      </trkpt>
      <trkpt lat="44.66266" lon="3.04469">
        <ele>1182.08</ele>
        <time>2012-04-28T07:04:27Z</time>
      </trkpt>
      <trkpt lat="44.66266" lon="3.04469">
        <ele>1180.16</ele>
        <time>2012-04-28T07:04:30Z</time>
      </trkpt>
      <trkpt lat="44.66266" lon="3.04469">
        <ele>1179.67</ele>
        <time>2012-04-28T07:04:44Z</time>
      </trkpt>
      <trkpt lat="44.66266" lon="3.04472">
        <ele>1181.12</ele>
        <time>2012-04-28T07:05:00Z</time>
      </trkpt>
      <trkpt lat="44.66266" lon="3.04472">
        <ele>1183.52</ele>
        <time>2012-04-28T07:05:05Z</time>
      </trkpt>
      <trkpt lat="44.66266" lon="3.04474">
        <ele>1181.6</ele>
        <time>2012-04-28T07:05:09Z</time>
      </trkpt>
      <trkpt lat="44.66266" lon="3.04477">
        <ele>1181.12</ele>
        <time>2012-04-28T07:05:17Z</time>
      </trkpt>
      <trkpt lat="44.66265" lon="3.0448">
        <ele>1181.6</ele>
        <time>2012-04-28T07:05:19Z</time>
      </trkpt>
      <trkpt lat="44.66268" lon="3.04488">
        <ele>1179.19</ele>
        <time>2012-04-28T07:05:25Z</time>
      </trkpt>
      <trkpt lat="44.66268" lon="3.0449">
        <ele>1179.67</ele>
        <time>2012-04-28T07:05:26Z</time>
      </trkpt>
      <trkpt lat="44.66269" lon="3.04511">
        <ele>1180.16</ele>
        <time>2012-04-28T07:05:42Z</time>
      </trkpt>
      <trkpt lat="44.66269" lon="3.04517">
        <ele>1179.67</ele>
        <time>2012-04-28T07:05:50Z</time>
      </trkpt>
      <trkpt lat="44.66266" lon="3.04533">
        <ele>1182.56</ele>
        <time>2012-04-28T07:06:00Z</time>
      </trkpt>
      <trkpt lat="44.66264" lon="3.04545">
        <ele>1183.04</ele>
        <time>2012-04-28T07:06:08Z</time>
      </trkpt>
      <trkpt lat="44.66266" lon="3.0456">
        <ele>1180.64</ele>
        <time>2012-04-28T07:06:19Z</time>
      </trkpt>
      <trkpt lat="44.66264" lon="3.04565">
        <ele>1179.19</ele>
        <time>2012-04-28T07:06:24Z</time>
      </trkpt>
      <trkpt lat="44.66264" lon="3.04567">
        <ele>1179.19</ele>
        <time>2012-04-28T07:06:25Z</time>
      </trkpt>
      <trkpt lat="44.66264" lon="3.04588">
        <ele>1179.67</ele>
        <time>2012-04-28T07:06:38Z</time>
      </trkpt>
      <trkpt lat="44.66264" lon="3.046">
        <ele>1180.64</ele>
        <time>2012-04-28T07:06:47Z</time>
      </trkpt>
      <trkpt lat="44.66263" lon="3.04608">
        <ele>1178.23</ele>
        <time>2012-04-28T07:06:53Z</time>
      </trkpt>
      <trkpt lat="44.66261" lon="3.04619">
        <ele>1177.27</ele>
        <time>2012-04-28T07:07:01Z</time>
      </trkpt>
      <trkpt lat="44.66261" lon="3.04626">
        <ele>1182.08</ele>
        <time>2012-04-28T07:07:05Z</time>
      </trkpt>
      <trkpt lat="44.66261" lon="3.04627">
        <ele>1181.12</ele>
        <time>2012-04-28T07:07:06Z</time>
      </trkpt>
      <trkpt lat="44.66262" lon="3.04631">
        <ele>1176.31</ele>
        <time>2012-04-28T07:07:08Z</time>
      </trkpt>
      <trkpt lat="44.66262" lon="3.04632">
        <ele>1178.23</ele>
        <time>2012-04-28T07:07:09Z</time>
      </trkpt>
      <trkpt lat="44.66259" lon="3.04638">
        <ele>1174.87</ele>
        <time>2012-04-28T07:07:13Z</time>
      </trkpt>
      <trkpt lat="44.66256" lon="3.0464">
        <ele>1176.79</ele>
        <time>2012-04-28T07:07:15Z</time>
      </trkpt>
      <trkpt lat="44.66256" lon="3.04643">
        <ele>1176.79</ele>
        <time>2012-04-28T07:07:27Z</time>
      </trkpt>
      <trkpt lat="44.66258" lon="3.04642">
        <ele>1175.35</ele>
        <time>2012-04-28T07:07:45Z</time>
      </trkpt>
      <trkpt lat="44.6626" lon="3.04638">
        <ele>1177.27</ele>
        <time>2012-04-28T07:07:56Z</time>
      </trkpt>
      <trkpt lat="44.66261" lon="3.04635">
        <ele>1178.71</ele>
        <time>2012-04-28T07:08:02Z</time>
      </trkpt>
      <trkpt lat="44.6626" lon="3.04635">
        <ele>1180.64</ele>
        <time>2012-04-28T07:08:04Z</time>
      </trkpt>
      <trkpt lat="44.66258" lon="3.04638">
        <ele>1176.31</ele>
        <time>2012-04-28T07:08:07Z</time>
      </trkpt>
      <trkpt lat="44.6625" lon="3.04654">
        <ele>1176.79</ele>
        <time>2012-04-28T07:08:20Z</time>
      </trkpt>
      <trkpt lat="44.66246" lon="3.04658">
        <ele>1176.31</ele>
        <time>2012-04-28T07:08:24Z</time>
      </trkpt>
      <trkpt lat="44.66243" lon="3.04661">
        <ele>1175.35</ele>
        <time>2012-04-28T07:08:28Z</time>
      </trkpt>
      <trkpt lat="44.66239" lon="3.04662">
        <ele>1173.43</ele>
        <time>2012-04-28T07:08:33Z</time>
      </trkpt>
      <trkpt lat="44.66236" lon="3.04659">
        <ele>1179.19</ele>
        <time>2012-04-28T07:08:37Z</time>
      </trkpt>
      <trkpt lat="44.66235" lon="3.04658">
        <ele>1178.71</ele>
        <time>2012-04-28T07:08:38Z</time>
      </trkpt>
      <trkpt lat="44.66234" lon="3.04657">
        <ele>1173.91</ele>
        <time>2012-04-28T07:08:39Z</time>
      </trkpt>
      <trkpt lat="44.66234" lon="3.04656">
        <ele>1174.39</ele>
        <time>2012-04-28T07:08:40Z</time>
      </trkpt>
      <trkpt lat="44.66233" lon="3.04654">
        <ele>1175.83</ele>
        <time>2012-04-28T07:08:41Z</time>
      </trkpt>
      <trkpt lat="44.66233" lon="3.04651">
        <ele>1171.5</ele>
        <time>2012-04-28T07:08:43Z</time>
      </trkpt>
      <trkpt lat="44.66232" lon="3.04651">
        <ele>1177.75</ele>
        <time>2012-04-28T07:08:44Z</time>
      </trkpt>
      <trkpt lat="44.66231" lon="3.04652">
        <ele>1173.43</ele>
        <time>2012-04-28T07:08:47Z</time>
      </trkpt>
      <trkpt lat="44.6623" lon="3.04652">
        <ele>1174.87</ele>
        <time>2012-04-28T07:08:48Z</time>
      </trkpt>
      <trkpt lat="44.66231" lon="3.04652">
        <ele>1173.91</ele>
        <time>2012-04-28T07:08:59Z</time>
      </trkpt>
      <trkpt lat="44.66231" lon="3.04652">
        <ele>1167.66</ele>
        <time>2012-04-28T07:09:02Z</time>
      </trkpt>
      <trkpt lat="44.66231" lon="3.04652">
        <ele>1177.27</ele>
        <time>2012-04-28T07:09:03Z</time>
      </trkpt>
      <trkpt lat="44.66231" lon="3.04652">
        <ele>1173.43</ele>
        <time>2012-04-28T07:09:04Z</time>
      </trkpt>
      <trkpt lat="44.66231" lon="3.04652">
        <ele>1172.47</ele>
        <time>2012-04-28T07:09:20Z</time>
      </trkpt>
      <trkpt lat="44.66231" lon="3.04651">
        <ele>1173.91</ele>
        <time>2012-04-28T07:09:23Z</time>
      </trkpt>
      <trkpt lat="44.66231" lon="3.04649">
        <ele>1171.98</ele>
        <time>2012-04-28T07:09:25Z</time>
      </trkpt>
      <trkpt lat="44.66232" lon="3.04647">
        <ele>1171.02</ele>
        <time>2012-04-28T07:09:33Z</time>
      </trkpt>
      <trkpt lat="44.66233" lon="3.04644">
        <ele>1172.95</ele>
        <time>2012-04-28T07:09:36Z</time>
      </trkpt>
      <trkpt lat="44.6623" lon="3.0464">
        <ele>1171.02</ele>
        <time>2012-04-28T07:09:46Z</time>
      </trkpt>
      <trkpt lat="44.6623" lon="3.0464">
        <ele>1174.39</ele>
        <time>2012-04-28T07:09:50Z</time>
      </trkpt>
      <trkpt lat="44.6623" lon="3.0464">
        <ele>1172.47</ele>
        <time>2012-04-28T07:09:53Z</time>
      </trkpt>
      <trkpt lat="44.66234" lon="3.0464">
        <ele>1174.39</ele>
        <time>2012-04-28T07:10:04Z</time>
      </trkpt>
      <trkpt lat="44.66236" lon="3.04639">
        <ele>1170.54</ele>
        <time>2012-04-28T07:10:10Z</time>
      </trkpt>
      <trkpt lat="44.66237" lon="3.04639">
        <ele>1169.58</ele>
        <time>2012-04-28T07:10:12Z</time>
      </trkpt>
      <trkpt lat="44.6624" lon="3.04638">
        <ele>1171.02</ele>
        <time>2012-04-28T07:10:15Z</time>
      </trkpt>
      <trkpt lat="44.66243" lon="3.04639">
        <ele>1174.39</ele>
        <time>2012-04-28T07:10:19Z</time>
      </trkpt>
      <trkpt lat="44.66231" lon="3.04645">
        <ele>1171.5</ele>
        <time>2012-04-28T07:16:38Z</time>
      </trkpt>
      <trkpt lat="44.66226" lon="3.04642">
        <ele>1169.58</ele>
        <time>2012-04-28T07:16:47Z</time>
      </trkpt>
      <trkpt lat="44.66227" lon="3.04644">
        <ele>1173.43</ele>
        <time>2012-04-28T07:16:49Z</time>
      </trkpt>
      <trkpt lat="44.66227" lon="3.04645">
        <ele>1171.5</ele>
        <time>2012-04-28T07:16:55Z</time>
      </trkpt>
      <trkpt lat="44.66228" lon="3.04645">
        <ele>1173.43</ele>
        <time>2012-04-28T07:17:02Z</time>
      </trkpt>
      <trkpt lat="44.66228" lon="3.04645">
        <ele>1176.31</ele>
        <time>2012-04-28T07:17:05Z</time>
      </trkpt>
      <trkpt lat="44.66227" lon="3.04645">
        <ele>1171.98</ele>
        <time>2012-04-28T07:17:06Z</time>
      </trkpt>
      <trkpt lat="44.66228" lon="3.04644">
        <ele>1171.5</ele>
        <time>2012-04-28T07:17:08Z</time>
      </trkpt>
      <trkpt lat="44.66228" lon="3.04643">
        <ele>1171.5</ele>
        <time>2012-04-28T07:17:12Z</time>
      </trkpt>
      <trkpt lat="44.66229" lon="3.04644">
        <ele>1171.02</ele>
        <time>2012-04-28T07:17:21Z</time>
      </trkpt>
      <trkpt lat="44.66229" lon="3.04647">
        <ele>1172.47</ele>
        <time>2012-04-28T07:17:24Z</time>
      </trkpt>
      <trkpt lat="44.66231" lon="3.04649">
        <ele>1169.58</ele>
        <time>2012-04-28T07:17:37Z</time>
      </trkpt>
      <trkpt lat="44.66229" lon="3.04647">
        <ele>1174.87</ele>
        <time>2012-04-28T07:17:41Z</time>
      </trkpt>
      <trkpt lat="44.66229" lon="3.04646">
        <ele>1174.39</ele>
        <time>2012-04-28T07:17:42Z</time>
      </trkpt>
      <trkpt lat="44.66231" lon="3.04646">
        <ele>1171.98</ele>
        <time>2012-04-28T07:17:56Z</time>
      </trkpt>
      <trkpt lat="44.66232" lon="3.04647">
        <ele>1169.58</ele>
        <time>2012-04-28T07:17:59Z</time>
      </trkpt>
      <trkpt lat="44.66233" lon="3.04647">
        <ele>1172.95</ele>
        <time>2012-04-28T07:18:06Z</time>
      </trkpt>
      <trkpt lat="44.66233" lon="3.04647">
        <ele>1173.43</ele>
        <time>2012-04-28T07:18:08Z</time>
      </trkpt>
      <trkpt lat="44.66232" lon="3.0465">
        <ele>1171.98</ele>
        <time>2012-04-28T07:18:17Z</time>
      </trkpt>
      <trkpt lat="44.66233" lon="3.04655">
        <ele>1173.91</ele>
        <time>2012-04-28T07:18:25Z</time>
      </trkpt>
      <trkpt lat="44.66236" lon="3.0466">
        <ele>1173.91</ele>
        <time>2012-04-28T07:18:30Z</time>
      </trkpt>
      <trkpt lat="44.66244" lon="3.04664">
        <ele>1173.43</ele>
        <time>2012-04-28T07:18:42Z</time>
      </trkpt>
      <trkpt lat="44.66244" lon="3.04664">
        <ele>1173.91</ele>
        <time>2012-04-28T07:18:51Z</time>
      </trkpt>
      <trkpt lat="44.66246" lon="3.04662">
        <ele>1175.35</ele>
        <time>2012-04-28T07:18:54Z</time>
      </trkpt>
      <trkpt lat="44.66251" lon="3.04654">
        <ele>1176.79</ele>
        <time>2012-04-28T07:19:07Z</time>
      </trkpt>
      <trkpt lat="44.66254" lon="3.04649">
        <ele>1177.75</ele>
        <time>2012-04-28T07:19:16Z</time>
      </trkpt>
      <trkpt lat="44.66262" lon="3.04639">
        <ele>1178.71</ele>
        <time>2012-04-28T07:19:28Z</time>
      </trkpt>
      <trkpt lat="44.66265" lon="3.04635">
        <ele>1175.35</ele>
        <time>2012-04-28T07:19:37Z</time>
      </trkpt>
      <trkpt lat="44.66265" lon="3.04635">
        <ele>1178.71</ele>
        <time>2012-04-28T07:19:42Z</time>
      </trkpt>
      <trkpt lat="44.66263" lon="3.04634">
        <ele>1178.23</ele>
        <time>2012-04-28T07:20:03Z</time>
      </trkpt>
      <trkpt lat="44.66264" lon="3.04633">
        <ele>1177.75</ele>
        <time>2012-04-28T07:20:04Z</time>
      </trkpt>
      <trkpt lat="44.66267" lon="3.04629">
        <ele>1178.23</ele>
        <time>2012-04-28T07:20:17Z</time>
      </trkpt>
      <trkpt lat="44.66267" lon="3.04629">
        <ele>1178.23</ele>
        <time>2012-04-28T07:20:39Z</time>
      </trkpt>
      <trkpt lat="44.66269" lon="3.04636">
        <ele>1177.27</ele>
        <time>2012-04-28T07:20:45Z</time>
      </trkpt>
      <trkpt lat="44.66265" lon="3.04637">
        <ele>1177.75</ele>
        <time>2012-04-28T07:21:02Z</time>
      </trkpt>
      <trkpt lat="44.66265" lon="3.04632">
        <ele>1177.27</ele>
        <time>2012-04-28T07:21:18Z</time>
      </trkpt>
      <trkpt lat="44.66256" lon="3.04629">
        <ele>1174.87</ele>
        <time>2012-04-28T07:21:39Z</time>
      </trkpt>
      <trkpt lat="44.66253" lon="3.04632">
        <ele>1177.75</ele>
        <time>2012-04-28T07:21:44Z</time>
      </trkpt>
      <trkpt lat="44.6625" lon="3.04635">
        <ele>1175.83</ele>
        <time>2012-04-28T07:21:49Z</time>
      </trkpt>
      <trkpt lat="44.6625" lon="3.04638">
        <ele>1178.71</ele>
        <time>2012-04-28T07:21:55Z</time>
      </trkpt>
      <trkpt lat="44.6625" lon="3.04639">
        <ele>1175.35</ele>
        <time>2012-04-28T07:22:03Z</time>
      </trkpt>
      <trkpt lat="44.6625" lon="3.04638">
        <ele>1175.35</ele>
        <time>2012-04-28T07:22:04Z</time>
      </trkpt>
      <trkpt lat="44.6625" lon="3.04637">
        <ele>1177.75</ele>
        <time>2012-04-28T07:22:09Z</time>
      </trkpt>
      <trkpt lat="44.66258" lon="3.04634">
        <ele>1176.79</ele>
        <time>2012-04-28T07:22:24Z</time>
      </trkpt>
      <trkpt lat="44.66256" lon="3.04635">
        <ele>1178.23</ele>
        <time>2012-04-28T07:22:36Z</time>
      </trkpt>
      <trkpt lat="44.66256" lon="3.04635">
        <ele>1174.87</ele>
        <time>2012-04-28T07:22:41Z</time>
      </trkpt>
      <trkpt lat="44.66256" lon="3.04635">
        <ele>1177.75</ele>
        <time>2012-04-28T07:22:43Z</time>
      </trkpt>
      <trkpt lat="44.66256" lon="3.04635">
        <ele>1177.27</ele>
        <time>2012-04-28T07:22:44Z</time>
      </trkpt>
      <trkpt lat="44.66257" lon="3.04634">
        <ele>1177.27</ele>
        <time>2012-04-28T07:22:59Z</time>
      </trkpt>
      <trkpt lat="44.66257" lon="3.04634">
        <ele>1173.91</ele>
        <time>2012-04-28T07:23:06Z</time>
      </trkpt>
      <trkpt lat="44.66257" lon="3.04634">
        <ele>1177.27</ele>
        <time>2012-04-28T07:23:12Z</time>
      </trkpt>
      <trkpt lat="44.66257" lon="3.04634">
        <ele>1177.27</ele>
        <time>2012-04-28T07:23:13Z</time>
      </trkpt>
      <trkpt lat="44.66257" lon="3.04634">
        <ele>1177.27</ele>
        <time>2012-04-28T07:23:41Z</time>
      </trkpt>
      <trkpt lat="44.66258" lon="3.04636">
        <ele>1177.75</ele>
        <time>2012-04-28T07:24:04Z</time>
      </trkpt>
      <trkpt lat="44.66258" lon="3.04636">
        <ele>1177.27</ele>
        <time>2012-04-28T07:24:06Z</time>
      </trkpt>
      <trkpt lat="44.66258" lon="3.04636">
        <ele>1179.19</ele>
        <time>2012-04-28T07:24:16Z</time>
      </trkpt>
      <trkpt lat="44.66258" lon="3.04636">
        <ele>1176.31</ele>
        <time>2012-04-28T07:24:32Z</time>
      </trkpt>
      <trkpt lat="44.66258" lon="3.04636">
        <ele>1177.75</ele>
        <time>2012-04-28T07:24:45Z</time>
      </trkpt>
      <trkpt lat="44.66258" lon="3.04635">
        <ele>1177.27</ele>
        <time>2012-04-28T07:25:02Z</time>
      </trkpt>
      <trkpt lat="44.6626" lon="3.04626">
        <ele>1178.23</ele>
        <time>2012-04-28T07:25:13Z</time>
      </trkpt>
      <trkpt lat="44.66261" lon="3.0462">
        <ele>1179.67</ele>
        <time>2012-04-28T07:25:21Z</time>
      </trkpt>
      <trkpt lat="44.6626" lon="3.04616">
        <ele>1178.71</ele>
        <time>2012-04-28T07:25:31Z</time>
      </trkpt>
      <trkpt lat="44.66258" lon="3.04617">
        <ele>1180.16</ele>
        <time>2012-04-28T07:25:48Z</time>
      </trkpt>
      <trkpt lat="44.66258" lon="3.04617">
        <ele>1179.19</ele>
        <time>2012-04-28T07:26:10Z</time>
      </trkpt>
      <trkpt lat="44.66258" lon="3.04617">
        <ele>1179.67</ele>
        <time>2012-04-28T07:26:18Z</time>
      </trkpt>
      <trkpt lat="44.66258" lon="3.04617">
        <ele>1179.19</ele>
        <time>2012-04-28T07:26:28Z</time>
      </trkpt>
      <trkpt lat="44.66261" lon="3.04613">
        <ele>1180.64</ele>
        <time>2012-04-28T07:26:38Z</time>
      </trkpt>
      <trkpt lat="44.66261" lon="3.04613">
        <ele>1180.16</ele>
        <time>2012-04-28T07:26:39Z</time>
      </trkpt>
      <trkpt lat="44.66271" lon="3.04614">
        <ele>1181.6</ele>
        <time>2012-04-28T07:26:50Z</time>
      </trkpt>
      <trkpt lat="44.66276" lon="3.04616">
        <ele>1181.12</ele>
        <time>2012-04-28T07:26:55Z</time>
      </trkpt>
      <trkpt lat="44.66279" lon="3.04618">
        <ele>1181.12</ele>
        <time>2012-04-28T07:26:59Z</time>
      </trkpt>
      <trkpt lat="44.66283" lon="3.0462">
        <ele>1182.56</ele>
        <time>2012-04-28T07:27:02Z</time>
      </trkpt>
      <trkpt lat="44.6629" lon="3.04624">
        <ele>1182.08</ele>
        <time>2012-04-28T07:27:10Z</time>
      </trkpt>
      <trkpt lat="44.66292" lon="3.04626">
        <ele>1183.04</ele>
        <time>2012-04-28T07:27:16Z</time>
      </trkpt>
      <trkpt lat="44.66293" lon="3.04626">
        <ele>1181.6</ele>
        <time>2012-04-28T07:27:19Z</time>
      </trkpt>
      <trkpt lat="44.66296" lon="3.04623">
        <ele>1183.52</ele>
        <time>2012-04-28T07:27:22Z</time>
      </trkpt>
      <trkpt lat="44.66306" lon="3.0462">
        <ele>1184</ele>
        <time>2012-04-28T07:27:34Z</time>
      </trkpt>
      <trkpt lat="44.66305" lon="3.04621">
        <ele>1184.48</ele>
        <time>2012-04-28T07:27:35Z</time>
      </trkpt>
      <trkpt lat="44.663" lon="3.04623">
        <ele>1183.04</ele>
        <time>2012-04-28T07:27:41Z</time>
      </trkpt>
      <trkpt lat="44.66286" lon="3.04621">
        <ele>1183.04</ele>
        <time>2012-04-28T07:27:54Z</time>
      </trkpt>
      <trkpt lat="44.66279" lon="3.04611">
        <ele>1180.16</ele>
        <time>2012-04-28T07:28:06Z</time>
      </trkpt>
      <trkpt lat="44.66281" lon="3.046">
        <ele>1180.64</ele>
        <time>2012-04-28T07:28:15Z</time>
      </trkpt>
      <trkpt lat="44.6628" lon="3.04596">
        <ele>1179.67</ele>
        <time>2012-04-28T07:28:30Z</time>
      </trkpt>
      <trkpt lat="44.6628" lon="3.04596">
        <ele>1179.67</ele>
        <time>2012-04-28T07:28:50Z</time>
      </trkpt>
      <trkpt lat="44.6628" lon="3.04596">
        <ele>1181.6</ele>
        <time>2012-04-28T07:29:20Z</time>
      </trkpt>
      <trkpt lat="44.6628" lon="3.04596">
        <ele>1180.16</ele>
        <time>2012-04-28T07:29:36Z</time>
      </trkpt>
      <trkpt lat="44.66279" lon="3.04595">
        <ele>1182.08</ele>
        <time>2012-04-28T07:29:43Z</time>
      </trkpt>
      <trkpt lat="44.66279" lon="3.04593">
        <ele>1180.64</ele>
        <time>2012-04-28T07:29:56Z</time>
      </trkpt>
      <trkpt lat="44.66279" lon="3.04593">
        <ele>1181.12</ele>
        <time>2012-04-28T07:30:02Z</time>
      </trkpt>
      <trkpt lat="44.66277" lon="3.04587">
        <ele>1179.67</ele>
        <time>2012-04-28T07:30:15Z</time>
      </trkpt>
      <trkpt lat="44.66277" lon="3.04584">
        <ele>1179.19</ele>
        <time>2012-04-28T07:30:17Z</time>
      </trkpt>
      <trkpt lat="44.66273" lon="3.04576">
        <ele>1181.12</ele>
        <time>2012-04-28T07:30:30Z</time>
      </trkpt>
      <trkpt lat="44.66271" lon="3.04571">
        <ele>1181.12</ele>
        <time>2012-04-28T07:30:32Z</time>
      </trkpt>
      <trkpt lat="44.66265" lon="3.04554">
        <ele>1181.6</ele>
        <time>2012-04-28T07:30:45Z</time>
      </trkpt>
      <trkpt lat="44.66264" lon="3.04548">
        <ele>1181.6</ele>
        <time>2012-04-28T07:30:50Z</time>
      </trkpt>
      <trkpt lat="44.66266" lon="3.04539">
        <ele>1180.64</ele>
        <time>2012-04-28T07:30:55Z</time>
      </trkpt>
      <trkpt lat="44.66269" lon="3.0453">
        <ele>1181.12</ele>
        <time>2012-04-28T07:31:08Z</time>
      </trkpt>
      <trkpt lat="44.66269" lon="3.04521">
        <ele>1180.64</ele>
        <time>2012-04-28T07:31:21Z</time>
      </trkpt>
      <trkpt lat="44.66272" lon="3.04519">
        <ele>1180.16</ele>
        <time>2012-04-28T07:31:35Z</time>
      </trkpt>
      <trkpt lat="44.66269" lon="3.04515">
        <ele>1180.16</ele>
        <time>2012-04-28T07:32:00Z</time>
      </trkpt>
      <trkpt lat="44.66269" lon="3.0451">
        <ele>1179.67</ele>
        <time>2012-04-28T07:32:05Z</time>
      </trkpt>
      <trkpt lat="44.66268" lon="3.04507">
        <ele>1179.67</ele>
        <time>2012-04-28T07:32:07Z</time>
      </trkpt>
      <trkpt lat="44.66273" lon="3.04486">
        <ele>1181.12</ele>
        <time>2012-04-28T07:32:21Z</time>
      </trkpt>
      <trkpt lat="44.66272" lon="3.0448">
        <ele>1180.16</ele>
        <time>2012-04-28T07:32:24Z</time>
      </trkpt>
      <trkpt lat="44.66271" lon="3.04473">
        <ele>1179.67</ele>
        <time>2012-04-28T07:32:30Z</time>
      </trkpt>
      <trkpt lat="44.66266" lon="3.04466">
        <ele>1181.12</ele>
        <time>2012-04-28T07:32:35Z</time>
      </trkpt>
      <trkpt lat="44.66265" lon="3.04463">
        <ele>1180.16</ele>
        <time>2012-04-28T07:32:37Z</time>
      </trkpt>
      <trkpt lat="44.66265" lon="3.04461">
        <ele>1183.52</ele>
        <time>2012-04-28T07:32:38Z</time>
      </trkpt>
      <trkpt lat="44.66265" lon="3.0446">
        <ele>1181.12</ele>
        <time>2012-04-28T07:32:39Z</time>
      </trkpt>
      <trkpt lat="44.66264" lon="3.04456">
        <ele>1177.75</ele>
        <time>2012-04-28T07:32:42Z</time>
      </trkpt>
      <trkpt lat="44.66264" lon="3.04455">
        <ele>1176.79</ele>
        <time>2012-04-28T07:32:43Z</time>
      </trkpt>
      <trkpt lat="44.66266" lon="3.0443">
        <ele>1177.27</ele>
        <time>2012-04-28T07:32:57Z</time>
      </trkpt>
      <trkpt lat="44.66266" lon="3.04425">
        <ele>1180.16</ele>
        <time>2012-04-28T07:33:00Z</time>
      </trkpt>
      <trkpt lat="44.66266" lon="3.04419">
        <ele>1177.27</ele>
        <time>2012-04-28T07:33:03Z</time>
      </trkpt>
      <trkpt lat="44.66262" lon="3.04405">
        <ele>1178.23</ele>
        <time>2012-04-28T07:33:12Z</time>
      </trkpt>
      <trkpt lat="44.66262" lon="3.04396">
        <ele>1179.19</ele>
        <time>2012-04-28T07:33:18Z</time>
      </trkpt>
      <trkpt lat="44.66261" lon="3.04389">
        <ele>1183.52</ele>
        <time>2012-04-28T07:33:22Z</time>
      </trkpt>
      <trkpt lat="44.6626" lon="3.04388">
        <ele>1182.56</ele>
        <time>2012-04-28T07:33:23Z</time>
      </trkpt>
      <trkpt lat="44.66256" lon="3.04382">
        <ele>1182.56</ele>
        <time>2012-04-28T07:33:27Z</time>
      </trkpt>
      <trkpt lat="44.66255" lon="3.04369">
        <ele>1182.56</ele>
        <time>2012-04-28T07:33:34Z</time>
      </trkpt>
      <trkpt lat="44.66253" lon="3.0436">
        <ele>1181.12</ele>
        <time>2012-04-28T07:33:40Z</time>
      </trkpt>
      <trkpt lat="44.66253" lon="3.04356">
        <ele>1183.52</ele>
        <time>2012-04-28T07:33:43Z</time>
      </trkpt>
      <trkpt lat="44.66253" lon="3.04353">
        <ele>1182.08</ele>
        <time>2012-04-28T07:33:45Z</time>
      </trkpt>
      <trkpt lat="44.66248" lon="3.04338">
        <ele>1184.48</ele>
        <time>2012-04-28T07:33:56Z</time>
      </trkpt>
      <trkpt lat="44.66246" lon="3.04335">
        <ele>1181.6</ele>
        <time>2012-04-28T07:33:58Z</time>
      </trkpt>
      <trkpt lat="44.66241" lon="3.04323">
        <ele>1181.6</ele>
        <time>2012-04-28T07:34:07Z</time>
      </trkpt>
      <trkpt lat="44.66232" lon="3.04311">
        <ele>1181.12</ele>
        <time>2012-04-28T07:34:20Z</time>
      </trkpt>
      <trkpt lat="44.66225" lon="3.04297">
        <ele>1182.56</ele>
        <time>2012-04-28T07:34:33Z</time>
      </trkpt>
      <trkpt lat="44.66221" lon="3.04289">
        <ele>1180.16</ele>
        <time>2012-04-28T07:34:39Z</time>
      </trkpt>
      <trkpt lat="44.66216" lon="3.0428">
        <ele>1182.08</ele>
        <time>2012-04-28T07:34:46Z</time>
      </trkpt>
      <trkpt lat="44.66214" lon="3.04278">
        <ele>1181.12</ele>
        <time>2012-04-28T07:34:49Z</time>
      </trkpt>
      <trkpt lat="44.66212" lon="3.04275">
        <ele>1181.12</ele>
        <time>2012-04-28T07:34:51Z</time>
      </trkpt>
      <trkpt lat="44.66201" lon="3.04257">
        <ele>1181.12</ele>
        <time>2012-04-28T07:35:05Z</time>
      </trkpt>
      <trkpt lat="44.66195" lon="3.04247">
        <ele>1180.64</ele>
        <time>2012-04-28T07:35:14Z</time>
      </trkpt>
      <trkpt lat="44.66185" lon="3.04231">
        <ele>1182.56</ele>
        <time>2012-04-28T07:35:27Z</time>
      </trkpt>
      <trkpt lat="44.66174" lon="3.04212">
        <ele>1180.16</ele>
        <time>2012-04-28T07:35:44Z</time>
      </trkpt>
      <trkpt lat="44.66163" lon="3.04192">
        <ele>1179.19</ele>
        <time>2012-04-28T07:36:02Z</time>
      </trkpt>
      <trkpt lat="44.6616" lon="3.0419">
        <ele>1179.19</ele>
        <time>2012-04-28T07:36:05Z</time>
      </trkpt>
      <trkpt lat="44.66153" lon="3.04186">
        <ele>1179.67</ele>
        <time>2012-04-28T07:36:20Z</time>
      </trkpt>
      <trkpt lat="44.66151" lon="3.04182">
        <ele>1180.64</ele>
        <time>2012-04-28T07:36:26Z</time>
      </trkpt>
      <trkpt lat="44.66149" lon="3.04176">
        <ele>1179.19</ele>
        <time>2012-04-28T07:36:30Z</time>
      </trkpt>
      <trkpt lat="44.66143" lon="3.04168">
        <ele>1178.23</ele>
        <time>2012-04-28T07:36:38Z</time>
      </trkpt>
      <trkpt lat="44.66139" lon="3.04165">
        <ele>1181.6</ele>
        <time>2012-04-28T07:36:42Z</time>
      </trkpt>
      <trkpt lat="44.66121" lon="3.04141">
        <ele>1179.19</ele>
        <time>2012-04-28T07:37:03Z</time>
      </trkpt>
      <trkpt lat="44.66119" lon="3.04138">
        <ele>1182.08</ele>
        <time>2012-04-28T07:37:05Z</time>
      </trkpt>
      <trkpt lat="44.66116" lon="3.04134">
        <ele>1180.64</ele>
        <time>2012-04-28T07:37:08Z</time>
      </trkpt>
      <trkpt lat="44.66104" lon="3.04119">
        <ele>1180.64</ele>
        <time>2012-04-28T07:37:26Z</time>
      </trkpt>
      <trkpt lat="44.66104" lon="3.04118">
        <ele>1181.6</ele>
        <time>2012-04-28T07:37:27Z</time>
      </trkpt>
      <trkpt lat="44.661" lon="3.04113">
        <ele>1182.08</ele>
        <time>2012-04-28T07:37:31Z</time>
      </trkpt>
      <trkpt lat="44.66079" lon="3.04085">
        <ele>1183.52</ele>
        <time>2012-04-28T07:37:54Z</time>
      </trkpt>
      <trkpt lat="44.66067" lon="3.04069">
        <ele>1182.08</ele>
        <time>2012-04-28T07:38:11Z</time>
      </trkpt>
      <trkpt lat="44.66068" lon="3.04071">
        <ele>1180.64</ele>
        <time>2012-04-28T07:38:13Z</time>
      </trkpt>
      <trkpt lat="44.6607" lon="3.04075">
        <ele>1181.6</ele>
        <time>2012-04-28T07:38:18Z</time>
      </trkpt>
      <trkpt lat="44.6607" lon="3.04076">
        <ele>1180.16</ele>
        <time>2012-04-28T07:38:24Z</time>
      </trkpt>
      <trkpt lat="44.66069" lon="3.04074">
        <ele>1184</ele>
        <time>2012-04-28T07:38:33Z</time>
      </trkpt>
      <trkpt lat="44.66069" lon="3.04072">
        <ele>1184</ele>
        <time>2012-04-28T07:38:34Z</time>
      </trkpt>
      <trkpt lat="44.66067" lon="3.04068">
        <ele>1184.48</ele>
        <time>2012-04-28T07:38:38Z</time>
      </trkpt>
      <trkpt lat="44.66062" lon="3.04054">
        <ele>1185.44</ele>
        <time>2012-04-28T07:38:48Z</time>
      </trkpt>
      <trkpt lat="44.66051" lon="3.04033">
        <ele>1185.92</ele>
        <time>2012-04-28T07:39:02Z</time>
      </trkpt>
      <trkpt lat="44.66043" lon="3.04022">
        <ele>1184</ele>
        <time>2012-04-28T07:39:11Z</time>
      </trkpt>
      <trkpt lat="44.66037" lon="3.04012">
        <ele>1182.56</ele>
        <time>2012-04-28T07:39:18Z</time>
      </trkpt>
      <trkpt lat="44.6603" lon="3.03996">
        <ele>1184.96</ele>
        <time>2012-04-28T07:39:29Z</time>
      </trkpt>
      <trkpt lat="44.66029" lon="3.03994">
        <ele>1186.4</ele>
        <time>2012-04-28T07:39:31Z</time>
      </trkpt>
      <trkpt lat="44.66029" lon="3.0399">
        <ele>1186.88</ele>
        <time>2012-04-28T07:39:33Z</time>
      </trkpt>
      <trkpt lat="44.6603" lon="3.03984">
        <ele>1189.29</ele>
        <time>2012-04-28T07:39:36Z</time>
      </trkpt>
      <trkpt lat="44.66031" lon="3.0398">
        <ele>1192.17</ele>
        <time>2012-04-28T07:39:38Z</time>
      </trkpt>
      <trkpt lat="44.66032" lon="3.03979">
        <ele>1192.17</ele>
        <time>2012-04-28T07:39:39Z</time>
      </trkpt>
      <trkpt lat="44.66037" lon="3.03959">
        <ele>1189.29</ele>
        <time>2012-04-28T07:39:51Z</time>
      </trkpt>
      <trkpt lat="44.6604" lon="3.03953">
        <ele>1190.25</ele>
        <time>2012-04-28T07:39:55Z</time>
      </trkpt>
      <trkpt lat="44.66046" lon="3.03933">
        <ele>1188.81</ele>
        <time>2012-04-28T07:40:09Z</time>
      </trkpt>
      <trkpt lat="44.66051" lon="3.03925">
        <ele>1193.13</ele>
        <time>2012-04-28T07:40:15Z</time>
      </trkpt>
      <trkpt lat="44.66051" lon="3.03924">
        <ele>1192.65</ele>
        <time>2012-04-28T07:40:16Z</time>
      </trkpt>
      <trkpt lat="44.66055" lon="3.03913">
        <ele>1192.65</ele>
        <time>2012-04-28T07:40:24Z</time>
      </trkpt>
      <trkpt lat="44.66057" lon="3.03909">
        <ele>1194.58</ele>
        <time>2012-04-28T07:40:27Z</time>
      </trkpt>
      <trkpt lat="44.66063" lon="3.03894">
        <ele>1194.09</ele>
        <time>2012-04-28T07:40:40Z</time>
      </trkpt>
      <trkpt lat="44.66072" lon="3.03887">
        <ele>1194.09</ele>
        <time>2012-04-28T07:40:55Z</time>
      </trkpt>
      <trkpt lat="44.66083" lon="3.03873">
        <ele>1196.02</ele>
        <time>2012-04-28T07:41:08Z</time>
      </trkpt>
      <trkpt lat="44.66092" lon="3.03859">
        <ele>1197.94</ele>
        <time>2012-04-28T07:41:22Z</time>
      </trkpt>
      <trkpt lat="44.66103" lon="3.03845">
        <ele>1198.42</ele>
        <time>2012-04-28T07:41:38Z</time>
      </trkpt>
      <trkpt lat="44.6611" lon="3.03842">
        <ele>1200.82</ele>
        <time>2012-04-28T07:41:45Z</time>
      </trkpt>
      <trkpt lat="44.66117" lon="3.0384">
        <ele>1200.82</ele>
        <time>2012-04-28T07:41:51Z</time>
      </trkpt>
      <trkpt lat="44.66125" lon="3.03838">
        <ele>1204.19</ele>
        <time>2012-04-28T07:41:58Z</time>
      </trkpt>
      <trkpt lat="44.66126" lon="3.03838">
        <ele>1203.23</ele>
        <time>2012-04-28T07:41:59Z</time>
      </trkpt>
      <trkpt lat="44.66136" lon="3.03834">
        <ele>1202.75</ele>
        <time>2012-04-28T07:42:07Z</time>
      </trkpt>
      <trkpt lat="44.66135" lon="3.03828">
        <ele>1202.75</ele>
        <time>2012-04-28T07:42:10Z</time>
      </trkpt>
      <trkpt lat="44.66136" lon="3.03821">
        <ele>1201.79</ele>
        <time>2012-04-28T07:42:15Z</time>
      </trkpt>
      <trkpt lat="44.6613" lon="3.0381">
        <ele>1202.75</ele>
        <time>2012-04-28T07:42:27Z</time>
      </trkpt>
      <trkpt lat="44.66124" lon="3.03801">
        <ele>1203.23</ele>
        <time>2012-04-28T07:42:39Z</time>
      </trkpt>
      <trkpt lat="44.66117" lon="3.03791">
        <ele>1204.19</ele>
        <time>2012-04-28T07:42:50Z</time>
      </trkpt>
      <trkpt lat="44.66114" lon="3.03781">
        <ele>1204.67</ele>
        <time>2012-04-28T07:42:59Z</time>
      </trkpt>
      <trkpt lat="44.66103" lon="3.03763">
        <ele>1207.07</ele>
        <time>2012-04-28T07:43:12Z</time>
      </trkpt>
      <trkpt lat="44.661" lon="3.03757">
        <ele>1209.96</ele>
        <time>2012-04-28T07:43:17Z</time>
      </trkpt>
      <trkpt lat="44.66095" lon="3.03746">
        <ele>1209</ele>
        <time>2012-04-28T07:43:25Z</time>
      </trkpt>
      <trkpt lat="44.66093" lon="3.03741">
        <ele>1209</ele>
        <time>2012-04-28T07:43:29Z</time>
      </trkpt>
      <trkpt lat="44.66089" lon="3.03731">
        <ele>1209.48</ele>
        <time>2012-04-28T07:43:37Z</time>
      </trkpt>
      <trkpt lat="44.66088" lon="3.03722">
        <ele>1209.48</ele>
        <time>2012-04-28T07:43:43Z</time>
      </trkpt>
      <trkpt lat="44.66079" lon="3.03705">
        <ele>1209</ele>
        <time>2012-04-28T07:43:57Z</time>
      </trkpt>
      <trkpt lat="44.66078" lon="3.03704">
        <ele>1209</ele>
        <time>2012-04-28T07:43:58Z</time>
      </trkpt>
      <trkpt lat="44.66068" lon="3.03698">
        <ele>1209</ele>
        <time>2012-04-28T07:44:13Z</time>
      </trkpt>
      <trkpt lat="44.6605" lon="3.03688">
        <ele>1209</ele>
        <time>2012-04-28T07:44:28Z</time>
      </trkpt>
      <trkpt lat="44.66041" lon="3.03689">
        <ele>1209.96</ele>
        <time>2012-04-28T07:44:35Z</time>
      </trkpt>
      <trkpt lat="44.66031" lon="3.03686">
        <ele>1211.4</ele>
        <time>2012-04-28T07:44:41Z</time>
      </trkpt>
      <trkpt lat="44.66028" lon="3.03685">
        <ele>1209.96</ele>
        <time>2012-04-28T07:44:45Z</time>
      </trkpt>
      <trkpt lat="44.6602" lon="3.03683">
        <ele>1210.92</ele>
        <time>2012-04-28T07:44:58Z</time>
      </trkpt>
      <trkpt lat="44.66017" lon="3.03684">
        <ele>1207.55</ele>
        <time>2012-04-28T07:45:15Z</time>
      </trkpt>
      <trkpt lat="44.66014" lon="3.03684">
        <ele>1210.92</ele>
        <time>2012-04-28T07:45:18Z</time>
      </trkpt>
      <trkpt lat="44.66002" lon="3.03679">
        <ele>1209.96</ele>
        <time>2012-04-28T07:45:29Z</time>
      </trkpt>
      <trkpt lat="44.65994" lon="3.03678">
        <ele>1211.4</ele>
        <time>2012-04-28T07:45:36Z</time>
      </trkpt>
      <trkpt lat="44.65984" lon="3.03675">
        <ele>1209.96</ele>
        <time>2012-04-28T07:45:44Z</time>
      </trkpt>
      <trkpt lat="44.6598" lon="3.03674">
        <ele>1211.4</ele>
        <time>2012-04-28T07:45:47Z</time>
      </trkpt>
      <trkpt lat="44.65959" lon="3.03667">
        <ele>1209</ele>
        <time>2012-04-28T07:46:05Z</time>
      </trkpt>
      <trkpt lat="44.65955" lon="3.03666">
        <ele>1212.36</ele>
        <time>2012-04-28T07:46:08Z</time>
      </trkpt>
      <trkpt lat="44.65949" lon="3.03661">
        <ele>1210.44</ele>
        <time>2012-04-28T07:46:15Z</time>
      </trkpt>
      <trkpt lat="44.65945" lon="3.03656">
        <ele>1212.84</ele>
        <time>2012-04-28T07:46:21Z</time>
      </trkpt>
      <trkpt lat="44.65941" lon="3.03647">
        <ele>1212.36</ele>
        <time>2012-04-28T07:46:37Z</time>
      </trkpt>
      <trkpt lat="44.65939" lon="3.0364">
        <ele>1212.84</ele>
        <time>2012-04-28T07:46:42Z</time>
      </trkpt>
      <trkpt lat="44.65934" lon="3.03622">
        <ele>1214.28</ele>
        <time>2012-04-28T07:46:54Z</time>
      </trkpt>
      <trkpt lat="44.65933" lon="3.03616">
        <ele>1212.84</ele>
        <time>2012-04-28T07:46:58Z</time>
      </trkpt>
      <trkpt lat="44.65932" lon="3.03613">
        <ele>1212.84</ele>
        <time>2012-04-28T07:47:07Z</time>
      </trkpt>
      <trkpt lat="44.65927" lon="3.03601">
        <ele>1213.32</ele>
        <time>2012-04-28T07:47:21Z</time>
      </trkpt>
      <trkpt lat="44.65923" lon="3.03588">
        <ele>1216.69</ele>
        <time>2012-04-28T07:47:29Z</time>
      </trkpt>
      <trkpt lat="44.65922" lon="3.03583">
        <ele>1216.21</ele>
        <time>2012-04-28T07:47:32Z</time>
      </trkpt>
      <trkpt lat="44.65914" lon="3.0356">
        <ele>1215.24</ele>
        <time>2012-04-28T07:47:48Z</time>
      </trkpt>
      <trkpt lat="44.65903" lon="3.03534">
        <ele>1215.72</ele>
        <time>2012-04-28T07:48:05Z</time>
      </trkpt>
      <trkpt lat="44.65892" lon="3.03507">
        <ele>1218.13</ele>
        <time>2012-04-28T07:48:22Z</time>
      </trkpt>
      <trkpt lat="44.6589" lon="3.03503">
        <ele>1216.21</ele>
        <time>2012-04-28T07:48:24Z</time>
      </trkpt>
      <trkpt lat="44.65889" lon="3.03496">
        <ele>1214.76</ele>
        <time>2012-04-28T07:48:35Z</time>
      </trkpt>
      <trkpt lat="44.65889" lon="3.03496">
        <ele>1218.61</ele>
        <time>2012-04-28T07:48:38Z</time>
      </trkpt>
      <trkpt lat="44.65889" lon="3.03496">
        <ele>1215.24</ele>
        <time>2012-04-28T07:48:39Z</time>
      </trkpt>
      <trkpt lat="44.65889" lon="3.03496">
        <ele>1218.13</ele>
        <time>2012-04-28T07:48:43Z</time>
      </trkpt>
      <trkpt lat="44.65889" lon="3.03496">
        <ele>1218.13</ele>
        <time>2012-04-28T07:48:51Z</time>
      </trkpt>
      <trkpt lat="44.65889" lon="3.03495">
        <ele>1216.69</ele>
        <time>2012-04-28T07:48:55Z</time>
      </trkpt>
      <trkpt lat="44.65886" lon="3.0349">
        <ele>1216.69</ele>
        <time>2012-04-28T07:48:59Z</time>
      </trkpt>
      <trkpt lat="44.65885" lon="3.03486">
        <ele>1218.13</ele>
        <time>2012-04-28T07:49:01Z</time>
      </trkpt>
      <trkpt lat="44.65882" lon="3.03477">
        <ele>1214.76</ele>
        <time>2012-04-28T07:49:09Z</time>
      </trkpt>
      <trkpt lat="44.65879" lon="3.03472">
        <ele>1216.21</ele>
        <time>2012-04-28T07:49:13Z</time>
      </trkpt>
      <trkpt lat="44.65871" lon="3.03451">
        <ele>1216.21</ele>
        <time>2012-04-28T07:49:25Z</time>
      </trkpt>
      <trkpt lat="44.65865" lon="3.03434">
        <ele>1215.72</ele>
        <time>2012-04-28T07:49:41Z</time>
      </trkpt>
      <trkpt lat="44.65863" lon="3.03429">
        <ele>1217.65</ele>
        <time>2012-04-28T07:49:44Z</time>
      </trkpt>
      <trkpt lat="44.65862" lon="3.03426">
        <ele>1216.21</ele>
        <time>2012-04-28T07:49:46Z</time>
      </trkpt>
      <trkpt lat="44.65858" lon="3.03406">
        <ele>1217.65</ele>
        <time>2012-04-28T07:49:57Z</time>
      </trkpt>
      <trkpt lat="44.6585" lon="3.03375">
        <ele>1218.13</ele>
        <time>2012-04-28T07:50:12Z</time>
      </trkpt>
      <trkpt lat="44.6584" lon="3.03345">
        <ele>1218.61</ele>
        <time>2012-04-28T07:50:29Z</time>
      </trkpt>
      <trkpt lat="44.6584" lon="3.03341">
        <ele>1217.17</ele>
        <time>2012-04-28T07:50:31Z</time>
      </trkpt>
      <trkpt lat="44.65837" lon="3.03326">
        <ele>1218.13</ele>
        <time>2012-04-28T07:50:39Z</time>
      </trkpt>
      <trkpt lat="44.65833" lon="3.03314">
        <ele>1218.13</ele>
        <time>2012-04-28T07:50:46Z</time>
      </trkpt>
      <trkpt lat="44.65832" lon="3.03312">
        <ele>1218.13</ele>
        <time>2012-04-28T07:50:47Z</time>
      </trkpt>
      <trkpt lat="44.65829" lon="3.03301">
        <ele>1217.65</ele>
        <time>2012-04-28T07:50:54Z</time>
      </trkpt>
      <trkpt lat="44.6582" lon="3.03272">
        <ele>1216.21</ele>
        <time>2012-04-28T07:51:11Z</time>
      </trkpt>
      <trkpt lat="44.65819" lon="3.03266">
        <ele>1217.17</ele>
        <time>2012-04-28T07:51:15Z</time>
      </trkpt>
      <trkpt lat="44.65819" lon="3.03256">
        <ele>1216.69</ele>
        <time>2012-04-28T07:51:20Z</time>
      </trkpt>
      <trkpt lat="44.65818" lon="3.03252">
        <ele>1215.72</ele>
        <time>2012-04-28T07:51:22Z</time>
      </trkpt>
      <trkpt lat="44.65819" lon="3.03231">
        <ele>1217.65</ele>
        <time>2012-04-28T07:51:33Z</time>
      </trkpt>
      <trkpt lat="44.65816" lon="3.03204">
        <ele>1216.69</ele>
        <time>2012-04-28T07:51:49Z</time>
      </trkpt>
      <trkpt lat="44.65817" lon="3.03177">
        <ele>1216.69</ele>
        <time>2012-04-28T07:52:03Z</time>
      </trkpt>
      <trkpt lat="44.65818" lon="3.03157">
        <ele>1212.84</ele>
        <time>2012-04-28T07:52:14Z</time>
      </trkpt>
      <trkpt lat="44.65821" lon="3.03126">
        <ele>1213.32</ele>
        <time>2012-04-28T07:52:30Z</time>
      </trkpt>
      <trkpt lat="44.65821" lon="3.03097">
        <ele>1215.24</ele>
        <time>2012-04-28T07:52:46Z</time>
      </trkpt>
      <trkpt lat="44.65821" lon="3.03084">
        <ele>1214.28</ele>
        <time>2012-04-28T07:52:53Z</time>
      </trkpt>
      <trkpt lat="44.65819" lon="3.03075">
        <ele>1214.28</ele>
        <time>2012-04-28T07:52:58Z</time>
      </trkpt>
      <trkpt lat="44.65818" lon="3.03059">
        <ele>1216.21</ele>
        <time>2012-04-28T07:53:07Z</time>
      </trkpt>
      <trkpt lat="44.65815" lon="3.03051">
        <ele>1214.28</ele>
        <time>2012-04-28T07:53:12Z</time>
      </trkpt>
      <trkpt lat="44.65815" lon="3.03047">
        <ele>1215.72</ele>
        <time>2012-04-28T07:53:14Z</time>
      </trkpt>
      <trkpt lat="44.65807" lon="3.03016">
        <ele>1213.8</ele>
        <time>2012-04-28T07:53:31Z</time>
      </trkpt>
      <trkpt lat="44.65804" lon="3.02988">
        <ele>1212.36</ele>
        <time>2012-04-28T07:53:47Z</time>
      </trkpt>
      <trkpt lat="44.65803" lon="3.02984">
        <ele>1212.84</ele>
        <time>2012-04-28T07:53:49Z</time>
      </trkpt>
      <trkpt lat="44.65797" lon="3.02957">
        <ele>1210.44</ele>
        <time>2012-04-28T07:54:06Z</time>
      </trkpt>
      <trkpt lat="44.65796" lon="3.02952">
        <ele>1210.44</ele>
        <time>2012-04-28T07:54:09Z</time>
      </trkpt>
      <trkpt lat="44.65795" lon="3.02949">
        <ele>1210.44</ele>
        <time>2012-04-28T07:54:11Z</time>
      </trkpt>
      <trkpt lat="44.65794" lon="3.02945">
        <ele>1210.44</ele>
        <time>2012-04-28T07:54:13Z</time>
      </trkpt>
      <trkpt lat="44.65789" lon="3.02933">
        <ele>1209.96</ele>
        <time>2012-04-28T07:54:21Z</time>
      </trkpt>
      <trkpt lat="44.65782" lon="3.02924">
        <ele>1211.4</ele>
        <time>2012-04-28T07:54:28Z</time>
      </trkpt>
      <trkpt lat="44.65779" lon="3.02918">
        <ele>1210.92</ele>
        <time>2012-04-28T07:54:33Z</time>
      </trkpt>
      <trkpt lat="44.65768" lon="3.02905">
        <ele>1211.88</ele>
        <time>2012-04-28T07:54:47Z</time>
      </trkpt>
      <trkpt lat="44.65766" lon="3.02901">
        <ele>1211.4</ele>
        <time>2012-04-28T07:54:50Z</time>
      </trkpt>
      <trkpt lat="44.65755" lon="3.02884">
        <ele>1213.8</ele>
        <time>2012-04-28T07:55:05Z</time>
      </trkpt>
      <trkpt lat="44.65752" lon="3.02878">
        <ele>1212.84</ele>
        <time>2012-04-28T07:55:10Z</time>
      </trkpt>
      <trkpt lat="44.65745" lon="3.02869">
        <ele>1212.84</ele>
        <time>2012-04-28T07:55:18Z</time>
      </trkpt>
      <trkpt lat="44.6574" lon="3.0286">
        <ele>1214.76</ele>
        <time>2012-04-28T07:55:26Z</time>
      </trkpt>
      <trkpt lat="44.65733" lon="3.02851">
        <ele>1213.8</ele>
        <time>2012-04-28T07:55:34Z</time>
      </trkpt>
      <trkpt lat="44.6572" lon="3.02828">
        <ele>1213.8</ele>
        <time>2012-04-28T07:55:51Z</time>
      </trkpt>
      <trkpt lat="44.65716" lon="3.02812">
        <ele>1213.8</ele>
        <time>2012-04-28T07:56:00Z</time>
      </trkpt>
      <trkpt lat="44.65715" lon="3.02796">
        <ele>1212.36</ele>
        <time>2012-04-28T07:56:10Z</time>
      </trkpt>
      <trkpt lat="44.65714" lon="3.02794">
        <ele>1213.32</ele>
        <time>2012-04-28T07:56:11Z</time>
      </trkpt>
      <trkpt lat="44.65714" lon="3.02791">
        <ele>1213.8</ele>
        <time>2012-04-28T07:56:13Z</time>
      </trkpt>
      <trkpt lat="44.65713" lon="3.02784">
        <ele>1213.32</ele>
        <time>2012-04-28T07:56:17Z</time>
      </trkpt>
      <trkpt lat="44.65711" lon="3.02764">
        <ele>1214.76</ele>
        <time>2012-04-28T07:56:30Z</time>
      </trkpt>
      <trkpt lat="44.65702" lon="3.02736">
        <ele>1212.84</ele>
        <time>2012-04-28T07:56:47Z</time>
      </trkpt>
      <trkpt lat="44.65701" lon="3.02726">
        <ele>1213.32</ele>
        <time>2012-04-28T07:56:53Z</time>
      </trkpt>
      <trkpt lat="44.65698" lon="3.02702">
        <ele>1213.8</ele>
        <time>2012-04-28T07:57:07Z</time>
      </trkpt>
      <trkpt lat="44.65697" lon="3.02696">
        <ele>1213.32</ele>
        <time>2012-04-28T07:57:12Z</time>
      </trkpt>
      <trkpt lat="44.65694" lon="3.02684">
        <ele>1212.84</ele>
        <time>2012-04-28T07:57:26Z</time>
      </trkpt>
      <trkpt lat="44.65694" lon="3.02684">
        <ele>1213.32</ele>
        <time>2012-04-28T07:58:06Z</time>
      </trkpt>
      <trkpt lat="44.65694" lon="3.02684">
        <ele>1213.8</ele>
        <time>2012-04-28T07:58:41Z</time>
      </trkpt>
      <trkpt lat="44.65694" lon="3.02684">
        <ele>1213.32</ele>
        <time>2012-04-28T07:59:06Z</time>
      </trkpt>
      <trkpt lat="44.65694" lon="3.02684">
        <ele>1215.72</ele>
        <time>2012-04-28T07:59:20Z</time>
      </trkpt>
      <trkpt lat="44.65695" lon="3.02683">
        <ele>1215.24</ele>
        <time>2012-04-28T07:59:27Z</time>
      </trkpt>
      <trkpt lat="44.65695" lon="3.0268">
        <ele>1214.76</ele>
        <time>2012-04-28T07:59:29Z</time>
      </trkpt>
      <trkpt lat="44.65695" lon="3.02675">
        <ele>1214.28</ele>
        <time>2012-04-28T07:59:32Z</time>
      </trkpt>
      <trkpt lat="44.65694" lon="3.02655">
        <ele>1215.72</ele>
        <time>2012-04-28T07:59:45Z</time>
      </trkpt>
      <trkpt lat="44.6569" lon="3.0264">
        <ele>1213.8</ele>
        <time>2012-04-28T07:59:55Z</time>
      </trkpt>
      <trkpt lat="44.65687" lon="3.02636">
        <ele>1215.24</ele>
        <time>2012-04-28T08:00:00Z</time>
      </trkpt>
      <trkpt lat="44.65684" lon="3.02633">
        <ele>1218.61</ele>
        <time>2012-04-28T08:00:03Z</time>
      </trkpt>
      <trkpt lat="44.65678" lon="3.02627">
        <ele>1217.65</ele>
        <time>2012-04-28T08:00:08Z</time>
      </trkpt>
      <trkpt lat="44.65668" lon="3.02612">
        <ele>1219.09</ele>
        <time>2012-04-28T08:00:19Z</time>
      </trkpt>
      <trkpt lat="44.65664" lon="3.02607">
        <ele>1218.61</ele>
        <time>2012-04-28T08:00:23Z</time>
      </trkpt>
      <trkpt lat="44.6566" lon="3.02597">
        <ele>1222.45</ele>
        <time>2012-04-28T08:00:30Z</time>
      </trkpt>
      <trkpt lat="44.65659" lon="3.02596">
        <ele>1221.97</ele>
        <time>2012-04-28T08:00:31Z</time>
      </trkpt>
      <trkpt lat="44.65658" lon="3.02593">
        <ele>1222.45</ele>
        <time>2012-04-28T08:00:33Z</time>
      </trkpt>
      <trkpt lat="44.65657" lon="3.02585">
        <ele>1224.38</ele>
        <time>2012-04-28T08:00:38Z</time>
      </trkpt>
      <trkpt lat="44.65654" lon="3.02581">
        <ele>1225.34</ele>
        <time>2012-04-28T08:00:41Z</time>
      </trkpt>
      <trkpt lat="44.6565" lon="3.02572">
        <ele>1225.34</ele>
        <time>2012-04-28T08:00:47Z</time>
      </trkpt>
      <trkpt lat="44.6565" lon="3.02568">
        <ele>1225.34</ele>
        <time>2012-04-28T08:00:49Z</time>
      </trkpt>
      <trkpt lat="44.6564" lon="3.02545">
        <ele>1227.74</ele>
        <time>2012-04-28T08:01:04Z</time>
      </trkpt>
      <trkpt lat="44.6563" lon="3.0253">
        <ele>1228.7</ele>
        <time>2012-04-28T08:01:16Z</time>
      </trkpt>
      <trkpt lat="44.65622" lon="3.02516">
        <ele>1233.99</ele>
        <time>2012-04-28T08:01:29Z</time>
      </trkpt>
      <trkpt lat="44.6562" lon="3.0251">
        <ele>1231.11</ele>
        <time>2012-04-28T08:01:34Z</time>
      </trkpt>
      <trkpt lat="44.65615" lon="3.02497">
        <ele>1232.07</ele>
        <time>2012-04-28T08:01:47Z</time>
      </trkpt>
      <trkpt lat="44.65615" lon="3.02496">
        <ele>1233.99</ele>
        <time>2012-04-28T08:02:10Z</time>
      </trkpt>
      <trkpt lat="44.65614" lon="3.02495">
        <ele>1231.11</ele>
        <time>2012-04-28T08:02:29Z</time>
      </trkpt>
      <trkpt lat="44.65614" lon="3.02495">
        <ele>1230.14</ele>
        <time>2012-04-28T08:02:39Z</time>
      </trkpt>
      <trkpt lat="44.65614" lon="3.02493">
        <ele>1231.59</ele>
        <time>2012-04-28T08:02:41Z</time>
      </trkpt>
      <trkpt lat="44.65615" lon="3.02496">
        <ele>1232.07</ele>
        <time>2012-04-28T08:02:53Z</time>
      </trkpt>
      <trkpt lat="44.65615" lon="3.02496">
        <ele>1232.55</ele>
        <time>2012-04-28T08:03:09Z</time>
      </trkpt>
      <trkpt lat="44.65615" lon="3.02496">
        <ele>1230.62</ele>
        <time>2012-04-28T08:03:30Z</time>
      </trkpt>
      <trkpt lat="44.65615" lon="3.02496">
        <ele>1233.03</ele>
        <time>2012-04-28T08:03:42Z</time>
      </trkpt>
      <trkpt lat="44.65615" lon="3.02496">
        <ele>1229.66</ele>
        <time>2012-04-28T08:03:56Z</time>
      </trkpt>
      <trkpt lat="44.65615" lon="3.02496">
        <ele>1232.55</ele>
        <time>2012-04-28T08:04:15Z</time>
      </trkpt>
      <trkpt lat="44.65616" lon="3.02496">
        <ele>1233.51</ele>
        <time>2012-04-28T08:04:35Z</time>
      </trkpt>
      <trkpt lat="44.65617" lon="3.02496">
        <ele>1232.55</ele>
        <time>2012-04-28T08:04:49Z</time>
      </trkpt>
      <trkpt lat="44.65616" lon="3.02495">
        <ele>1233.03</ele>
        <time>2012-04-28T08:04:59Z</time>
      </trkpt>
      <trkpt lat="44.65616" lon="3.02496">
        <ele>1235.91</ele>
        <time>2012-04-28T08:05:13Z</time>
      </trkpt>
      <trkpt lat="44.65616" lon="3.02496">
        <ele>1233.03</ele>
        <time>2012-04-28T08:05:14Z</time>
      </trkpt>
      <trkpt lat="44.65616" lon="3.02495">
        <ele>1231.59</ele>
        <time>2012-04-28T08:05:25Z</time>
      </trkpt>
      <trkpt lat="44.65616" lon="3.02495">
        <ele>1231.59</ele>
        <time>2012-04-28T08:05:41Z</time>
      </trkpt>
      <trkpt lat="44.65616" lon="3.02495">
        <ele>1233.03</ele>
        <time>2012-04-28T08:05:53Z</time>
      </trkpt>
      <trkpt lat="44.65616" lon="3.02496">
        <ele>1233.99</ele>
        <time>2012-04-28T08:06:11Z</time>
      </trkpt>
      <trkpt lat="44.65617" lon="3.02495">
        <ele>1233.51</ele>
        <time>2012-04-28T08:06:28Z</time>
      </trkpt>
      <trkpt lat="44.65618" lon="3.02488">
        <ele>1234.95</ele>
        <time>2012-04-28T08:06:44Z</time>
      </trkpt>
      <trkpt lat="44.65618" lon="3.02477">
        <ele>1234.47</ele>
        <time>2012-04-28T08:06:54Z</time>
      </trkpt>
      <trkpt lat="44.65614" lon="3.02467">
        <ele>1238.32</ele>
        <time>2012-04-28T08:07:02Z</time>
      </trkpt>
      <trkpt lat="44.65613" lon="3.02453">
        <ele>1238.32</ele>
        <time>2012-04-28T08:07:12Z</time>
      </trkpt>
      <trkpt lat="44.65613" lon="3.02447">
        <ele>1236.87</ele>
        <time>2012-04-28T08:07:17Z</time>
      </trkpt>
      <trkpt lat="44.65613" lon="3.02442">
        <ele>1237.83</ele>
        <time>2012-04-28T08:07:21Z</time>
      </trkpt>
      <trkpt lat="44.65613" lon="3.02438">
        <ele>1236.87</ele>
        <time>2012-04-28T08:07:24Z</time>
      </trkpt>
      <trkpt lat="44.65611" lon="3.02429">
        <ele>1237.35</ele>
        <time>2012-04-28T08:07:30Z</time>
      </trkpt>
      <trkpt lat="44.65611" lon="3.02425">
        <ele>1238.32</ele>
        <time>2012-04-28T08:07:32Z</time>
      </trkpt>
      <trkpt lat="44.6561" lon="3.0242">
        <ele>1238.32</ele>
        <time>2012-04-28T08:07:35Z</time>
      </trkpt>
      <trkpt lat="44.65607" lon="3.02412">
        <ele>1238.8</ele>
        <time>2012-04-28T08:07:41Z</time>
      </trkpt>
      <trkpt lat="44.65608" lon="3.02405">
        <ele>1239.76</ele>
        <time>2012-04-28T08:07:46Z</time>
      </trkpt>
      <trkpt lat="44.65607" lon="3.02397">
        <ele>1238.8</ele>
        <time>2012-04-28T08:07:52Z</time>
      </trkpt>
      <trkpt lat="44.65606" lon="3.02395">
        <ele>1239.76</ele>
        <time>2012-04-28T08:07:54Z</time>
      </trkpt>
      <trkpt lat="44.65604" lon="3.02392">
        <ele>1242.16</ele>
        <time>2012-04-28T08:07:57Z</time>
      </trkpt>
      <trkpt lat="44.65602" lon="3.02389">
        <ele>1239.76</ele>
        <time>2012-04-28T08:08:01Z</time>
      </trkpt>
      <trkpt lat="44.65597" lon="3.02383">
        <ele>1241.2</ele>
        <time>2012-04-28T08:08:07Z</time>
      </trkpt>
      <trkpt lat="44.65596" lon="3.0238">
        <ele>1240.24</ele>
        <time>2012-04-28T08:08:09Z</time>
      </trkpt>
      <trkpt lat="44.65591" lon="3.02374">
        <ele>1241.68</ele>
        <time>2012-04-28T08:08:15Z</time>
      </trkpt>
      <trkpt lat="44.65585" lon="3.02362">
        <ele>1243.12</ele>
        <time>2012-04-28T08:08:26Z</time>
      </trkpt>
      <trkpt lat="44.6558" lon="3.02347">
        <ele>1244.08</ele>
        <time>2012-04-28T08:08:37Z</time>
      </trkpt>
      <trkpt lat="44.65576" lon="3.02332">
        <ele>1244.56</ele>
        <time>2012-04-28T08:08:49Z</time>
      </trkpt>
      <trkpt lat="44.65576" lon="3.02327">
        <ele>1246.01</ele>
        <time>2012-04-28T08:08:52Z</time>
      </trkpt>
      <trkpt lat="44.65572" lon="3.02314">
        <ele>1246.97</ele>
        <time>2012-04-28T08:09:00Z</time>
      </trkpt>
      <trkpt lat="44.65574" lon="3.02305">
        <ele>1246.49</ele>
        <time>2012-04-28T08:09:08Z</time>
      </trkpt>
      <trkpt lat="44.65574" lon="3.02297">
        <ele>1245.53</ele>
        <time>2012-04-28T08:09:14Z</time>
      </trkpt>
      <trkpt lat="44.65574" lon="3.02289">
        <ele>1246.97</ele>
        <time>2012-04-28T08:09:18Z</time>
      </trkpt>
      <trkpt lat="44.65573" lon="3.02272">
        <ele>1246.97</ele>
        <time>2012-04-28T08:09:29Z</time>
      </trkpt>
      <trkpt lat="44.65573" lon="3.02259">
        <ele>1247.45</ele>
        <time>2012-04-28T08:09:37Z</time>
      </trkpt>
      <trkpt lat="44.65571" lon="3.02242">
        <ele>1247.45</ele>
        <time>2012-04-28T08:09:46Z</time>
      </trkpt>
      <trkpt lat="44.6557" lon="3.02235">
        <ele>1246.97</ele>
        <time>2012-04-28T08:09:50Z</time>
      </trkpt>
      <trkpt lat="44.6557" lon="3.02232">
        <ele>1246.97</ele>
        <time>2012-04-28T08:09:52Z</time>
      </trkpt>
      <trkpt lat="44.65569" lon="3.02217">
        <ele>1246.49</ele>
        <time>2012-04-28T08:10:02Z</time>
      </trkpt>
      <trkpt lat="44.6557" lon="3.02211">
        <ele>1246.01</ele>
        <time>2012-04-28T08:10:06Z</time>
      </trkpt>
      <trkpt lat="44.65569" lon="3.02208">
        <ele>1245.04</ele>
        <time>2012-04-28T08:10:08Z</time>
      </trkpt>
      <trkpt lat="44.65568" lon="3.02198">
        <ele>1245.04</ele>
        <time>2012-04-28T08:10:14Z</time>
      </trkpt>
      <trkpt lat="44.65569" lon="3.02193">
        <ele>1245.53</ele>
        <time>2012-04-28T08:10:17Z</time>
      </trkpt>
      <trkpt lat="44.65568" lon="3.02184">
        <ele>1244.08</ele>
        <time>2012-04-28T08:10:27Z</time>
      </trkpt>
      <trkpt lat="44.65565" lon="3.0216">
        <ele>1243.12</ele>
        <time>2012-04-28T08:10:40Z</time>
      </trkpt>
      <trkpt lat="44.65565" lon="3.0215">
        <ele>1243.6</ele>
        <time>2012-04-28T08:10:45Z</time>
      </trkpt>
      <trkpt lat="44.65566" lon="3.0214">
        <ele>1242.64</ele>
        <time>2012-04-28T08:10:50Z</time>
      </trkpt>
      <trkpt lat="44.65565" lon="3.02134">
        <ele>1242.64</ele>
        <time>2012-04-28T08:10:54Z</time>
      </trkpt>
      <trkpt lat="44.65564" lon="3.02129">
        <ele>1242.64</ele>
        <time>2012-04-28T08:11:08Z</time>
      </trkpt>
      <trkpt lat="44.65565" lon="3.02121">
        <ele>1242.64</ele>
        <time>2012-04-28T08:11:25Z</time>
      </trkpt>
      <trkpt lat="44.65568" lon="3.02114">
        <ele>1242.16</ele>
        <time>2012-04-28T08:11:30Z</time>
      </trkpt>
      <trkpt lat="44.65573" lon="3.02102">
        <ele>1241.2</ele>
        <time>2012-04-28T08:11:39Z</time>
      </trkpt>
      <trkpt lat="44.65574" lon="3.02098">
        <ele>1241.68</ele>
        <time>2012-04-28T08:11:42Z</time>
      </trkpt>
      <trkpt lat="44.65574" lon="3.02095">
        <ele>1241.2</ele>
        <time>2012-04-28T08:11:44Z</time>
      </trkpt>
      <trkpt lat="44.65575" lon="3.02089">
        <ele>1241.2</ele>
        <time>2012-04-28T08:11:47Z</time>
      </trkpt>
      <trkpt lat="44.65577" lon="3.02083">
        <ele>1240.72</ele>
        <time>2012-04-28T08:11:51Z</time>
      </trkpt>
      <trkpt lat="44.65582" lon="3.02072">
        <ele>1240.24</ele>
        <time>2012-04-28T08:12:00Z</time>
      </trkpt>
      <trkpt lat="44.65584" lon="3.02055">
        <ele>1235.91</ele>
        <time>2012-04-28T08:12:14Z</time>
      </trkpt>
      <trkpt lat="44.65584" lon="3.02055">
        <ele>1242.16</ele>
        <time>2012-04-28T08:12:15Z</time>
      </trkpt>
      <trkpt lat="44.65583" lon="3.02054">
        <ele>1238.32</ele>
        <time>2012-04-28T08:12:17Z</time>
      </trkpt>
      <trkpt lat="44.65585" lon="3.02051">
        <ele>1240.24</ele>
        <time>2012-04-28T08:12:36Z</time>
      </trkpt>
      <trkpt lat="44.65588" lon="3.02044">
        <ele>1237.83</ele>
        <time>2012-04-28T08:12:41Z</time>
      </trkpt>
      <trkpt lat="44.65587" lon="3.02032">
        <ele>1239.28</ele>
        <time>2012-04-28T08:12:47Z</time>
      </trkpt>
      <trkpt lat="44.65585" lon="3.02028">
        <ele>1243.12</ele>
        <time>2012-04-28T08:12:50Z</time>
      </trkpt>
      <trkpt lat="44.65585" lon="3.02026">
        <ele>1243.12</ele>
        <time>2012-04-28T08:12:51Z</time>
      </trkpt>
      <trkpt lat="44.65585" lon="3.02025">
        <ele>1238.8</ele>
        <time>2012-04-28T08:12:52Z</time>
      </trkpt>
      <trkpt lat="44.65585" lon="3.02024">
        <ele>1239.28</ele>
        <time>2012-04-28T08:12:53Z</time>
      </trkpt>
      <trkpt lat="44.65585" lon="3.02023">
        <ele>1239.76</ele>
        <time>2012-04-28T08:13:06Z</time>
      </trkpt>
      <trkpt lat="44.65585" lon="3.02023">
        <ele>1236.39</ele>
        <time>2012-04-28T08:13:07Z</time>
      </trkpt>
      <trkpt lat="44.65586" lon="3.02023">
        <ele>1237.83</ele>
        <time>2012-04-28T08:13:09Z</time>
      </trkpt>
      <trkpt lat="44.65588" lon="3.0202">
        <ele>1236.87</ele>
        <time>2012-04-28T08:13:11Z</time>
      </trkpt>
      <trkpt lat="44.65587" lon="3.02015">
        <ele>1237.35</ele>
        <time>2012-04-28T08:13:15Z</time>
      </trkpt>
      <trkpt lat="44.65583" lon="3.01989">
        <ele>1236.39</ele>
        <time>2012-04-28T08:13:31Z</time>
      </trkpt>
      <trkpt lat="44.65581" lon="3.0198">
        <ele>1236.39</ele>
        <time>2012-04-28T08:13:36Z</time>
      </trkpt>
      <trkpt lat="44.65578" lon="3.01973">
        <ele>1236.39</ele>
        <time>2012-04-28T08:13:39Z</time>
      </trkpt>
      <trkpt lat="44.65572" lon="3.01957">
        <ele>1236.39</ele>
        <time>2012-04-28T08:13:50Z</time>
      </trkpt>
      <trkpt lat="44.65571" lon="3.01946">
        <ele>1234.95</ele>
        <time>2012-04-28T08:13:55Z</time>
      </trkpt>
      <trkpt lat="44.65569" lon="3.0194">
        <ele>1235.43</ele>
        <time>2012-04-28T08:13:57Z</time>
      </trkpt>
      <trkpt lat="44.65568" lon="3.01935">
        <ele>1235.91</ele>
        <time>2012-04-28T08:14:00Z</time>
      </trkpt>
      <trkpt lat="44.65567" lon="3.01932">
        <ele>1234.95</ele>
        <time>2012-04-28T08:14:03Z</time>
      </trkpt>
      <trkpt lat="44.65562" lon="3.01925">
        <ele>1234.95</ele>
        <time>2012-04-28T08:14:08Z</time>
      </trkpt>
      <trkpt lat="44.65561" lon="3.01921">
        <ele>1233.99</ele>
        <time>2012-04-28T08:14:10Z</time>
      </trkpt>
      <trkpt lat="44.65557" lon="3.01898">
        <ele>1233.99</ele>
        <time>2012-04-28T08:14:22Z</time>
      </trkpt>
      <trkpt lat="44.65555" lon="3.01893">
        <ele>1233.51</ele>
        <time>2012-04-28T08:14:24Z</time>
      </trkpt>
      <trkpt lat="44.65552" lon="3.01882">
        <ele>1233.51</ele>
        <time>2012-04-28T08:14:30Z</time>
      </trkpt>
      <trkpt lat="44.65548" lon="3.01865">
        <ele>1232.55</ele>
        <time>2012-04-28T08:14:37Z</time>
      </trkpt>
      <trkpt lat="44.65545" lon="3.0185">
        <ele>1231.59</ele>
        <time>2012-04-28T08:14:44Z</time>
      </trkpt>
      <trkpt lat="44.65543" lon="3.01846">
        <ele>1231.11</ele>
        <time>2012-04-28T08:14:46Z</time>
      </trkpt>
      <trkpt lat="44.65544" lon="3.01836">
        <ele>1230.14</ele>
        <time>2012-04-28T08:14:54Z</time>
      </trkpt>
      <trkpt lat="44.65542" lon="3.01828">
        <ele>1230.62</ele>
        <time>2012-04-28T08:14:58Z</time>
      </trkpt>
      <trkpt lat="44.6554" lon="3.01823">
        <ele>1230.14</ele>
        <time>2012-04-28T08:15:01Z</time>
      </trkpt>
      <trkpt lat="44.65538" lon="3.01815">
        <ele>1229.66</ele>
        <time>2012-04-28T08:15:05Z</time>
      </trkpt>
      <trkpt lat="44.65541" lon="3.01803">
        <ele>1229.66</ele>
        <time>2012-04-28T08:15:18Z</time>
      </trkpt>
      <trkpt lat="44.65541" lon="3.01803">
        <ele>1230.14</ele>
        <time>2012-04-28T08:15:36Z</time>
      </trkpt>
      <trkpt lat="44.65541" lon="3.01802">
        <ele>1229.18</ele>
        <time>2012-04-28T08:15:45Z</time>
      </trkpt>
      <trkpt lat="44.6554" lon="3.01797">
        <ele>1229.18</ele>
        <time>2012-04-28T08:15:49Z</time>
      </trkpt>
      <trkpt lat="44.65539" lon="3.01779">
        <ele>1230.62</ele>
        <time>2012-04-28T08:15:59Z</time>
      </trkpt>
      <trkpt lat="44.65535" lon="3.01772">
        <ele>1229.18</ele>
        <time>2012-04-28T08:16:04Z</time>
      </trkpt>
      <trkpt lat="44.65534" lon="3.01763">
        <ele>1229.18</ele>
        <time>2012-04-28T08:16:11Z</time>
      </trkpt>
      <trkpt lat="44.65536" lon="3.01737">
        <ele>1227.26</ele>
        <time>2012-04-28T08:16:25Z</time>
      </trkpt>
      <trkpt lat="44.65535" lon="3.01713">
        <ele>1225.82</ele>
        <time>2012-04-28T08:16:38Z</time>
      </trkpt>
      <trkpt lat="44.65537" lon="3.01707">
        <ele>1226.3</ele>
        <time>2012-04-28T08:16:42Z</time>
      </trkpt>
      <trkpt lat="44.65537" lon="3.017">
        <ele>1224.38</ele>
        <time>2012-04-28T08:16:47Z</time>
      </trkpt>
      <trkpt lat="44.65536" lon="3.01683">
        <ele>1224.86</ele>
        <time>2012-04-28T08:16:58Z</time>
      </trkpt>
      <trkpt lat="44.65537" lon="3.01679">
        <ele>1224.38</ele>
        <time>2012-04-28T08:17:00Z</time>
      </trkpt>
      <trkpt lat="44.65534" lon="3.01666">
        <ele>1223.9</ele>
        <time>2012-04-28T08:17:07Z</time>
      </trkpt>
      <trkpt lat="44.65533" lon="3.01658">
        <ele>1223.9</ele>
        <time>2012-04-28T08:17:11Z</time>
      </trkpt>
      <trkpt lat="44.6553" lon="3.01647">
        <ele>1223.9</ele>
        <time>2012-04-28T08:17:21Z</time>
      </trkpt>
      <trkpt lat="44.65526" lon="3.01641">
        <ele>1223.9</ele>
        <time>2012-04-28T08:17:26Z</time>
      </trkpt>
      <trkpt lat="44.65516" lon="3.01623">
        <ele>1223.42</ele>
        <time>2012-04-28T08:17:39Z</time>
      </trkpt>
      <trkpt lat="44.65508" lon="3.01613">
        <ele>1222.45</ele>
        <time>2012-04-28T08:17:48Z</time>
      </trkpt>
      <trkpt lat="44.65506" lon="3.0161">
        <ele>1221.97</ele>
        <time>2012-04-28T08:17:50Z</time>
      </trkpt>
      <trkpt lat="44.655" lon="3.01594">
        <ele>1221.97</ele>
        <time>2012-04-28T08:18:02Z</time>
      </trkpt>
      <trkpt lat="44.65488" lon="3.01577">
        <ele>1221.97</ele>
        <time>2012-04-28T08:18:14Z</time>
      </trkpt>
      <trkpt lat="44.65479" lon="3.01561">
        <ele>1221.49</ele>
        <time>2012-04-28T08:18:25Z</time>
      </trkpt>
      <trkpt lat="44.6548" lon="3.0155">
        <ele>1221.01</ele>
        <time>2012-04-28T08:18:35Z</time>
      </trkpt>
      <trkpt lat="44.65476" lon="3.01529">
        <ele>1221.97</ele>
        <time>2012-04-28T08:18:45Z</time>
      </trkpt>
      <trkpt lat="44.65462" lon="3.01502">
        <ele>1222.45</ele>
        <time>2012-04-28T08:18:59Z</time>
      </trkpt>
      <trkpt lat="44.65461" lon="3.015">
        <ele>1221.49</ele>
        <time>2012-04-28T08:19:01Z</time>
      </trkpt>
      <trkpt lat="44.65452" lon="3.0148">
        <ele>1220.05</ele>
        <time>2012-04-28T08:19:09Z</time>
      </trkpt>
      <trkpt lat="44.65451" lon="3.01472">
        <ele>1219.09</ele>
        <time>2012-04-28T08:19:14Z</time>
      </trkpt>
      <trkpt lat="44.65457" lon="3.01449">
        <ele>1219.09</ele>
        <time>2012-04-28T08:19:28Z</time>
      </trkpt>
      <trkpt lat="44.65458" lon="3.01448">
        <ele>1218.61</ele>
        <time>2012-04-28T08:19:29Z</time>
      </trkpt>
      <trkpt lat="44.65461" lon="3.01442">
        <ele>1219.09</ele>
        <time>2012-04-28T08:19:33Z</time>
      </trkpt>
      <trkpt lat="44.65467" lon="3.01426">
        <ele>1218.61</ele>
        <time>2012-04-28T08:19:43Z</time>
      </trkpt>
      <trkpt lat="44.65467" lon="3.01424">
        <ele>1218.13</ele>
        <time>2012-04-28T08:19:44Z</time>
      </trkpt>
      <trkpt lat="44.65472" lon="3.01417">
        <ele>1218.13</ele>
        <time>2012-04-28T08:19:49Z</time>
      </trkpt>
      <trkpt lat="44.65476" lon="3.0141">
        <ele>1217.65</ele>
        <time>2012-04-28T08:19:55Z</time>
      </trkpt>
      <trkpt lat="44.65478" lon="3.01407">
        <ele>1218.13</ele>
        <time>2012-04-28T08:19:58Z</time>
      </trkpt>
      <trkpt lat="44.65482" lon="3.01401">
        <ele>1217.65</ele>
        <time>2012-04-28T08:20:03Z</time>
      </trkpt>
      <trkpt lat="44.65481" lon="3.01378">
        <ele>1218.13</ele>
        <time>2012-04-28T08:20:17Z</time>
      </trkpt>
      <trkpt lat="44.6548" lon="3.01377">
        <ele>1218.13</ele>
        <time>2012-04-28T08:20:18Z</time>
      </trkpt>
      <trkpt lat="44.65477" lon="3.01368">
        <ele>1221.97</ele>
        <time>2012-04-28T08:20:24Z</time>
      </trkpt>
      <trkpt lat="44.65477" lon="3.01367">
        <ele>1221.49</ele>
        <time>2012-04-28T08:20:25Z</time>
      </trkpt>
      <trkpt lat="44.65476" lon="3.01366">
        <ele>1224.38</ele>
        <time>2012-04-28T08:20:26Z</time>
      </trkpt>
      <trkpt lat="44.65475" lon="3.01363">
        <ele>1220.53</ele>
        <time>2012-04-28T08:20:28Z</time>
      </trkpt>
      <trkpt lat="44.65475" lon="3.01362">
        <ele>1219.57</ele>
        <time>2012-04-28T08:20:29Z</time>
      </trkpt>
      <trkpt lat="44.65473" lon="3.01357">
        <ele>1219.57</ele>
        <time>2012-04-28T08:20:33Z</time>
      </trkpt>
      <trkpt lat="44.65467" lon="3.01339">
        <ele>1220.05</ele>
        <time>2012-04-28T08:20:47Z</time>
      </trkpt>
      <trkpt lat="44.65464" lon="3.0132">
        <ele>1222.93</ele>
        <time>2012-04-28T08:21:01Z</time>
      </trkpt>
      <trkpt lat="44.65461" lon="3.01313">
        <ele>1224.38</ele>
        <time>2012-04-28T08:21:06Z</time>
      </trkpt>
      <trkpt lat="44.65461" lon="3.0131">
        <ele>1224.86</ele>
        <time>2012-04-28T08:21:08Z</time>
      </trkpt>
      <trkpt lat="44.65455" lon="3.01293">
        <ele>1223.42</ele>
        <time>2012-04-28T08:21:21Z</time>
      </trkpt>
      <trkpt lat="44.65455" lon="3.01292">
        <ele>1223.42</ele>
        <time>2012-04-28T08:21:22Z</time>
      </trkpt>
      <trkpt lat="44.65454" lon="3.01288">
        <ele>1224.38</ele>
        <time>2012-04-28T08:21:25Z</time>
      </trkpt>
      <trkpt lat="44.65452" lon="3.01281">
        <ele>1228.22</ele>
        <time>2012-04-28T08:21:31Z</time>
      </trkpt>
      <trkpt lat="44.65449" lon="3.0127">
        <ele>1226.3</ele>
        <time>2012-04-28T08:21:39Z</time>
      </trkpt>
      <trkpt lat="44.65448" lon="3.01267">
        <ele>1226.3</ele>
        <time>2012-04-28T08:21:41Z</time>
      </trkpt>
      <trkpt lat="44.65445" lon="3.01259">
        <ele>1227.26</ele>
        <time>2012-04-28T08:21:48Z</time>
      </trkpt>
      <trkpt lat="44.6544" lon="3.01242">
        <ele>1227.26</ele>
        <time>2012-04-28T08:22:01Z</time>
      </trkpt>
      <trkpt lat="44.65439" lon="3.01235">
        <ele>1228.7</ele>
        <time>2012-04-28T08:22:08Z</time>
      </trkpt>
      <trkpt lat="44.65439" lon="3.01232">
        <ele>1227.26</ele>
        <time>2012-04-28T08:22:10Z</time>
      </trkpt>
      <trkpt lat="44.6544" lon="3.01229">
        <ele>1227.26</ele>
        <time>2012-04-28T08:22:20Z</time>
      </trkpt>
      <trkpt lat="44.6544" lon="3.01229">
        <ele>1228.7</ele>
        <time>2012-04-28T08:22:23Z</time>
      </trkpt>
      <trkpt lat="44.6544" lon="3.0123">
        <ele>1227.74</ele>
        <time>2012-04-28T08:22:43Z</time>
      </trkpt>
      <trkpt lat="44.65439" lon="3.01221">
        <ele>1227.74</ele>
        <time>2012-04-28T08:22:56Z</time>
      </trkpt>
      <trkpt lat="44.65438" lon="3.01218">
        <ele>1229.66</ele>
        <time>2012-04-28T08:23:13Z</time>
      </trkpt>
      <trkpt lat="44.65437" lon="3.01215">
        <ele>1229.66</ele>
        <time>2012-04-28T08:23:15Z</time>
      </trkpt>
      <trkpt lat="44.65431" lon="3.01202">
        <ele>1231.11</ele>
        <time>2012-04-28T08:23:26Z</time>
      </trkpt>
      <trkpt lat="44.65427" lon="3.01195">
        <ele>1232.55</ele>
        <time>2012-04-28T08:23:33Z</time>
      </trkpt>
      <trkpt lat="44.65427" lon="3.01193">
        <ele>1232.07</ele>
        <time>2012-04-28T08:23:34Z</time>
      </trkpt>
      <trkpt lat="44.65424" lon="3.0119">
        <ele>1232.55</ele>
        <time>2012-04-28T08:23:37Z</time>
      </trkpt>
      <trkpt lat="44.65423" lon="3.01187">
        <ele>1232.55</ele>
        <time>2012-04-28T08:23:40Z</time>
      </trkpt>
      <trkpt lat="44.65415" lon="3.01169">
        <ele>1231.59</ele>
        <time>2012-04-28T08:23:53Z</time>
      </trkpt>
      <trkpt lat="44.65409" lon="3.01155">
        <ele>1232.07</ele>
        <time>2012-04-28T08:24:05Z</time>
      </trkpt>
      <trkpt lat="44.65402" lon="3.01146">
        <ele>1233.99</ele>
        <time>2012-04-28T08:24:15Z</time>
      </trkpt>
      <trkpt lat="44.654" lon="3.01144">
        <ele>1234.95</ele>
        <time>2012-04-28T08:24:17Z</time>
      </trkpt>
      <trkpt lat="44.65388" lon="3.01126">
        <ele>1235.43</ele>
        <time>2012-04-28T08:24:32Z</time>
      </trkpt>
      <trkpt lat="44.65384" lon="3.01113">
        <ele>1235.91</ele>
        <time>2012-04-28T08:24:42Z</time>
      </trkpt>
      <trkpt lat="44.65383" lon="3.01108">
        <ele>1236.39</ele>
        <time>2012-04-28T08:24:46Z</time>
      </trkpt>
      <trkpt lat="44.65381" lon="3.011">
        <ele>1235.91</ele>
        <time>2012-04-28T08:24:52Z</time>
      </trkpt>
      <trkpt lat="44.65377" lon="3.01083">
        <ele>1237.35</ele>
        <time>2012-04-28T08:25:03Z</time>
      </trkpt>
      <trkpt lat="44.65377" lon="3.01081">
        <ele>1237.35</ele>
        <time>2012-04-28T08:25:04Z</time>
      </trkpt>
      <trkpt lat="44.65375" lon="3.01075">
        <ele>1236.87</ele>
        <time>2012-04-28T08:25:08Z</time>
      </trkpt>
      <trkpt lat="44.65373" lon="3.01064">
        <ele>1238.8</ele>
        <time>2012-04-28T08:25:17Z</time>
      </trkpt>
      <trkpt lat="44.65371" lon="3.01055">
        <ele>1237.83</ele>
        <time>2012-04-28T08:25:29Z</time>
      </trkpt>
      <trkpt lat="44.65372" lon="3.01055">
        <ele>1239.28</ele>
        <time>2012-04-28T08:25:37Z</time>
      </trkpt>
      <trkpt lat="44.65373" lon="3.01054">
        <ele>1235.91</ele>
        <time>2012-04-28T08:25:43Z</time>
      </trkpt>
      <trkpt lat="44.65377" lon="3.01053">
        <ele>1239.28</ele>
        <time>2012-04-28T08:25:48Z</time>
      </trkpt>
      <trkpt lat="44.65378" lon="3.01053">
        <ele>1237.83</ele>
        <time>2012-04-28T08:25:57Z</time>
      </trkpt>
      <trkpt lat="44.6538" lon="3.01049">
        <ele>1236.87</ele>
        <time>2012-04-28T08:26:00Z</time>
      </trkpt>
      <trkpt lat="44.65382" lon="3.01035">
        <ele>1238.8</ele>
        <time>2012-04-28T08:26:13Z</time>
      </trkpt>
      <trkpt lat="44.65383" lon="3.01027">
        <ele>1241.2</ele>
        <time>2012-04-28T08:26:21Z</time>
      </trkpt>
      <trkpt lat="44.65383" lon="3.01025">
        <ele>1240.24</ele>
        <time>2012-04-28T08:26:23Z</time>
      </trkpt>
      <trkpt lat="44.65386" lon="3.01006">
        <ele>1241.2</ele>
        <time>2012-04-28T08:26:39Z</time>
      </trkpt>
      <trkpt lat="44.65388" lon="3.00985">
        <ele>1242.16</ele>
        <time>2012-04-28T08:26:56Z</time>
      </trkpt>
      <trkpt lat="44.65387" lon="3.00981">
        <ele>1245.53</ele>
        <time>2012-04-28T08:27:07Z</time>
      </trkpt>
      <trkpt lat="44.65387" lon="3.00981">
        <ele>1243.6</ele>
        <time>2012-04-28T08:27:10Z</time>
      </trkpt>
      <trkpt lat="44.65388" lon="3.00974">
        <ele>1243.12</ele>
        <time>2012-04-28T08:27:22Z</time>
      </trkpt>
      <trkpt lat="44.6539" lon="3.00967">
        <ele>1243.6</ele>
        <time>2012-04-28T08:27:29Z</time>
      </trkpt>
      <trkpt lat="44.65393" lon="3.00951">
        <ele>1246.49</ele>
        <time>2012-04-28T08:27:41Z</time>
      </trkpt>
      <trkpt lat="44.65393" lon="3.00947">
        <ele>1245.04</ele>
        <time>2012-04-28T08:27:44Z</time>
      </trkpt>
      <trkpt lat="44.65397" lon="3.00927">
        <ele>1245.53</ele>
        <time>2012-04-28T08:27:59Z</time>
      </trkpt>
      <trkpt lat="44.65398" lon="3.00917">
        <ele>1246.97</ele>
        <time>2012-04-28T08:28:07Z</time>
      </trkpt>
      <trkpt lat="44.65399" lon="3.00913">
        <ele>1247.93</ele>
        <time>2012-04-28T08:28:11Z</time>
      </trkpt>
      <trkpt lat="44.65398" lon="3.00907">
        <ele>1248.41</ele>
        <time>2012-04-28T08:28:15Z</time>
      </trkpt>
      <trkpt lat="44.65398" lon="3.009">
        <ele>1248.41</ele>
        <time>2012-04-28T08:28:22Z</time>
      </trkpt>
      <trkpt lat="44.654" lon="3.00888">
        <ele>1248.89</ele>
        <time>2012-04-28T08:28:35Z</time>
      </trkpt>
      <trkpt lat="44.65401" lon="3.00884">
        <ele>1250.33</ele>
        <time>2012-04-28T08:28:39Z</time>
      </trkpt>
      <trkpt lat="44.65402" lon="3.00882">
        <ele>1252.25</ele>
        <time>2012-04-28T08:28:41Z</time>
      </trkpt>
      <trkpt lat="44.65408" lon="3.00869">
        <ele>1255.14</ele>
        <time>2012-04-28T08:28:54Z</time>
      </trkpt>
      <trkpt lat="44.65409" lon="3.00863">
        <ele>1257.06</ele>
        <time>2012-04-28T08:29:01Z</time>
      </trkpt>
      <trkpt lat="44.65408" lon="3.00852">
        <ele>1256.58</ele>
        <time>2012-04-28T08:29:12Z</time>
      </trkpt>
      <trkpt lat="44.65407" lon="3.00851">
        <ele>1256.58</ele>
        <time>2012-04-28T08:29:23Z</time>
      </trkpt>
      <trkpt lat="44.65407" lon="3.00847">
        <ele>1255.62</ele>
        <time>2012-04-28T08:29:26Z</time>
      </trkpt>
      <trkpt lat="44.65407" lon="3.00831">
        <ele>1258.98</ele>
        <time>2012-04-28T08:29:35Z</time>
      </trkpt>
      <trkpt lat="44.65405" lon="3.00821">
        <ele>1258.5</ele>
        <time>2012-04-28T08:29:44Z</time>
      </trkpt>
      <trkpt lat="44.65406" lon="3.00819">
        <ele>1259.94</ele>
        <time>2012-04-28T08:29:46Z</time>
      </trkpt>
      <trkpt lat="44.65405" lon="3.00815">
        <ele>1262.35</ele>
        <time>2012-04-28T08:29:51Z</time>
      </trkpt>
      <trkpt lat="44.65404" lon="3.00811">
        <ele>1263.31</ele>
        <time>2012-04-28T08:29:54Z</time>
      </trkpt>
      <trkpt lat="44.654" lon="3.00798">
        <ele>1262.83</ele>
        <time>2012-04-28T08:30:07Z</time>
      </trkpt>
      <trkpt lat="44.65398" lon="3.00785">
        <ele>1265.71</ele>
        <time>2012-04-28T08:30:15Z</time>
      </trkpt>
      <trkpt lat="44.65397" lon="3.00783">
        <ele>1268.12</ele>
        <time>2012-04-28T08:30:26Z</time>
      </trkpt>
      <trkpt lat="44.65397" lon="3.00782">
        <ele>1266.67</ele>
        <time>2012-04-28T08:30:38Z</time>
      </trkpt>
      <trkpt lat="44.65399" lon="3.00772">
        <ele>1269.08</ele>
        <time>2012-04-28T08:30:45Z</time>
      </trkpt>
      <trkpt lat="44.65397" lon="3.00765">
        <ele>1270.52</ele>
        <time>2012-04-28T08:30:49Z</time>
      </trkpt>
      <trkpt lat="44.65397" lon="3.00765">
        <ele>1266.67</ele>
        <time>2012-04-28T08:30:52Z</time>
      </trkpt>
      <trkpt lat="44.65397" lon="3.00765">
        <ele>1264.75</ele>
        <time>2012-04-28T08:30:54Z</time>
      </trkpt>
      <trkpt lat="44.65399" lon="3.00763">
        <ele>1271.48</ele>
        <time>2012-04-28T08:30:56Z</time>
      </trkpt>
      <trkpt lat="44.65399" lon="3.00761">
        <ele>1274.36</ele>
        <time>2012-04-28T08:30:58Z</time>
      </trkpt>
      <trkpt lat="44.65399" lon="3.00758">
        <ele>1277.25</ele>
        <time>2012-04-28T08:31:00Z</time>
      </trkpt>
      <trkpt lat="44.65401" lon="3.00751">
        <ele>1273.4</ele>
        <time>2012-04-28T08:31:04Z</time>
      </trkpt>
      <trkpt lat="44.65401" lon="3.00749">
        <ele>1272.92</ele>
        <time>2012-04-28T08:31:06Z</time>
      </trkpt>
      <trkpt lat="44.65398" lon="3.00739">
        <ele>1272.92</ele>
        <time>2012-04-28T08:31:16Z</time>
      </trkpt>
      <trkpt lat="44.65395" lon="3.00731">
        <ele>1272.92</ele>
        <time>2012-04-28T08:31:26Z</time>
      </trkpt>
      <trkpt lat="44.65395" lon="3.00731">
        <ele>1271.96</ele>
        <time>2012-04-28T08:31:40Z</time>
      </trkpt>
      <trkpt lat="44.65395" lon="3.00731">
        <ele>1273.4</ele>
        <time>2012-04-28T08:31:43Z</time>
      </trkpt>
      <trkpt lat="44.65395" lon="3.00731">
        <ele>1274.85</ele>
        <time>2012-04-28T08:31:48Z</time>
      </trkpt>
      <trkpt lat="44.65394" lon="3.00725">
        <ele>1273.4</ele>
        <time>2012-04-28T08:32:04Z</time>
      </trkpt>
      <trkpt lat="44.65386" lon="3.0071">
        <ele>1273.88</ele>
        <time>2012-04-28T08:32:16Z</time>
      </trkpt>
      <trkpt lat="44.65385" lon="3.00706">
        <ele>1275.33</ele>
        <time>2012-04-28T08:32:26Z</time>
      </trkpt>
      <trkpt lat="44.65384" lon="3.00705">
        <ele>1273.4</ele>
        <time>2012-04-28T08:32:28Z</time>
      </trkpt>
      <trkpt lat="44.65382" lon="3.00702">
        <ele>1272.92</ele>
        <time>2012-04-28T08:32:32Z</time>
      </trkpt>
      <trkpt lat="44.6538" lon="3.00699">
        <ele>1271.48</ele>
        <time>2012-04-28T08:32:36Z</time>
      </trkpt>
      <trkpt lat="44.65374" lon="3.00688">
        <ele>1268.6</ele>
        <time>2012-04-28T08:32:48Z</time>
      </trkpt>
      <trkpt lat="44.65373" lon="3.00686">
        <ele>1275.33</ele>
        <time>2012-04-28T08:32:50Z</time>
      </trkpt>
      <trkpt lat="44.65369" lon="3.00675">
        <ele>1275.81</ele>
        <time>2012-04-28T08:32:59Z</time>
      </trkpt>
      <trkpt lat="44.65367" lon="3.00671">
        <ele>1272.44</ele>
        <time>2012-04-28T08:33:02Z</time>
      </trkpt>
      <trkpt lat="44.65359" lon="3.00654">
        <ele>1276.29</ele>
        <time>2012-04-28T08:33:14Z</time>
      </trkpt>
      <trkpt lat="44.65357" lon="3.00651">
        <ele>1273.4</ele>
        <time>2012-04-28T08:33:17Z</time>
      </trkpt>
      <trkpt lat="44.65354" lon="3.00645">
        <ele>1276.29</ele>
        <time>2012-04-28T08:33:22Z</time>
      </trkpt>
      <trkpt lat="44.6535" lon="3.00638">
        <ele>1272.92</ele>
        <time>2012-04-28T08:33:28Z</time>
      </trkpt>
      <trkpt lat="44.65348" lon="3.00635">
        <ele>1268.6</ele>
        <time>2012-04-28T08:33:30Z</time>
      </trkpt>
      <trkpt lat="44.65348" lon="3.00634">
        <ele>1272.92</ele>
        <time>2012-04-28T08:33:31Z</time>
      </trkpt>
      <trkpt lat="44.65347" lon="3.00633">
        <ele>1273.4</ele>
        <time>2012-04-28T08:33:32Z</time>
      </trkpt>
      <trkpt lat="44.65347" lon="3.00632">
        <ele>1273.88</ele>
        <time>2012-04-28T08:33:33Z</time>
      </trkpt>
      <trkpt lat="44.65345" lon="3.00627">
        <ele>1271</ele>
        <time>2012-04-28T08:33:37Z</time>
      </trkpt>
      <trkpt lat="44.65345" lon="3.00625">
        <ele>1272.44</ele>
        <time>2012-04-28T08:33:39Z</time>
      </trkpt>
      <trkpt lat="44.65342" lon="3.00621">
        <ele>1272.92</ele>
        <time>2012-04-28T08:33:41Z</time>
      </trkpt>
      <trkpt lat="44.65338" lon="3.00617">
        <ele>1272.44</ele>
        <time>2012-04-28T08:33:45Z</time>
      </trkpt>
      <trkpt lat="44.65336" lon="3.00615">
        <ele>1272.44</ele>
        <time>2012-04-28T08:33:48Z</time>
      </trkpt>
      <trkpt lat="44.65333" lon="3.00612">
        <ele>1276.29</ele>
        <time>2012-04-28T08:33:50Z</time>
      </trkpt>
      <trkpt lat="44.65331" lon="3.00611">
        <ele>1273.88</ele>
        <time>2012-04-28T08:33:51Z</time>
      </trkpt>
      <trkpt lat="44.65327" lon="3.00605">
        <ele>1271</ele>
        <time>2012-04-28T08:33:56Z</time>
      </trkpt>
      <trkpt lat="44.65324" lon="3.00603">
        <ele>1273.88</ele>
        <time>2012-04-28T08:33:59Z</time>
      </trkpt>
      <trkpt lat="44.65318" lon="3.00595">
        <ele>1270.52</ele>
        <time>2012-04-28T08:34:07Z</time>
      </trkpt>
      <trkpt lat="44.65318" lon="3.00595">
        <ele>1265.23</ele>
        <time>2012-04-28T08:34:18Z</time>
      </trkpt>
      <trkpt lat="44.65318" lon="3.00595">
        <ele>1265.71</ele>
        <time>2012-04-28T08:34:19Z</time>
      </trkpt>
      <trkpt lat="44.65318" lon="3.00595">
        <ele>1270.04</ele>
        <time>2012-04-28T08:34:21Z</time>
      </trkpt>
      <trkpt lat="44.65318" lon="3.00595">
        <ele>1270.04</ele>
        <time>2012-04-28T08:34:22Z</time>
      </trkpt>
      <trkpt lat="44.65318" lon="3.00595">
        <ele>1271</ele>
        <time>2012-04-28T08:34:25Z</time>
      </trkpt>
      <trkpt lat="44.65314" lon="3.00592">
        <ele>1268.6</ele>
        <time>2012-04-28T08:34:34Z</time>
      </trkpt>
      <trkpt lat="44.65314" lon="3.00592">
        <ele>1269.56</ele>
        <time>2012-04-28T08:34:37Z</time>
      </trkpt>
      <trkpt lat="44.65314" lon="3.00592">
        <ele>1272.92</ele>
        <time>2012-04-28T08:34:44Z</time>
      </trkpt>
      <trkpt lat="44.65314" lon="3.00592">
        <ele>1266.19</ele>
        <time>2012-04-28T08:34:48Z</time>
      </trkpt>
      <trkpt lat="44.65314" lon="3.00592">
        <ele>1267.16</ele>
        <time>2012-04-28T08:34:49Z</time>
      </trkpt>
      <trkpt lat="44.65309" lon="3.00589">
        <ele>1269.56</ele>
        <time>2012-04-28T08:34:55Z</time>
      </trkpt>
      <trkpt lat="44.65308" lon="3.00589">
        <ele>1273.4</ele>
        <time>2012-04-28T08:35:00Z</time>
      </trkpt>
      <trkpt lat="44.65308" lon="3.00589">
        <ele>1271.48</ele>
        <time>2012-04-28T08:35:01Z</time>
      </trkpt>
      <trkpt lat="44.65308" lon="3.00589">
        <ele>1267.64</ele>
        <time>2012-04-28T08:35:04Z</time>
      </trkpt>
      <trkpt lat="44.65308" lon="3.00589">
        <ele>1268.12</ele>
        <time>2012-04-28T08:35:05Z</time>
      </trkpt>
      <trkpt lat="44.65308" lon="3.00589">
        <ele>1274.85</ele>
        <time>2012-04-28T08:35:10Z</time>
      </trkpt>
      <trkpt lat="44.65308" lon="3.00589">
        <ele>1274.85</ele>
        <time>2012-04-28T08:35:11Z</time>
      </trkpt>
      <trkpt lat="44.65308" lon="3.00589">
        <ele>1270.52</ele>
        <time>2012-04-28T08:35:18Z</time>
      </trkpt>
      <trkpt lat="44.65308" lon="3.00589">
        <ele>1273.88</ele>
        <time>2012-04-28T08:35:21Z</time>
      </trkpt>
      <trkpt lat="44.65308" lon="3.00589">
        <ele>1269.08</ele>
        <time>2012-04-28T08:35:23Z</time>
      </trkpt>
      <trkpt lat="44.65308" lon="3.00589">
        <ele>1270.52</ele>
        <time>2012-04-28T08:35:24Z</time>
      </trkpt>
      <trkpt lat="44.65308" lon="3.00589">
        <ele>1269.56</ele>
        <time>2012-04-28T08:35:35Z</time>
      </trkpt>
      <trkpt lat="44.65308" lon="3.00589">
        <ele>1267.64</ele>
        <time>2012-04-28T08:35:39Z</time>
      </trkpt>
      <trkpt lat="44.65308" lon="3.00589">
        <ele>1271</ele>
        <time>2012-04-28T08:35:41Z</time>
      </trkpt>
      <trkpt lat="44.65307" lon="3.0059">
        <ele>1272.92</ele>
        <time>2012-04-28T08:35:43Z</time>
      </trkpt>
      <trkpt lat="44.65306" lon="3.0059">
        <ele>1271.48</ele>
        <time>2012-04-28T08:35:45Z</time>
      </trkpt>
      <trkpt lat="44.65307" lon="3.0059">
        <ele>1275.81</ele>
        <time>2012-04-28T08:35:46Z</time>
      </trkpt>
      <trkpt lat="44.65306" lon="3.0059">
        <ele>1274.36</ele>
        <time>2012-04-28T08:35:47Z</time>
      </trkpt>
      <trkpt lat="44.65306" lon="3.0059">
        <ele>1269.56</ele>
        <time>2012-04-28T08:35:51Z</time>
      </trkpt>
      <trkpt lat="44.65306" lon="3.0059">
        <ele>1270.04</ele>
        <time>2012-04-28T08:35:52Z</time>
      </trkpt>
      <trkpt lat="44.65305" lon="3.0059">
        <ele>1270.04</ele>
        <time>2012-04-28T08:36:01Z</time>
      </trkpt>
      <trkpt lat="44.653" lon="3.00589">
        <ele>1271.48</ele>
        <time>2012-04-28T08:36:07Z</time>
      </trkpt>
      <trkpt lat="44.65293" lon="3.00588">
        <ele>1272.44</ele>
        <time>2012-04-28T08:36:18Z</time>
      </trkpt>
      <trkpt lat="44.65293" lon="3.00588">
        <ele>1272.44</ele>
        <time>2012-04-28T08:36:19Z</time>
      </trkpt>
      <trkpt lat="44.65292" lon="3.00587">
        <ele>1275.81</ele>
        <time>2012-04-28T08:36:32Z</time>
      </trkpt>
      <trkpt lat="44.65292" lon="3.00587">
        <ele>1271.48</ele>
        <time>2012-04-28T08:36:33Z</time>
      </trkpt>
      <trkpt lat="44.65292" lon="3.00587">
        <ele>1273.88</ele>
        <time>2012-04-28T08:36:37Z</time>
      </trkpt>
      <trkpt lat="44.65292" lon="3.00587">
        <ele>1271.96</ele>
        <time>2012-04-28T08:36:52Z</time>
      </trkpt>
      <trkpt lat="44.65292" lon="3.00587">
        <ele>1275.81</ele>
        <time>2012-04-28T08:36:55Z</time>
      </trkpt>
      <trkpt lat="44.65292" lon="3.00587">
        <ele>1272.44</ele>
        <time>2012-04-28T08:36:58Z</time>
      </trkpt>
      <trkpt lat="44.65292" lon="3.00587">
        <ele>1272.92</ele>
        <time>2012-04-28T08:37:20Z</time>
      </trkpt>
      <trkpt lat="44.65292" lon="3.00587">
        <ele>1273.88</ele>
        <time>2012-04-28T08:37:22Z</time>
      </trkpt>
      <trkpt lat="44.65293" lon="3.00587">
        <ele>1271.96</ele>
        <time>2012-04-28T08:37:25Z</time>
      </trkpt>
      <trkpt lat="44.65294" lon="3.00587">
        <ele>1270.52</ele>
        <time>2012-04-28T08:37:37Z</time>
      </trkpt>
      <trkpt lat="44.65294" lon="3.00587">
        <ele>1269.56</ele>
        <time>2012-04-28T08:37:48Z</time>
      </trkpt>
      <trkpt lat="44.65294" lon="3.00587">
        <ele>1271</ele>
        <time>2012-04-28T08:37:50Z</time>
      </trkpt>
      <trkpt lat="44.65293" lon="3.00586">
        <ele>1272.92</ele>
        <time>2012-04-28T08:38:09Z</time>
      </trkpt>
      <trkpt lat="44.65281" lon="3.00581">
        <ele>1272.92</ele>
        <time>2012-04-28T08:38:22Z</time>
      </trkpt>
      <trkpt lat="44.65275" lon="3.00581">
        <ele>1273.4</ele>
        <time>2012-04-28T08:38:29Z</time>
      </trkpt>
      <trkpt lat="44.65273" lon="3.0058">
        <ele>1274.36</ele>
        <time>2012-04-28T08:38:31Z</time>
      </trkpt>
      <trkpt lat="44.65269" lon="3.00578">
        <ele>1273.4</ele>
        <time>2012-04-28T08:38:35Z</time>
      </trkpt>
      <trkpt lat="44.65265" lon="3.00577">
        <ele>1273.4</ele>
        <time>2012-04-28T08:38:39Z</time>
      </trkpt>
      <trkpt lat="44.65253" lon="3.00578">
        <ele>1273.88</ele>
        <time>2012-04-28T08:38:52Z</time>
      </trkpt>
      <trkpt lat="44.65252" lon="3.00578">
        <ele>1273.88</ele>
        <time>2012-04-28T08:38:53Z</time>
      </trkpt>
      <trkpt lat="44.65247" lon="3.00579">
        <ele>1275.33</ele>
        <time>2012-04-28T08:38:57Z</time>
      </trkpt>
      <trkpt lat="44.65242" lon="3.0058">
        <ele>1274.85</ele>
        <time>2012-04-28T08:39:02Z</time>
      </trkpt>
      <trkpt lat="44.65228" lon="3.00581">
        <ele>1273.88</ele>
        <time>2012-04-28T08:39:14Z</time>
      </trkpt>
      <trkpt lat="44.65222" lon="3.00586">
        <ele>1273.88</ele>
        <time>2012-04-28T08:39:21Z</time>
      </trkpt>
      <trkpt lat="44.65213" lon="3.00592">
        <ele>1274.85</ele>
        <time>2012-04-28T08:39:33Z</time>
      </trkpt>
      <trkpt lat="44.65212" lon="3.00593">
        <ele>1272.92</ele>
        <time>2012-04-28T08:39:37Z</time>
      </trkpt>
      <trkpt lat="44.65212" lon="3.00593">
        <ele>1274.36</ele>
        <time>2012-04-28T08:39:39Z</time>
      </trkpt>
      <trkpt lat="44.65211" lon="3.00594">
        <ele>1273.88</ele>
        <time>2012-04-28T08:39:53Z</time>
      </trkpt>
      <trkpt lat="44.65211" lon="3.00594">
        <ele>1274.36</ele>
        <time>2012-04-28T08:40:10Z</time>
      </trkpt>
      <trkpt lat="44.6521" lon="3.00594">
        <ele>1279.17</ele>
        <time>2012-04-28T08:40:15Z</time>
      </trkpt>
      <trkpt lat="44.6521" lon="3.00594">
        <ele>1275.33</ele>
        <time>2012-04-28T08:40:16Z</time>
      </trkpt>
      <trkpt lat="44.6521" lon="3.00594">
        <ele>1274.36</ele>
        <time>2012-04-28T08:40:18Z</time>
      </trkpt>
      <trkpt lat="44.65211" lon="3.00594">
        <ele>1270.52</ele>
        <time>2012-04-28T08:40:21Z</time>
      </trkpt>
      <trkpt lat="44.65211" lon="3.00594">
        <ele>1271.96</ele>
        <time>2012-04-28T08:40:22Z</time>
      </trkpt>
      <trkpt lat="44.65211" lon="3.00594">
        <ele>1273.88</ele>
        <time>2012-04-28T08:40:24Z</time>
      </trkpt>
      <trkpt lat="44.65211" lon="3.00593">
        <ele>1273.88</ele>
        <time>2012-04-28T08:40:25Z</time>
      </trkpt>
      <trkpt lat="44.65206" lon="3.00587">
        <ele>1275.81</ele>
        <time>2012-04-28T08:40:31Z</time>
      </trkpt>
      <trkpt lat="44.65202" lon="3.00583">
        <ele>1275.33</ele>
        <time>2012-04-28T08:40:38Z</time>
      </trkpt>
      <trkpt lat="44.652" lon="3.00582">
        <ele>1275.33</ele>
        <time>2012-04-28T08:40:40Z</time>
      </trkpt>
      <trkpt lat="44.65197" lon="3.00581">
        <ele>1278.21</ele>
        <time>2012-04-28T08:40:44Z</time>
      </trkpt>
      <trkpt lat="44.65188" lon="3.00578">
        <ele>1276.77</ele>
        <time>2012-04-28T08:40:55Z</time>
      </trkpt>
      <trkpt lat="44.65187" lon="3.00579">
        <ele>1273.88</ele>
        <time>2012-04-28T08:40:56Z</time>
      </trkpt>
      <trkpt lat="44.65186" lon="3.00578">
        <ele>1273.4</ele>
        <time>2012-04-28T08:40:57Z</time>
      </trkpt>
      <trkpt lat="44.65185" lon="3.00578">
        <ele>1276.77</ele>
        <time>2012-04-28T08:40:59Z</time>
      </trkpt>
      <trkpt lat="44.65184" lon="3.00578">
        <ele>1275.33</ele>
        <time>2012-04-28T08:41:00Z</time>
      </trkpt>
      <trkpt lat="44.65177" lon="3.00577">
        <ele>1271</ele>
        <time>2012-04-28T08:41:08Z</time>
      </trkpt>
      <trkpt lat="44.65176" lon="3.00577">
        <ele>1268.6</ele>
        <time>2012-04-28T08:41:09Z</time>
      </trkpt>
      <trkpt lat="44.65173" lon="3.00576">
        <ele>1274.85</ele>
        <time>2012-04-28T08:41:12Z</time>
      </trkpt>
      <trkpt lat="44.65172" lon="3.00576">
        <ele>1277.25</ele>
        <time>2012-04-28T08:41:14Z</time>
      </trkpt>
      <trkpt lat="44.65168" lon="3.00574">
        <ele>1274.36</ele>
        <time>2012-04-28T08:41:19Z</time>
      </trkpt>
      <trkpt lat="44.65166" lon="3.00574">
        <ele>1278.69</ele>
        <time>2012-04-28T08:41:21Z</time>
      </trkpt>
      <trkpt lat="44.65163" lon="3.00573">
        <ele>1276.29</ele>
        <time>2012-04-28T08:41:24Z</time>
      </trkpt>
      <trkpt lat="44.6516" lon="3.00571">
        <ele>1274.85</ele>
        <time>2012-04-28T08:41:28Z</time>
      </trkpt>
      <trkpt lat="44.65158" lon="3.0057">
        <ele>1279.17</ele>
        <time>2012-04-28T08:41:30Z</time>
      </trkpt>
      <trkpt lat="44.65155" lon="3.00569">
        <ele>1280.61</ele>
        <time>2012-04-28T08:41:33Z</time>
      </trkpt>
      <trkpt lat="44.65149" lon="3.00567">
        <ele>1280.13</ele>
        <time>2012-04-28T08:41:39Z</time>
      </trkpt>
      <trkpt lat="44.65148" lon="3.00565">
        <ele>1281.09</ele>
        <time>2012-04-28T08:41:41Z</time>
      </trkpt>
      <trkpt lat="44.65135" lon="3.00562">
        <ele>1283.98</ele>
        <time>2012-04-28T08:41:53Z</time>
      </trkpt>
      <trkpt lat="44.65132" lon="3.00561">
        <ele>1278.69</ele>
        <time>2012-04-28T08:41:55Z</time>
      </trkpt>
      <trkpt lat="44.65124" lon="3.00566">
        <ele>1282.54</ele>
        <time>2012-04-28T08:42:04Z</time>
      </trkpt>
      <trkpt lat="44.65123" lon="3.00566">
        <ele>1281.57</ele>
        <time>2012-04-28T08:42:05Z</time>
      </trkpt>
      <trkpt lat="44.65109" lon="3.0057">
        <ele>1279.65</ele>
        <time>2012-04-28T08:42:16Z</time>
      </trkpt>
      <trkpt lat="44.65106" lon="3.00571">
        <ele>1282.06</ele>
        <time>2012-04-28T08:42:19Z</time>
      </trkpt>
      <trkpt lat="44.65093" lon="3.00571">
        <ele>1283.5</ele>
        <time>2012-04-28T08:42:29Z</time>
      </trkpt>
      <trkpt lat="44.65084" lon="3.00572">
        <ele>1283.98</ele>
        <time>2012-04-28T08:42:36Z</time>
      </trkpt>
      <trkpt lat="44.65081" lon="3.0057">
        <ele>1286.86</ele>
        <time>2012-04-28T08:42:39Z</time>
      </trkpt>
      <trkpt lat="44.65079" lon="3.00571">
        <ele>1283.98</ele>
        <time>2012-04-28T08:42:42Z</time>
      </trkpt>
      <trkpt lat="44.65073" lon="3.00573">
        <ele>1285.9</ele>
        <time>2012-04-28T08:42:48Z</time>
      </trkpt>
      <trkpt lat="44.65071" lon="3.00573">
        <ele>1282.06</ele>
        <time>2012-04-28T08:42:50Z</time>
      </trkpt>
      <trkpt lat="44.65068" lon="3.00573">
        <ele>1279.17</ele>
        <time>2012-04-28T08:42:53Z</time>
      </trkpt>
      <trkpt lat="44.65066" lon="3.00573">
        <ele>1282.54</ele>
        <time>2012-04-28T08:42:55Z</time>
      </trkpt>
      <trkpt lat="44.65064" lon="3.00572">
        <ele>1285.42</ele>
        <time>2012-04-28T08:42:57Z</time>
      </trkpt>
      <trkpt lat="44.65063" lon="3.00572">
        <ele>1284.94</ele>
        <time>2012-04-28T08:42:58Z</time>
      </trkpt>
      <trkpt lat="44.6506" lon="3.00572">
        <ele>1286.86</ele>
        <time>2012-04-28T08:43:01Z</time>
      </trkpt>
      <trkpt lat="44.65057" lon="3.00572">
        <ele>1283.98</ele>
        <time>2012-04-28T08:43:05Z</time>
      </trkpt>
      <trkpt lat="44.65045" lon="3.00573">
        <ele>1287.82</ele>
        <time>2012-04-28T08:43:19Z</time>
      </trkpt>
      <trkpt lat="44.65035" lon="3.00574">
        <ele>1287.82</ele>
        <time>2012-04-28T08:43:30Z</time>
      </trkpt>
      <trkpt lat="44.65033" lon="3.00573">
        <ele>1289.27</ele>
        <time>2012-04-28T08:43:32Z</time>
      </trkpt>
      <trkpt lat="44.65026" lon="3.00572">
        <ele>1288.3</ele>
        <time>2012-04-28T08:43:39Z</time>
      </trkpt>
      <trkpt lat="44.65021" lon="3.00573">
        <ele>1289.75</ele>
        <time>2012-04-28T08:43:44Z</time>
      </trkpt>
      <trkpt lat="44.65011" lon="3.00569">
        <ele>1290.71</ele>
        <time>2012-04-28T08:43:54Z</time>
      </trkpt>
      <trkpt lat="44.65005" lon="3.00567">
        <ele>1288.78</ele>
        <time>2012-04-28T08:44:02Z</time>
      </trkpt>
      <trkpt lat="44.65002" lon="3.00566">
        <ele>1286.86</ele>
        <time>2012-04-28T08:44:05Z</time>
      </trkpt>
      <trkpt lat="44.65" lon="3.00565">
        <ele>1292.15</ele>
        <time>2012-04-28T08:44:07Z</time>
      </trkpt>
      <trkpt lat="44.64999" lon="3.00565">
        <ele>1291.67</ele>
        <time>2012-04-28T08:44:08Z</time>
      </trkpt>
      <trkpt lat="44.64997" lon="3.00564">
        <ele>1288.78</ele>
        <time>2012-04-28T08:44:10Z</time>
      </trkpt>
      <trkpt lat="44.64987" lon="3.00554">
        <ele>1290.23</ele>
        <time>2012-04-28T08:44:23Z</time>
      </trkpt>
      <trkpt lat="44.64985" lon="3.00551">
        <ele>1292.15</ele>
        <time>2012-04-28T08:44:25Z</time>
      </trkpt>
      <trkpt lat="44.64984" lon="3.00548">
        <ele>1294.55</ele>
        <time>2012-04-28T08:44:27Z</time>
      </trkpt>
      <trkpt lat="44.64984" lon="3.00547">
        <ele>1292.15</ele>
        <time>2012-04-28T08:44:28Z</time>
      </trkpt>
      <trkpt lat="44.6498" lon="3.00543">
        <ele>1296.48</ele>
        <time>2012-04-28T08:44:32Z</time>
      </trkpt>
      <trkpt lat="44.64978" lon="3.00538">
        <ele>1293.11</ele>
        <time>2012-04-28T08:44:36Z</time>
      </trkpt>
      <trkpt lat="44.64977" lon="3.00537">
        <ele>1294.07</ele>
        <time>2012-04-28T08:44:37Z</time>
      </trkpt>
      <trkpt lat="44.64975" lon="3.00536">
        <ele>1289.27</ele>
        <time>2012-04-28T08:44:39Z</time>
      </trkpt>
      <trkpt lat="44.64974" lon="3.00535">
        <ele>1293.11</ele>
        <time>2012-04-28T08:44:40Z</time>
      </trkpt>
      <trkpt lat="44.64973" lon="3.00531">
        <ele>1289.75</ele>
        <time>2012-04-28T08:44:43Z</time>
      </trkpt>
      <trkpt lat="44.64971" lon="3.00529">
        <ele>1293.11</ele>
        <time>2012-04-28T08:44:45Z</time>
      </trkpt>
      <trkpt lat="44.6497" lon="3.00528">
        <ele>1292.15</ele>
        <time>2012-04-28T08:44:46Z</time>
      </trkpt>
      <trkpt lat="44.64969" lon="3.00526">
        <ele>1291.67</ele>
        <time>2012-04-28T08:44:48Z</time>
      </trkpt>
      <trkpt lat="44.64964" lon="3.00518">
        <ele>1293.59</ele>
        <time>2012-04-28T08:44:54Z</time>
      </trkpt>
      <trkpt lat="44.64957" lon="3.00506">
        <ele>1293.59</ele>
        <time>2012-04-28T08:45:06Z</time>
      </trkpt>
      <trkpt lat="44.64955" lon="3.00503">
        <ele>1293.11</ele>
        <time>2012-04-28T08:45:08Z</time>
      </trkpt>
      <trkpt lat="44.6495" lon="3.00496">
        <ele>1289.27</ele>
        <time>2012-04-28T08:45:14Z</time>
      </trkpt>
      <trkpt lat="44.6495" lon="3.00495">
        <ele>1291.19</ele>
        <time>2012-04-28T08:45:15Z</time>
      </trkpt>
      <trkpt lat="44.64949" lon="3.00492">
        <ele>1292.63</ele>
        <time>2012-04-28T08:45:17Z</time>
      </trkpt>
      <trkpt lat="44.64946" lon="3.00485">
        <ele>1295.03</ele>
        <time>2012-04-28T08:45:22Z</time>
      </trkpt>
      <trkpt lat="44.64944" lon="3.0048">
        <ele>1295.03</ele>
        <time>2012-04-28T08:45:28Z</time>
      </trkpt>
      <trkpt lat="44.64943" lon="3.00476">
        <ele>1296.48</ele>
        <time>2012-04-28T08:45:30Z</time>
      </trkpt>
      <trkpt lat="44.64939" lon="3.00466">
        <ele>1295.51</ele>
        <time>2012-04-28T08:45:38Z</time>
      </trkpt>
      <trkpt lat="44.64936" lon="3.00455">
        <ele>1293.59</ele>
        <time>2012-04-28T08:45:46Z</time>
      </trkpt>
      <trkpt lat="44.64933" lon="3.00446">
        <ele>1299.36</ele>
        <time>2012-04-28T08:45:52Z</time>
      </trkpt>
      <trkpt lat="44.64933" lon="3.00446">
        <ele>1296.96</ele>
        <time>2012-04-28T08:45:53Z</time>
      </trkpt>
      <trkpt lat="44.64933" lon="3.00445">
        <ele>1295.51</ele>
        <time>2012-04-28T08:45:54Z</time>
      </trkpt>
      <trkpt lat="44.64931" lon="3.00438">
        <ele>1294.07</ele>
        <time>2012-04-28T08:45:57Z</time>
      </trkpt>
      <trkpt lat="44.64929" lon="3.00433">
        <ele>1295.51</ele>
        <time>2012-04-28T08:46:00Z</time>
      </trkpt>
      <trkpt lat="44.64928" lon="3.00428">
        <ele>1295.03</ele>
        <time>2012-04-28T08:46:04Z</time>
      </trkpt>
      <trkpt lat="44.64925" lon="3.0042">
        <ele>1294.07</ele>
        <time>2012-04-28T08:46:10Z</time>
      </trkpt>
      <trkpt lat="44.64922" lon="3.00404">
        <ele>1295.51</ele>
        <time>2012-04-28T08:46:19Z</time>
      </trkpt>
      <trkpt lat="44.64922" lon="3.00401">
        <ele>1296.96</ele>
        <time>2012-04-28T08:46:23Z</time>
      </trkpt>
      <trkpt lat="44.64921" lon="3.00398">
        <ele>1296.48</ele>
        <time>2012-04-28T08:46:25Z</time>
      </trkpt>
      <trkpt lat="44.64919" lon="3.0039">
        <ele>1295.03</ele>
        <time>2012-04-28T08:46:30Z</time>
      </trkpt>
      <trkpt lat="44.64918" lon="3.00387">
        <ele>1294.07</ele>
        <time>2012-04-28T08:46:32Z</time>
      </trkpt>
      <trkpt lat="44.64917" lon="3.00382">
        <ele>1297.92</ele>
        <time>2012-04-28T08:46:35Z</time>
      </trkpt>
      <trkpt lat="44.64917" lon="3.00382">
        <ele>1295.99</ele>
        <time>2012-04-28T08:46:36Z</time>
      </trkpt>
      <trkpt lat="44.64917" lon="3.00382">
        <ele>1295.99</ele>
        <time>2012-04-28T08:46:38Z</time>
      </trkpt>
      <trkpt lat="44.64915" lon="3.00373">
        <ele>1300.32</ele>
        <time>2012-04-28T08:46:43Z</time>
      </trkpt>
      <trkpt lat="44.64913" lon="3.00366">
        <ele>1298.88</ele>
        <time>2012-04-28T08:46:47Z</time>
      </trkpt>
      <trkpt lat="44.64912" lon="3.0036">
        <ele>1298.88</ele>
        <time>2012-04-28T08:46:52Z</time>
      </trkpt>
      <trkpt lat="44.64911" lon="3.00357">
        <ele>1296.96</ele>
        <time>2012-04-28T08:46:54Z</time>
      </trkpt>
      <trkpt lat="44.6491" lon="3.00352">
        <ele>1295.51</ele>
        <time>2012-04-28T08:46:57Z</time>
      </trkpt>
      <trkpt lat="44.64908" lon="3.00345">
        <ele>1297.44</ele>
        <time>2012-04-28T08:47:03Z</time>
      </trkpt>
      <trkpt lat="44.64907" lon="3.00339">
        <ele>1298.88</ele>
        <time>2012-04-28T08:47:06Z</time>
      </trkpt>
      <trkpt lat="44.64905" lon="3.00333">
        <ele>1296.48</ele>
        <time>2012-04-28T08:47:12Z</time>
      </trkpt>
      <trkpt lat="44.64905" lon="3.00327">
        <ele>1291.67</ele>
        <time>2012-04-28T08:47:16Z</time>
      </trkpt>
      <trkpt lat="44.64905" lon="3.00326">
        <ele>1295.51</ele>
        <time>2012-04-28T08:47:17Z</time>
      </trkpt>
      <trkpt lat="44.64905" lon="3.00326">
        <ele>1297.44</ele>
        <time>2012-04-28T08:47:24Z</time>
      </trkpt>
      <trkpt lat="44.64905" lon="3.00326">
        <ele>1301.28</ele>
        <time>2012-04-28T08:47:29Z</time>
      </trkpt>
      <trkpt lat="44.64905" lon="3.00326">
        <ele>1297.92</ele>
        <time>2012-04-28T08:47:33Z</time>
      </trkpt>
      <trkpt lat="44.64904" lon="3.00325">
        <ele>1294.07</ele>
        <time>2012-04-28T08:47:36Z</time>
      </trkpt>
      <trkpt lat="44.64903" lon="3.00318">
        <ele>1294.07</ele>
        <time>2012-04-28T08:47:41Z</time>
      </trkpt>
      <trkpt lat="44.64902" lon="3.00314">
        <ele>1291.67</ele>
        <time>2012-04-28T08:47:43Z</time>
      </trkpt>
      <trkpt lat="44.649" lon="3.00308">
        <ele>1295.51</ele>
        <time>2012-04-28T08:47:47Z</time>
      </trkpt>
      <trkpt lat="44.64899" lon="3.00306">
        <ele>1294.55</ele>
        <time>2012-04-28T08:47:48Z</time>
      </trkpt>
      <trkpt lat="44.64897" lon="3.003">
        <ele>1291.19</ele>
        <time>2012-04-28T08:47:56Z</time>
      </trkpt>
      <trkpt lat="44.64897" lon="3.00299">
        <ele>1291.19</ele>
        <time>2012-04-28T08:47:57Z</time>
      </trkpt>
      <trkpt lat="44.64896" lon="3.00296">
        <ele>1293.11</ele>
        <time>2012-04-28T08:48:00Z</time>
      </trkpt>
      <trkpt lat="44.64894" lon="3.00292">
        <ele>1293.11</ele>
        <time>2012-04-28T08:48:07Z</time>
      </trkpt>
      <trkpt lat="44.64894" lon="3.00289">
        <ele>1295.99</ele>
        <time>2012-04-28T08:48:09Z</time>
      </trkpt>
      <trkpt lat="44.64894" lon="3.00287">
        <ele>1295.03</ele>
        <time>2012-04-28T08:48:10Z</time>
      </trkpt>
      <trkpt lat="44.64893" lon="3.00284">
        <ele>1290.71</ele>
        <time>2012-04-28T08:48:15Z</time>
      </trkpt>
      <trkpt lat="44.64893" lon="3.00284">
        <ele>1290.71</ele>
        <time>2012-04-28T08:48:16Z</time>
      </trkpt>
      <trkpt lat="44.64892" lon="3.00282">
        <ele>1292.15</ele>
        <time>2012-04-28T08:48:18Z</time>
      </trkpt>
      <trkpt lat="44.64891" lon="3.0028">
        <ele>1292.63</ele>
        <time>2012-04-28T08:48:19Z</time>
      </trkpt>
      <trkpt lat="44.64889" lon="3.00273">
        <ele>1291.67</ele>
        <time>2012-04-28T08:48:24Z</time>
      </trkpt>
      <trkpt lat="44.64888" lon="3.00269">
        <ele>1292.63</ele>
        <time>2012-04-28T08:48:26Z</time>
      </trkpt>
      <trkpt lat="44.64886" lon="3.00265">
        <ele>1291.67</ele>
        <time>2012-04-28T08:48:30Z</time>
      </trkpt>
      <trkpt lat="44.64883" lon="3.0026">
        <ele>1295.03</ele>
        <time>2012-04-28T08:48:35Z</time>
      </trkpt>
      <trkpt lat="44.64883" lon="3.0026">
        <ele>1294.07</ele>
        <time>2012-04-28T08:48:36Z</time>
      </trkpt>
      <trkpt lat="44.64883" lon="3.00258">
        <ele>1296.96</ele>
        <time>2012-04-28T08:48:40Z</time>
      </trkpt>
      <trkpt lat="44.64883" lon="3.00257">
        <ele>1295.99</ele>
        <time>2012-04-28T08:48:42Z</time>
      </trkpt>
      <trkpt lat="44.64883" lon="3.00253">
        <ele>1294.55</ele>
        <time>2012-04-28T08:48:45Z</time>
      </trkpt>
      <trkpt lat="44.64878" lon="3.00235">
        <ele>1297.44</ele>
        <time>2012-04-28T08:48:59Z</time>
      </trkpt>
      <trkpt lat="44.64877" lon="3.00225">
        <ele>1295.51</ele>
        <time>2012-04-28T08:49:07Z</time>
      </trkpt>
      <trkpt lat="44.64874" lon="3.00217">
        <ele>1296.48</ele>
        <time>2012-04-28T08:49:13Z</time>
      </trkpt>
      <trkpt lat="44.64873" lon="3.00211">
        <ele>1300.32</ele>
        <time>2012-04-28T08:49:17Z</time>
      </trkpt>
      <trkpt lat="44.64873" lon="3.00208">
        <ele>1296.48</ele>
        <time>2012-04-28T08:49:19Z</time>
      </trkpt>
      <trkpt lat="44.64872" lon="3.00207">
        <ele>1296.96</ele>
        <time>2012-04-28T08:49:20Z</time>
      </trkpt>
      <trkpt lat="44.64872" lon="3.002">
        <ele>1296.96</ele>
        <time>2012-04-28T08:49:25Z</time>
      </trkpt>
      <trkpt lat="44.64871" lon="3.00197">
        <ele>1296.96</ele>
        <time>2012-04-28T08:49:27Z</time>
      </trkpt>
      <trkpt lat="44.64872" lon="3.00194">
        <ele>1297.92</ele>
        <time>2012-04-28T08:49:29Z</time>
      </trkpt>
      <trkpt lat="44.6487" lon="3.00189">
        <ele>1296.48</ele>
        <time>2012-04-28T08:49:32Z</time>
      </trkpt>
      <trkpt lat="44.64869" lon="3.00177">
        <ele>1295.99</ele>
        <time>2012-04-28T08:49:40Z</time>
      </trkpt>
      <trkpt lat="44.64869" lon="3.00172">
        <ele>1298.88</ele>
        <time>2012-04-28T08:49:43Z</time>
      </trkpt>
      <trkpt lat="44.64867" lon="3.00162">
        <ele>1300.8</ele>
        <time>2012-04-28T08:49:51Z</time>
      </trkpt>
      <trkpt lat="44.64866" lon="3.00159">
        <ele>1296.96</ele>
        <time>2012-04-28T08:49:53Z</time>
      </trkpt>
      <trkpt lat="44.64866" lon="3.0015">
        <ele>1297.92</ele>
        <time>2012-04-28T08:49:58Z</time>
      </trkpt>
      <trkpt lat="44.64867" lon="3.00149">
        <ele>1302.24</ele>
        <time>2012-04-28T08:50:00Z</time>
      </trkpt>
      <trkpt lat="44.64866" lon="3.00146">
        <ele>1296.96</ele>
        <time>2012-04-28T08:50:02Z</time>
      </trkpt>
      <trkpt lat="44.64866" lon="3.00144">
        <ele>1295.99</ele>
        <time>2012-04-28T08:50:03Z</time>
      </trkpt>
      <trkpt lat="44.64864" lon="3.0012">
        <ele>1296.48</ele>
        <time>2012-04-28T08:50:17Z</time>
      </trkpt>
      <trkpt lat="44.64863" lon="3.00116">
        <ele>1298.88</ele>
        <time>2012-04-28T08:50:19Z</time>
      </trkpt>
      <trkpt lat="44.64861" lon="3.00106">
        <ele>1295.51</ele>
        <time>2012-04-28T08:50:24Z</time>
      </trkpt>
      <trkpt lat="44.64859" lon="3.00091">
        <ele>1294.07</ele>
        <time>2012-04-28T08:50:32Z</time>
      </trkpt>
      <trkpt lat="44.64857" lon="3.00084">
        <ele>1295.51</ele>
        <time>2012-04-28T08:50:36Z</time>
      </trkpt>
      <trkpt lat="44.64858" lon="3.0008">
        <ele>1293.11</ele>
        <time>2012-04-28T08:50:38Z</time>
      </trkpt>
      <trkpt lat="44.64856" lon="3.00073">
        <ele>1291.19</ele>
        <time>2012-04-28T08:50:45Z</time>
      </trkpt>
      <trkpt lat="44.64855" lon="3.00071">
        <ele>1293.59</ele>
        <time>2012-04-28T08:50:47Z</time>
      </trkpt>
      <trkpt lat="44.64851" lon="3.00057">
        <ele>1289.27</ele>
        <time>2012-04-28T08:50:57Z</time>
      </trkpt>
      <trkpt lat="44.64851" lon="3.00055">
        <ele>1291.19</ele>
        <time>2012-04-28T08:51:00Z</time>
      </trkpt>
      <trkpt lat="44.64851" lon="3.00054">
        <ele>1290.23</ele>
        <time>2012-04-28T08:51:14Z</time>
      </trkpt>
      <trkpt lat="44.64848" lon="3.00047">
        <ele>1288.3</ele>
        <time>2012-04-28T08:51:27Z</time>
      </trkpt>
      <trkpt lat="44.64848" lon="3.00047">
        <ele>1290.71</ele>
        <time>2012-04-28T08:51:32Z</time>
      </trkpt>
      <trkpt lat="44.64848" lon="3.00046">
        <ele>1290.71</ele>
        <time>2012-04-28T08:51:42Z</time>
      </trkpt>
      <trkpt lat="44.64847" lon="3.00035">
        <ele>1292.63</ele>
        <time>2012-04-28T08:51:49Z</time>
      </trkpt>
      <trkpt lat="44.64845" lon="3.00023">
        <ele>1293.11</ele>
        <time>2012-04-28T08:51:56Z</time>
      </trkpt>
      <trkpt lat="44.64845" lon="3.00016">
        <ele>1293.59</ele>
        <time>2012-04-28T08:52:01Z</time>
      </trkpt>
      <trkpt lat="44.64844" lon="3.00014">
        <ele>1292.63</ele>
        <time>2012-04-28T08:52:02Z</time>
      </trkpt>
      <trkpt lat="44.64844" lon="3.00005">
        <ele>1297.44</ele>
        <time>2012-04-28T08:52:07Z</time>
      </trkpt>
      <trkpt lat="44.64842" lon="3.00001">
        <ele>1296.96</ele>
        <time>2012-04-28T08:52:10Z</time>
      </trkpt>
      <trkpt lat="44.64841" lon="2.99978">
        <ele>1295.03</ele>
        <time>2012-04-28T08:52:24Z</time>
      </trkpt>
      <trkpt lat="44.64842" lon="2.99969">
        <ele>1295.03</ele>
        <time>2012-04-28T08:52:29Z</time>
      </trkpt>
      <trkpt lat="44.64842" lon="2.9996">
        <ele>1295.03</ele>
        <time>2012-04-28T08:52:35Z</time>
      </trkpt>
      <trkpt lat="44.64843" lon="2.99951">
        <ele>1293.11</ele>
        <time>2012-04-28T08:52:40Z</time>
      </trkpt>
      <trkpt lat="44.64843" lon="2.99943">
        <ele>1292.63</ele>
        <time>2012-04-28T08:52:45Z</time>
      </trkpt>
      <trkpt lat="44.64845" lon="2.99931">
        <ele>1291.67</ele>
        <time>2012-04-28T08:52:53Z</time>
      </trkpt>
      <trkpt lat="44.64846" lon="2.99927">
        <ele>1292.63</ele>
        <time>2012-04-28T08:52:56Z</time>
      </trkpt>
      <trkpt lat="44.64845" lon="2.9992">
        <ele>1293.11</ele>
        <time>2012-04-28T08:53:00Z</time>
      </trkpt>
      <trkpt lat="44.64845" lon="2.99915">
        <ele>1295.03</ele>
        <time>2012-04-28T08:53:03Z</time>
      </trkpt>
      <trkpt lat="44.64848" lon="2.99892">
        <ele>1296.96</ele>
        <time>2012-04-28T08:53:18Z</time>
      </trkpt>
      <trkpt lat="44.64848" lon="2.99892">
        <ele>1295.99</ele>
        <time>2012-04-28T08:53:19Z</time>
      </trkpt>
      <trkpt lat="44.64846" lon="2.99882">
        <ele>1296.96</ele>
        <time>2012-04-28T08:53:26Z</time>
      </trkpt>
      <trkpt lat="44.64842" lon="2.99863">
        <ele>1295.03</ele>
        <time>2012-04-28T08:53:37Z</time>
      </trkpt>
      <trkpt lat="44.64842" lon="2.99861">
        <ele>1293.59</ele>
        <time>2012-04-28T08:53:39Z</time>
      </trkpt>
      <trkpt lat="44.64838" lon="2.99839">
        <ele>1295.03</ele>
        <time>2012-04-28T08:53:52Z</time>
      </trkpt>
      <trkpt lat="44.64834" lon="2.99815">
        <ele>1292.63</ele>
        <time>2012-04-28T08:54:07Z</time>
      </trkpt>
      <trkpt lat="44.64832" lon="2.99802">
        <ele>1295.03</ele>
        <time>2012-04-28T08:54:14Z</time>
      </trkpt>
      <trkpt lat="44.64833" lon="2.99781">
        <ele>1297.92</ele>
        <time>2012-04-28T08:54:27Z</time>
      </trkpt>
      <trkpt lat="44.64832" lon="2.99776">
        <ele>1295.51</ele>
        <time>2012-04-28T08:54:30Z</time>
      </trkpt>
      <trkpt lat="44.64831" lon="2.99766">
        <ele>1295.51</ele>
        <time>2012-04-28T08:54:43Z</time>
      </trkpt>
      <trkpt lat="44.64829" lon="2.99763">
        <ele>1295.99</ele>
        <time>2012-04-28T08:54:46Z</time>
      </trkpt>
      <trkpt lat="44.64827" lon="2.99756">
        <ele>1294.07</ele>
        <time>2012-04-28T08:55:00Z</time>
      </trkpt>
      <trkpt lat="44.64827" lon="2.99756">
        <ele>1295.51</ele>
        <time>2012-04-28T08:55:03Z</time>
      </trkpt>
      <trkpt lat="44.64827" lon="2.99756">
        <ele>1294.55</ele>
        <time>2012-04-28T08:55:35Z</time>
      </trkpt>
      <trkpt lat="44.6483" lon="2.99742">
        <ele>1294.55</ele>
        <time>2012-04-28T08:55:49Z</time>
      </trkpt>
      <trkpt lat="44.64831" lon="2.99727">
        <ele>1294.55</ele>
        <time>2012-04-28T08:55:59Z</time>
      </trkpt>
      <trkpt lat="44.64832" lon="2.99723">
        <ele>1295.03</ele>
        <time>2012-04-28T08:56:02Z</time>
      </trkpt>
      <trkpt lat="44.64831" lon="2.99709">
        <ele>1295.03</ele>
        <time>2012-04-28T08:56:11Z</time>
      </trkpt>
      <trkpt lat="44.64832" lon="2.99702">
        <ele>1295.99</ele>
        <time>2012-04-28T08:56:16Z</time>
      </trkpt>
      <trkpt lat="44.64834" lon="2.99688">
        <ele>1295.99</ele>
        <time>2012-04-28T08:56:27Z</time>
      </trkpt>
      <trkpt lat="44.64836" lon="2.99676">
        <ele>1298.4</ele>
        <time>2012-04-28T08:56:37Z</time>
      </trkpt>
      <trkpt lat="44.64836" lon="2.9967">
        <ele>1298.4</ele>
        <time>2012-04-28T08:56:42Z</time>
      </trkpt>
      <trkpt lat="44.64839" lon="2.99652">
        <ele>1298.88</ele>
        <time>2012-04-28T08:56:55Z</time>
      </trkpt>
      <trkpt lat="44.64839" lon="2.99636">
        <ele>1298.88</ele>
        <time>2012-04-28T08:57:07Z</time>
      </trkpt>
      <trkpt lat="44.64842" lon="2.99614">
        <ele>1296.48</ele>
        <time>2012-04-28T08:57:21Z</time>
      </trkpt>
      <trkpt lat="44.64844" lon="2.99597">
        <ele>1300.32</ele>
        <time>2012-04-28T08:57:33Z</time>
      </trkpt>
      <trkpt lat="44.64844" lon="2.99588">
        <ele>1298.88</ele>
        <time>2012-04-28T08:57:39Z</time>
      </trkpt>
      <trkpt lat="44.64844" lon="2.99583">
        <ele>1299.36</ele>
        <time>2012-04-28T08:57:43Z</time>
      </trkpt>
      <trkpt lat="44.64844" lon="2.99566">
        <ele>1298.88</ele>
        <time>2012-04-28T08:57:56Z</time>
      </trkpt>
      <trkpt lat="44.64844" lon="2.9956">
        <ele>1299.36</ele>
        <time>2012-04-28T08:58:01Z</time>
      </trkpt>
      <trkpt lat="44.64844" lon="2.99556">
        <ele>1299.36</ele>
        <time>2012-04-28T08:58:05Z</time>
      </trkpt>
      <trkpt lat="44.64845" lon="2.99541">
        <ele>1298.4</ele>
        <time>2012-04-28T08:58:17Z</time>
      </trkpt>
      <trkpt lat="44.64845" lon="2.99523">
        <ele>1298.88</ele>
        <time>2012-04-28T08:58:29Z</time>
      </trkpt>
      <trkpt lat="44.64845" lon="2.99517">
        <ele>1299.36</ele>
        <time>2012-04-28T08:58:33Z</time>
      </trkpt>
      <trkpt lat="44.64844" lon="2.99514">
        <ele>1298.88</ele>
        <time>2012-04-28T08:58:35Z</time>
      </trkpt>
      <trkpt lat="44.64842" lon="2.99497">
        <ele>1301.28</ele>
        <time>2012-04-28T08:58:47Z</time>
      </trkpt>
      <trkpt lat="44.64842" lon="2.99484">
        <ele>1300.32</ele>
        <time>2012-04-28T08:59:00Z</time>
      </trkpt>
      <trkpt lat="44.64842" lon="2.99476">
        <ele>1300.8</ele>
        <time>2012-04-28T08:59:11Z</time>
      </trkpt>
      <trkpt lat="44.64842" lon="2.99474">
        <ele>1301.28</ele>
        <time>2012-04-28T08:59:13Z</time>
      </trkpt>
      <trkpt lat="44.64842" lon="2.99455">
        <ele>1301.76</ele>
        <time>2012-04-28T08:59:25Z</time>
      </trkpt>
      <trkpt lat="44.64842" lon="2.99451">
        <ele>1301.76</ele>
        <time>2012-04-28T08:59:28Z</time>
      </trkpt>
      <trkpt lat="44.64841" lon="2.99442">
        <ele>1303.2</ele>
        <time>2012-04-28T08:59:34Z</time>
      </trkpt>
      <trkpt lat="44.6484" lon="2.99437">
        <ele>1304.17</ele>
        <time>2012-04-28T08:59:38Z</time>
      </trkpt>
      <trkpt lat="44.64839" lon="2.99433">
        <ele>1303.69</ele>
        <time>2012-04-28T08:59:41Z</time>
      </trkpt>
      <trkpt lat="44.64838" lon="2.9943">
        <ele>1303.69</ele>
        <time>2012-04-28T08:59:56Z</time>
      </trkpt>
      <trkpt lat="44.64837" lon="2.99422">
        <ele>1304.65</ele>
        <time>2012-04-28T09:00:13Z</time>
      </trkpt>
      <trkpt lat="44.64837" lon="2.99418">
        <ele>1304.65</ele>
        <time>2012-04-28T09:00:23Z</time>
      </trkpt>
      <trkpt lat="44.64836" lon="2.99406">
        <ele>1305.13</ele>
        <time>2012-04-28T09:00:29Z</time>
      </trkpt>
      <trkpt lat="44.64835" lon="2.99395">
        <ele>1305.13</ele>
        <time>2012-04-28T09:00:35Z</time>
      </trkpt>
      <trkpt lat="44.64834" lon="2.99386">
        <ele>1304.65</ele>
        <time>2012-04-28T09:00:45Z</time>
      </trkpt>
      <trkpt lat="44.64834" lon="2.99379">
        <ele>1304.17</ele>
        <time>2012-04-28T09:00:51Z</time>
      </trkpt>
      <trkpt lat="44.64834" lon="2.99374">
        <ele>1303.69</ele>
        <time>2012-04-28T09:00:54Z</time>
      </trkpt>
      <trkpt lat="44.64834" lon="2.99368">
        <ele>1304.65</ele>
        <time>2012-04-28T09:00:57Z</time>
      </trkpt>
      <trkpt lat="44.64831" lon="2.99352">
        <ele>1304.65</ele>
        <time>2012-04-28T09:01:09Z</time>
      </trkpt>
      <trkpt lat="44.6483" lon="2.99348">
        <ele>1304.17</ele>
        <time>2012-04-28T09:01:12Z</time>
      </trkpt>
      <trkpt lat="44.64828" lon="2.99325">
        <ele>1304.65</ele>
        <time>2012-04-28T09:01:28Z</time>
      </trkpt>
      <trkpt lat="44.64827" lon="2.99317">
        <ele>1304.17</ele>
        <time>2012-04-28T09:01:33Z</time>
      </trkpt>
      <trkpt lat="44.64826" lon="2.99305">
        <ele>1305.13</ele>
        <time>2012-04-28T09:01:41Z</time>
      </trkpt>
      <trkpt lat="44.64826" lon="2.99305">
        <ele>1307.05</ele>
        <time>2012-04-28T09:01:44Z</time>
      </trkpt>
      <trkpt lat="44.64825" lon="2.99299">
        <ele>1305.13</ele>
        <time>2012-04-28T09:01:49Z</time>
      </trkpt>
      <trkpt lat="44.64825" lon="2.99285">
        <ele>1303.69</ele>
        <time>2012-04-28T09:01:58Z</time>
      </trkpt>
      <trkpt lat="44.64824" lon="2.9928">
        <ele>1305.13</ele>
        <time>2012-04-28T09:02:01Z</time>
      </trkpt>
      <trkpt lat="44.64822" lon="2.99277">
        <ele>1305.13</ele>
        <time>2012-04-28T09:02:04Z</time>
      </trkpt>
      <trkpt lat="44.64822" lon="2.99271">
        <ele>1306.09</ele>
        <time>2012-04-28T09:02:08Z</time>
      </trkpt>
      <trkpt lat="44.6482" lon="2.99264">
        <ele>1305.13</ele>
        <time>2012-04-28T09:02:13Z</time>
      </trkpt>
      <trkpt lat="44.64819" lon="2.99256">
        <ele>1306.57</ele>
        <time>2012-04-28T09:02:18Z</time>
      </trkpt>
      <trkpt lat="44.64819" lon="2.99253">
        <ele>1305.13</ele>
        <time>2012-04-28T09:02:20Z</time>
      </trkpt>
      <trkpt lat="44.64818" lon="2.99249">
        <ele>1306.57</ele>
        <time>2012-04-28T09:02:23Z</time>
      </trkpt>
      <trkpt lat="44.64818" lon="2.99245">
        <ele>1305.13</ele>
        <time>2012-04-28T09:02:26Z</time>
      </trkpt>
      <trkpt lat="44.64819" lon="2.99242">
        <ele>1306.57</ele>
        <time>2012-04-28T09:02:29Z</time>
      </trkpt>
      <trkpt lat="44.64819" lon="2.99237">
        <ele>1308.97</ele>
        <time>2012-04-28T09:02:32Z</time>
      </trkpt>
      <trkpt lat="44.64817" lon="2.99233">
        <ele>1307.05</ele>
        <time>2012-04-28T09:02:36Z</time>
      </trkpt>
      <trkpt lat="44.64818" lon="2.99227">
        <ele>1308.49</ele>
        <time>2012-04-28T09:02:41Z</time>
      </trkpt>
      <trkpt lat="44.64821" lon="2.99224">
        <ele>1308.49</ele>
        <time>2012-04-28T09:02:45Z</time>
      </trkpt>
      <trkpt lat="44.64822" lon="2.99216">
        <ele>1310.41</ele>
        <time>2012-04-28T09:02:53Z</time>
      </trkpt>
      <trkpt lat="44.64821" lon="2.99207">
        <ele>1310.9</ele>
        <time>2012-04-28T09:02:59Z</time>
      </trkpt>
      <trkpt lat="44.64819" lon="2.99205">
        <ele>1310.41</ele>
        <time>2012-04-28T09:03:01Z</time>
      </trkpt>
      <trkpt lat="44.64818" lon="2.99199">
        <ele>1311.86</ele>
        <time>2012-04-28T09:03:05Z</time>
      </trkpt>
      <trkpt lat="44.64818" lon="2.99192">
        <ele>1310.9</ele>
        <time>2012-04-28T09:03:08Z</time>
      </trkpt>
      <trkpt lat="44.64815" lon="2.99187">
        <ele>1311.38</ele>
        <time>2012-04-28T09:03:12Z</time>
      </trkpt>
      <trkpt lat="44.64814" lon="2.99182">
        <ele>1313.78</ele>
        <time>2012-04-28T09:03:16Z</time>
      </trkpt>
      <trkpt lat="44.64814" lon="2.99182">
        <ele>1310.41</ele>
        <time>2012-04-28T09:03:21Z</time>
      </trkpt>
      <trkpt lat="44.64814" lon="2.99182">
        <ele>1310.9</ele>
        <time>2012-04-28T09:03:22Z</time>
      </trkpt>
      <trkpt lat="44.64814" lon="2.99182">
        <ele>1308.97</ele>
        <time>2012-04-28T09:03:28Z</time>
      </trkpt>
      <trkpt lat="44.64814" lon="2.99182">
        <ele>1305.61</ele>
        <time>2012-04-28T09:03:29Z</time>
      </trkpt>
      <trkpt lat="44.64813" lon="2.99181">
        <ele>1309.93</ele>
        <time>2012-04-28T09:03:32Z</time>
      </trkpt>
      <trkpt lat="44.64812" lon="2.99179">
        <ele>1311.86</ele>
        <time>2012-04-28T09:03:35Z</time>
      </trkpt>
      <trkpt lat="44.64808" lon="2.9917">
        <ele>1308.97</ele>
        <time>2012-04-28T09:03:44Z</time>
      </trkpt>
      <trkpt lat="44.64806" lon="2.99167">
        <ele>1310.41</ele>
        <time>2012-04-28T09:03:48Z</time>
      </trkpt>
      <trkpt lat="44.64805" lon="2.99164">
        <ele>1310.9</ele>
        <time>2012-04-28T09:03:50Z</time>
      </trkpt>
      <trkpt lat="44.64803" lon="2.9916">
        <ele>1311.38</ele>
        <time>2012-04-28T09:03:54Z</time>
      </trkpt>
      <trkpt lat="44.64803" lon="2.99156">
        <ele>1313.3</ele>
        <time>2012-04-28T09:03:57Z</time>
      </trkpt>
      <trkpt lat="44.64803" lon="2.99155">
        <ele>1313.3</ele>
        <time>2012-04-28T09:03:58Z</time>
      </trkpt>
      <trkpt lat="44.648" lon="2.99147">
        <ele>1311.86</ele>
        <time>2012-04-28T09:04:05Z</time>
      </trkpt>
      <trkpt lat="44.64799" lon="2.99142">
        <ele>1311.38</ele>
        <time>2012-04-28T09:04:10Z</time>
      </trkpt>
      <trkpt lat="44.64794" lon="2.99136">
        <ele>1310.9</ele>
        <time>2012-04-28T09:04:19Z</time>
      </trkpt>
      <trkpt lat="44.64788" lon="2.99117">
        <ele>1311.86</ele>
        <time>2012-04-28T09:04:33Z</time>
      </trkpt>
      <trkpt lat="44.64786" lon="2.99114">
        <ele>1309.93</ele>
        <time>2012-04-28T09:04:37Z</time>
      </trkpt>
      <trkpt lat="44.64777" lon="2.99093">
        <ele>1310.41</ele>
        <time>2012-04-28T09:04:52Z</time>
      </trkpt>
      <trkpt lat="44.64776" lon="2.99088">
        <ele>1312.34</ele>
        <time>2012-04-28T09:04:56Z</time>
      </trkpt>
      <trkpt lat="44.64771" lon="2.9908">
        <ele>1311.86</ele>
        <time>2012-04-28T09:05:03Z</time>
      </trkpt>
      <trkpt lat="44.64769" lon="2.99073">
        <ele>1312.82</ele>
        <time>2012-04-28T09:05:08Z</time>
      </trkpt>
      <trkpt lat="44.64761" lon="2.99053">
        <ele>1315.22</ele>
        <time>2012-04-28T09:05:22Z</time>
      </trkpt>
      <trkpt lat="44.64754" lon="2.99041">
        <ele>1315.22</ele>
        <time>2012-04-28T09:05:34Z</time>
      </trkpt>
      <trkpt lat="44.6469" lon="2.9896">
        <ele>1319.55</ele>
        <time>2012-04-28T09:10:02Z</time>
      </trkpt>
      <trkpt lat="44.64692" lon="2.98961">
        <ele>1319.07</ele>
        <time>2012-04-28T09:10:03Z</time>
      </trkpt>
      <trkpt lat="44.6469" lon="2.98958">
        <ele>1318.1</ele>
        <time>2012-04-28T09:10:17Z</time>
      </trkpt>
      <trkpt lat="44.64689" lon="2.98956">
        <ele>1318.59</ele>
        <time>2012-04-28T09:10:31Z</time>
      </trkpt>
      <trkpt lat="44.64689" lon="2.98956">
        <ele>1313.78</ele>
        <time>2012-04-28T09:10:34Z</time>
      </trkpt>
      <trkpt lat="44.64689" lon="2.98956">
        <ele>1316.66</ele>
        <time>2012-04-28T09:10:37Z</time>
      </trkpt>
      <trkpt lat="44.64688" lon="2.98957">
        <ele>1316.18</ele>
        <time>2012-04-28T09:10:42Z</time>
      </trkpt>
      <trkpt lat="44.64685" lon="2.98956">
        <ele>1313.3</ele>
        <time>2012-04-28T09:10:49Z</time>
      </trkpt>
      <trkpt lat="44.64681" lon="2.98952">
        <ele>1316.66</ele>
        <time>2012-04-28T09:10:57Z</time>
      </trkpt>
      <trkpt lat="44.6468" lon="2.98951">
        <ele>1317.62</ele>
        <time>2012-04-28T09:10:58Z</time>
      </trkpt>
      <trkpt lat="44.64669" lon="2.98943">
        <ele>1316.18</ele>
        <time>2012-04-28T09:11:10Z</time>
      </trkpt>
      <trkpt lat="44.64657" lon="2.98931">
        <ele>1316.18</ele>
        <time>2012-04-28T09:11:25Z</time>
      </trkpt>
      <trkpt lat="44.64642" lon="2.98922">
        <ele>1315.7</ele>
        <time>2012-04-28T09:11:39Z</time>
      </trkpt>
      <trkpt lat="44.64632" lon="2.98913">
        <ele>1314.74</ele>
        <time>2012-04-28T09:11:49Z</time>
      </trkpt>
      <trkpt lat="44.64628" lon="2.98908">
        <ele>1314.74</ele>
        <time>2012-04-28T09:11:55Z</time>
      </trkpt>
      <trkpt lat="44.64622" lon="2.98901">
        <ele>1313.3</ele>
        <time>2012-04-28T09:12:03Z</time>
      </trkpt>
      <trkpt lat="44.64617" lon="2.98897">
        <ele>1314.74</ele>
        <time>2012-04-28T09:12:14Z</time>
      </trkpt>
      <trkpt lat="44.64616" lon="2.98895">
        <ele>1315.22</ele>
        <time>2012-04-28T09:12:31Z</time>
      </trkpt>
      <trkpt lat="44.64611" lon="2.98892">
        <ele>1314.74</ele>
        <time>2012-04-28T09:12:36Z</time>
      </trkpt>
      <trkpt lat="44.64609" lon="2.9889">
        <ele>1314.74</ele>
        <time>2012-04-28T09:12:38Z</time>
      </trkpt>
      <trkpt lat="44.64606" lon="2.98888">
        <ele>1315.22</ele>
        <time>2012-04-28T09:12:41Z</time>
      </trkpt>
      <trkpt lat="44.64602" lon="2.98885">
        <ele>1313.3</ele>
        <time>2012-04-28T09:12:45Z</time>
      </trkpt>
      <trkpt lat="44.64589" lon="2.98879">
        <ele>1312.34</ele>
        <time>2012-04-28T09:12:57Z</time>
      </trkpt>
      <trkpt lat="44.64586" lon="2.98877">
        <ele>1313.78</ele>
        <time>2012-04-28T09:13:00Z</time>
      </trkpt>
      <trkpt lat="44.64584" lon="2.98875">
        <ele>1314.74</ele>
        <time>2012-04-28T09:13:02Z</time>
      </trkpt>
      <trkpt lat="44.64582" lon="2.98874">
        <ele>1313.3</ele>
        <time>2012-04-28T09:13:04Z</time>
      </trkpt>
      <trkpt lat="44.64575" lon="2.98871">
        <ele>1312.82</ele>
        <time>2012-04-28T09:13:10Z</time>
      </trkpt>
      <trkpt lat="44.64574" lon="2.9887">
        <ele>1314.74</ele>
        <time>2012-04-28T09:13:11Z</time>
      </trkpt>
      <trkpt lat="44.64569" lon="2.98865">
        <ele>1311.38</ele>
        <time>2012-04-28T09:13:17Z</time>
      </trkpt>
      <trkpt lat="44.64563" lon="2.98861">
        <ele>1311.86</ele>
        <time>2012-04-28T09:13:22Z</time>
      </trkpt>
      <trkpt lat="44.64562" lon="2.98859">
        <ele>1313.3</ele>
        <time>2012-04-28T09:13:24Z</time>
      </trkpt>
      <trkpt lat="44.64559" lon="2.98855">
        <ele>1313.3</ele>
        <time>2012-04-28T09:13:28Z</time>
      </trkpt>
      <trkpt lat="44.64553" lon="2.98851">
        <ele>1310.9</ele>
        <time>2012-04-28T09:13:35Z</time>
      </trkpt>
      <trkpt lat="44.64552" lon="2.9885">
        <ele>1311.86</ele>
        <time>2012-04-28T09:13:37Z</time>
      </trkpt>
      <trkpt lat="44.64551" lon="2.98845">
        <ele>1310.9</ele>
        <time>2012-04-28T09:13:41Z</time>
      </trkpt>
      <trkpt lat="44.64548" lon="2.98842">
        <ele>1308.97</ele>
        <time>2012-04-28T09:13:48Z</time>
      </trkpt>
      <trkpt lat="44.64545" lon="2.98841">
        <ele>1309.93</ele>
        <time>2012-04-28T09:13:53Z</time>
      </trkpt>
      <trkpt lat="44.6454" lon="2.9884">
        <ele>1308.49</ele>
        <time>2012-04-28T09:13:58Z</time>
      </trkpt>
      <trkpt lat="44.64536" lon="2.98837">
        <ele>1307.53</ele>
        <time>2012-04-28T09:14:05Z</time>
      </trkpt>
      <trkpt lat="44.64534" lon="2.98838">
        <ele>1308.49</ele>
        <time>2012-04-28T09:14:09Z</time>
      </trkpt>
      <trkpt lat="44.64531" lon="2.98836">
        <ele>1308.97</ele>
        <time>2012-04-28T09:14:12Z</time>
      </trkpt>
      <trkpt lat="44.64528" lon="2.98836">
        <ele>1308.97</ele>
        <time>2012-04-28T09:14:15Z</time>
      </trkpt>
      <trkpt lat="44.64514" lon="2.98831">
        <ele>1308.49</ele>
        <time>2012-04-28T09:14:28Z</time>
      </trkpt>
      <trkpt lat="44.64504" lon="2.98829">
        <ele>1308.01</ele>
        <time>2012-04-28T09:14:41Z</time>
      </trkpt>
      <trkpt lat="44.64503" lon="2.98829">
        <ele>1308.01</ele>
        <time>2012-04-28T09:14:42Z</time>
      </trkpt>
      <trkpt lat="44.645" lon="2.9883">
        <ele>1307.05</ele>
        <time>2012-04-28T09:14:45Z</time>
      </trkpt>
      <trkpt lat="44.64498" lon="2.98831">
        <ele>1308.01</ele>
        <time>2012-04-28T09:14:48Z</time>
      </trkpt>
      <trkpt lat="44.64493" lon="2.98829">
        <ele>1307.53</ele>
        <time>2012-04-28T09:14:56Z</time>
      </trkpt>
      <trkpt lat="44.64499" lon="2.98823">
        <ele>1308.97</ele>
        <time>2012-04-28T09:15:05Z</time>
      </trkpt>
      <trkpt lat="44.64503" lon="2.98817">
        <ele>1307.53</ele>
        <time>2012-04-28T09:15:15Z</time>
      </trkpt>
      <trkpt lat="44.64502" lon="2.98816">
        <ele>1309.45</ele>
        <time>2012-04-28T09:15:17Z</time>
      </trkpt>
      <trkpt lat="44.64502" lon="2.98814">
        <ele>1308.49</ele>
        <time>2012-04-28T09:15:19Z</time>
      </trkpt>
      <trkpt lat="44.64498" lon="2.98812">
        <ele>1310.41</ele>
        <time>2012-04-28T09:15:29Z</time>
      </trkpt>
      <trkpt lat="44.64491" lon="2.98806">
        <ele>1311.38</ele>
        <time>2012-04-28T09:15:39Z</time>
      </trkpt>
      <trkpt lat="44.64491" lon="2.98805">
        <ele>1310.9</ele>
        <time>2012-04-28T09:15:40Z</time>
      </trkpt>
      <trkpt lat="44.6449" lon="2.98801">
        <ele>1310.41</ele>
        <time>2012-04-28T09:15:45Z</time>
      </trkpt>
      <trkpt lat="44.64489" lon="2.98799">
        <ele>1311.38</ele>
        <time>2012-04-28T09:15:56Z</time>
      </trkpt>
      <trkpt lat="44.64487" lon="2.98795">
        <ele>1312.34</ele>
        <time>2012-04-28T09:16:09Z</time>
      </trkpt>
      <trkpt lat="44.64486" lon="2.98795">
        <ele>1309.45</ele>
        <time>2012-04-28T09:16:14Z</time>
      </trkpt>
      <trkpt lat="44.64486" lon="2.98795">
        <ele>1312.82</ele>
        <time>2012-04-28T09:16:16Z</time>
      </trkpt>
      <trkpt lat="44.64486" lon="2.98794">
        <ele>1311.86</ele>
        <time>2012-04-28T09:16:17Z</time>
      </trkpt>
      <trkpt lat="44.64485" lon="2.98792">
        <ele>1308.49</ele>
        <time>2012-04-28T09:16:24Z</time>
      </trkpt>
      <trkpt lat="44.64485" lon="2.98792">
        <ele>1313.3</ele>
        <time>2012-04-28T09:16:25Z</time>
      </trkpt>
      <trkpt lat="44.64483" lon="2.98791">
        <ele>1312.34</ele>
        <time>2012-04-28T09:16:27Z</time>
      </trkpt>
      <trkpt lat="44.64482" lon="2.98788">
        <ele>1312.82</ele>
        <time>2012-04-28T09:16:30Z</time>
      </trkpt>
      <trkpt lat="44.64478" lon="2.98785">
        <ele>1313.3</ele>
        <time>2012-04-28T09:16:34Z</time>
      </trkpt>
      <trkpt lat="44.64473" lon="2.98784">
        <ele>1313.78</ele>
        <time>2012-04-28T09:16:39Z</time>
      </trkpt>
      <trkpt lat="44.6447" lon="2.98779">
        <ele>1314.26</ele>
        <time>2012-04-28T09:16:45Z</time>
      </trkpt>
      <trkpt lat="44.64469" lon="2.98776">
        <ele>1313.3</ele>
        <time>2012-04-28T09:16:48Z</time>
      </trkpt>
      <trkpt lat="44.64467" lon="2.98772">
        <ele>1316.66</ele>
        <time>2012-04-28T09:16:51Z</time>
      </trkpt>
      <trkpt lat="44.64466" lon="2.98771">
        <ele>1317.14</ele>
        <time>2012-04-28T09:16:52Z</time>
      </trkpt>
      <trkpt lat="44.64465" lon="2.98766">
        <ele>1315.7</ele>
        <time>2012-04-28T09:16:57Z</time>
      </trkpt>
      <trkpt lat="44.64464" lon="2.9876">
        <ele>1317.14</ele>
        <time>2012-04-28T09:17:02Z</time>
      </trkpt>
      <trkpt lat="44.64464" lon="2.98758">
        <ele>1316.66</ele>
        <time>2012-04-28T09:17:17Z</time>
      </trkpt>
      <trkpt lat="44.64462" lon="2.98753">
        <ele>1319.07</ele>
        <time>2012-04-28T09:17:24Z</time>
      </trkpt>
      <trkpt lat="44.64459" lon="2.98748">
        <ele>1316.18</ele>
        <time>2012-04-28T09:17:29Z</time>
      </trkpt>
      <trkpt lat="44.64456" lon="2.98741">
        <ele>1320.99</ele>
        <time>2012-04-28T09:17:34Z</time>
      </trkpt>
      <trkpt lat="44.64455" lon="2.9874">
        <ele>1317.62</ele>
        <time>2012-04-28T09:17:35Z</time>
      </trkpt>
      <trkpt lat="44.64455" lon="2.98738">
        <ele>1317.14</ele>
        <time>2012-04-28T09:17:37Z</time>
      </trkpt>
      <trkpt lat="44.64448" lon="2.9872">
        <ele>1316.66</ele>
        <time>2012-04-28T09:17:52Z</time>
      </trkpt>
      <trkpt lat="44.64437" lon="2.98699">
        <ele>1317.14</ele>
        <time>2012-04-28T09:18:09Z</time>
      </trkpt>
      <trkpt lat="44.64432" lon="2.98689">
        <ele>1316.66</ele>
        <time>2012-04-28T09:18:24Z</time>
      </trkpt>
      <trkpt lat="44.64427" lon="2.98676">
        <ele>1316.18</ele>
        <time>2012-04-28T09:18:37Z</time>
      </trkpt>
      <trkpt lat="44.64426" lon="2.98674">
        <ele>1315.22</ele>
        <time>2012-04-28T09:18:39Z</time>
      </trkpt>
      <trkpt lat="44.64421" lon="2.98667">
        <ele>1315.22</ele>
        <time>2012-04-28T09:18:47Z</time>
      </trkpt>
      <trkpt lat="44.6442" lon="2.98657">
        <ele>1314.26</ele>
        <time>2012-04-28T09:18:55Z</time>
      </trkpt>
      <trkpt lat="44.64414" lon="2.98643">
        <ele>1313.78</ele>
        <time>2012-04-28T09:19:09Z</time>
      </trkpt>
      <trkpt lat="44.64411" lon="2.98642">
        <ele>1314.74</ele>
        <time>2012-04-28T09:19:19Z</time>
      </trkpt>
      <trkpt lat="44.64411" lon="2.98642">
        <ele>1313.3</ele>
        <time>2012-04-28T09:19:21Z</time>
      </trkpt>
      <trkpt lat="44.64411" lon="2.98642">
        <ele>1313.78</ele>
        <time>2012-04-28T09:19:30Z</time>
      </trkpt>
      <trkpt lat="44.64411" lon="2.98641">
        <ele>1314.26</ele>
        <time>2012-04-28T09:19:49Z</time>
      </trkpt>
      <trkpt lat="44.6441" lon="2.98642">
        <ele>1313.3</ele>
        <time>2012-04-28T09:19:52Z</time>
      </trkpt>
      <trkpt lat="44.644" lon="2.98643">
        <ele>1312.82</ele>
        <time>2012-04-28T09:20:04Z</time>
      </trkpt>
      <trkpt lat="44.64395" lon="2.98644">
        <ele>1313.78</ele>
        <time>2012-04-28T09:20:08Z</time>
      </trkpt>
      <trkpt lat="44.64386" lon="2.98647">
        <ele>1312.34</ele>
        <time>2012-04-28T09:20:18Z</time>
      </trkpt>
      <trkpt lat="44.64384" lon="2.98647">
        <ele>1312.82</ele>
        <time>2012-04-28T09:20:20Z</time>
      </trkpt>
      <trkpt lat="44.64379" lon="2.98649">
        <ele>1313.78</ele>
        <time>2012-04-28T09:20:28Z</time>
      </trkpt>
      <trkpt lat="44.64377" lon="2.9865">
        <ele>1312.82</ele>
        <time>2012-04-28T09:20:30Z</time>
      </trkpt>
      <trkpt lat="44.64376" lon="2.9865">
        <ele>1312.34</ele>
        <time>2012-04-28T09:20:32Z</time>
      </trkpt>
      <trkpt lat="44.6437" lon="2.98651">
        <ele>1313.78</ele>
        <time>2012-04-28T09:20:36Z</time>
      </trkpt>
      <trkpt lat="44.64362" lon="2.98656">
        <ele>1313.78</ele>
        <time>2012-04-28T09:20:45Z</time>
      </trkpt>
      <trkpt lat="44.64355" lon="2.98658">
        <ele>1315.22</ele>
        <time>2012-04-28T09:20:52Z</time>
      </trkpt>
      <trkpt lat="44.64353" lon="2.9866">
        <ele>1313.78</ele>
        <time>2012-04-28T09:20:54Z</time>
      </trkpt>
      <trkpt lat="44.64347" lon="2.98662">
        <ele>1316.66</ele>
        <time>2012-04-28T09:21:01Z</time>
      </trkpt>
      <trkpt lat="44.64341" lon="2.98664">
        <ele>1313.3</ele>
        <time>2012-04-28T09:21:07Z</time>
      </trkpt>
      <trkpt lat="44.64339" lon="2.98664">
        <ele>1314.74</ele>
        <time>2012-04-28T09:21:10Z</time>
      </trkpt>
      <trkpt lat="44.64334" lon="2.98664">
        <ele>1312.34</ele>
        <time>2012-04-28T09:21:18Z</time>
      </trkpt>
      <trkpt lat="44.64334" lon="2.98663">
        <ele>1312.82</ele>
        <time>2012-04-28T09:21:32Z</time>
      </trkpt>
      <trkpt lat="44.64333" lon="2.98662">
        <ele>1314.26</ele>
        <time>2012-04-28T09:21:34Z</time>
      </trkpt>
      <trkpt lat="44.64333" lon="2.98662">
        <ele>1312.34</ele>
        <time>2012-04-28T09:21:58Z</time>
      </trkpt>
      <trkpt lat="44.64333" lon="2.98662">
        <ele>1312.82</ele>
        <time>2012-04-28T09:22:21Z</time>
      </trkpt>
      <trkpt lat="44.64333" lon="2.98662">
        <ele>1313.3</ele>
        <time>2012-04-28T09:22:40Z</time>
      </trkpt>
      <trkpt lat="44.64333" lon="2.98662">
        <ele>1312.34</ele>
        <time>2012-04-28T09:23:08Z</time>
      </trkpt>
      <trkpt lat="44.64333" lon="2.98662">
        <ele>1308.01</ele>
        <time>2012-04-28T09:23:20Z</time>
      </trkpt>
      <trkpt lat="44.64333" lon="2.98662">
        <ele>1311.86</ele>
        <time>2012-04-28T09:23:21Z</time>
      </trkpt>
      <trkpt lat="44.64332" lon="2.98662">
        <ele>1310.41</ele>
        <time>2012-04-28T09:27:33Z</time>
      </trkpt>
      <trkpt lat="44.6433" lon="2.98663">
        <ele>1312.34</ele>
        <time>2012-04-28T09:27:35Z</time>
      </trkpt>
      <trkpt lat="44.64326" lon="2.98665">
        <ele>1310.41</ele>
        <time>2012-04-28T09:27:45Z</time>
      </trkpt>
      <trkpt lat="44.64325" lon="2.98668">
        <ele>1312.34</ele>
        <time>2012-04-28T09:27:48Z</time>
      </trkpt>
      <trkpt lat="44.64323" lon="2.9867">
        <ele>1314.26</ele>
        <time>2012-04-28T09:27:55Z</time>
      </trkpt>
      <trkpt lat="44.64321" lon="2.98671">
        <ele>1314.26</ele>
        <time>2012-04-28T09:27:57Z</time>
      </trkpt>
      <trkpt lat="44.6432" lon="2.98673">
        <ele>1311.38</ele>
        <time>2012-04-28T09:28:01Z</time>
      </trkpt>
      <trkpt lat="44.64319" lon="2.98673">
        <ele>1310.9</ele>
        <time>2012-04-28T09:28:02Z</time>
      </trkpt>
      <trkpt lat="44.64319" lon="2.98673">
        <ele>1314.26</ele>
        <time>2012-04-28T09:28:04Z</time>
      </trkpt>
      <trkpt lat="44.6432" lon="2.98673">
        <ele>1316.18</ele>
        <time>2012-04-28T09:28:06Z</time>
      </trkpt>
      <trkpt lat="44.6432" lon="2.98673">
        <ele>1312.82</ele>
        <time>2012-04-28T09:28:07Z</time>
      </trkpt>
      <trkpt lat="44.6432" lon="2.98674">
        <ele>1311.86</ele>
        <time>2012-04-28T09:28:09Z</time>
      </trkpt>
      <trkpt lat="44.64317" lon="2.98676">
        <ele>1310.9</ele>
        <time>2012-04-28T09:28:16Z</time>
      </trkpt>
      <trkpt lat="44.64315" lon="2.98676">
        <ele>1312.34</ele>
        <time>2012-04-28T09:28:20Z</time>
      </trkpt>
      <trkpt lat="44.64313" lon="2.98676">
        <ele>1311.86</ele>
        <time>2012-04-28T09:28:22Z</time>
      </trkpt>
      <trkpt lat="44.64294" lon="2.98685">
        <ele>1311.86</ele>
        <time>2012-04-28T09:28:38Z</time>
      </trkpt>
      <trkpt lat="44.64279" lon="2.98692">
        <ele>1313.78</ele>
        <time>2012-04-28T09:28:50Z</time>
      </trkpt>
      <trkpt lat="44.64277" lon="2.98695">
        <ele>1309.93</ele>
        <time>2012-04-28T09:28:54Z</time>
      </trkpt>
      <trkpt lat="44.64277" lon="2.98698">
        <ele>1306.57</ele>
        <time>2012-04-28T09:28:57Z</time>
      </trkpt>
      <trkpt lat="44.64276" lon="2.98698">
        <ele>1306.09</ele>
        <time>2012-04-28T09:28:58Z</time>
      </trkpt>
      <trkpt lat="44.64268" lon="2.987">
        <ele>1310.9</ele>
        <time>2012-04-28T09:29:06Z</time>
      </trkpt>
      <trkpt lat="44.64264" lon="2.987">
        <ele>1313.3</ele>
        <time>2012-04-28T09:29:09Z</time>
      </trkpt>
      <trkpt lat="44.64246" lon="2.98708">
        <ele>1312.82</ele>
        <time>2012-04-28T09:29:22Z</time>
      </trkpt>
      <trkpt lat="44.6424" lon="2.98713">
        <ele>1309.93</ele>
        <time>2012-04-28T09:29:27Z</time>
      </trkpt>
      <trkpt lat="44.64232" lon="2.98718">
        <ele>1312.82</ele>
        <time>2012-04-28T09:29:33Z</time>
      </trkpt>
      <trkpt lat="44.64228" lon="2.9872">
        <ele>1304.65</ele>
        <time>2012-04-28T09:29:36Z</time>
      </trkpt>
      <trkpt lat="44.64225" lon="2.98721">
        <ele>1308.97</ele>
        <time>2012-04-28T09:29:39Z</time>
      </trkpt>
      <trkpt lat="44.64224" lon="2.98721">
        <ele>1309.45</ele>
        <time>2012-04-28T09:29:40Z</time>
      </trkpt>
      <trkpt lat="44.64223" lon="2.98721">
        <ele>1309.45</ele>
        <time>2012-04-28T09:29:41Z</time>
      </trkpt>
      <trkpt lat="44.64207" lon="2.98732">
        <ele>1306.09</ele>
        <time>2012-04-28T09:29:54Z</time>
      </trkpt>
      <trkpt lat="44.64196" lon="2.98734">
        <ele>1306.09</ele>
        <time>2012-04-28T09:30:02Z</time>
      </trkpt>
      <trkpt lat="44.64186" lon="2.98742">
        <ele>1306.09</ele>
        <time>2012-04-28T09:30:11Z</time>
      </trkpt>
      <trkpt lat="44.64184" lon="2.98742">
        <ele>1306.09</ele>
        <time>2012-04-28T09:30:12Z</time>
      </trkpt>
      <trkpt lat="44.64179" lon="2.98743">
        <ele>1306.09</ele>
        <time>2012-04-28T09:30:17Z</time>
      </trkpt>
      <trkpt lat="44.64165" lon="2.98747">
        <ele>1308.01</ele>
        <time>2012-04-28T09:30:27Z</time>
      </trkpt>
      <trkpt lat="44.64163" lon="2.98748">
        <ele>1307.05</ele>
        <time>2012-04-28T09:30:29Z</time>
      </trkpt>
      <trkpt lat="44.64155" lon="2.98753">
        <ele>1306.57</ele>
        <time>2012-04-28T09:30:35Z</time>
      </trkpt>
      <trkpt lat="44.64144" lon="2.98756">
        <ele>1301.76</ele>
        <time>2012-04-28T09:30:43Z</time>
      </trkpt>
      <trkpt lat="44.64133" lon="2.9876">
        <ele>1300.8</ele>
        <time>2012-04-28T09:30:53Z</time>
      </trkpt>
      <trkpt lat="44.64131" lon="2.98762">
        <ele>1302.24</ele>
        <time>2012-04-28T09:30:56Z</time>
      </trkpt>
      <trkpt lat="44.64131" lon="2.98763">
        <ele>1302.24</ele>
        <time>2012-04-28T09:30:57Z</time>
      </trkpt>
      <trkpt lat="44.64125" lon="2.9877">
        <ele>1303.69</ele>
        <time>2012-04-28T09:31:05Z</time>
      </trkpt>
      <trkpt lat="44.64122" lon="2.98773">
        <ele>1302.72</ele>
        <time>2012-04-28T09:31:19Z</time>
      </trkpt>
      <trkpt lat="44.64119" lon="2.98776">
        <ele>1305.13</ele>
        <time>2012-04-28T09:31:39Z</time>
      </trkpt>
      <trkpt lat="44.64115" lon="2.98782">
        <ele>1306.09</ele>
        <time>2012-04-28T09:31:43Z</time>
      </trkpt>
      <trkpt lat="44.64108" lon="2.98788">
        <ele>1307.05</ele>
        <time>2012-04-28T09:31:50Z</time>
      </trkpt>
      <trkpt lat="44.64105" lon="2.98792">
        <ele>1308.49</ele>
        <time>2012-04-28T09:31:54Z</time>
      </trkpt>
      <trkpt lat="44.64103" lon="2.98796">
        <ele>1307.53</ele>
        <time>2012-04-28T09:31:57Z</time>
      </trkpt>
      <trkpt lat="44.64101" lon="2.98802">
        <ele>1308.49</ele>
        <time>2012-04-28T09:32:01Z</time>
      </trkpt>
      <trkpt lat="44.64099" lon="2.98804">
        <ele>1308.49</ele>
        <time>2012-04-28T09:32:03Z</time>
      </trkpt>
      <trkpt lat="44.64096" lon="2.98811">
        <ele>1310.41</ele>
        <time>2012-04-28T09:32:09Z</time>
      </trkpt>
      <trkpt lat="44.64094" lon="2.98813">
        <ele>1310.9</ele>
        <time>2012-04-28T09:32:14Z</time>
      </trkpt>
      <trkpt lat="44.6409" lon="2.98816">
        <ele>1311.38</ele>
        <time>2012-04-28T09:32:18Z</time>
      </trkpt>
      <trkpt lat="44.64086" lon="2.98822">
        <ele>1309.45</ele>
        <time>2012-04-28T09:32:23Z</time>
      </trkpt>
      <trkpt lat="44.64083" lon="2.98825">
        <ele>1311.38</ele>
        <time>2012-04-28T09:32:26Z</time>
      </trkpt>
      <trkpt lat="44.64079" lon="2.98831">
        <ele>1311.86</ele>
        <time>2012-04-28T09:32:30Z</time>
      </trkpt>
      <trkpt lat="44.64068" lon="2.98839">
        <ele>1311.38</ele>
        <time>2012-04-28T09:32:43Z</time>
      </trkpt>
      <trkpt lat="44.64065" lon="2.98842">
        <ele>1311.38</ele>
        <time>2012-04-28T09:32:46Z</time>
      </trkpt>
      <trkpt lat="44.64053" lon="2.98851">
        <ele>1314.74</ele>
        <time>2012-04-28T09:32:59Z</time>
      </trkpt>
      <trkpt lat="44.64052" lon="2.98852">
        <ele>1314.26</ele>
        <time>2012-04-28T09:33:00Z</time>
      </trkpt>
      <trkpt lat="44.64052" lon="2.98853">
        <ele>1312.82</ele>
        <time>2012-04-28T09:33:01Z</time>
      </trkpt>
      <trkpt lat="44.64044" lon="2.9886">
        <ele>1314.26</ele>
        <time>2012-04-28T09:33:11Z</time>
      </trkpt>
      <trkpt lat="44.64041" lon="2.98861">
        <ele>1314.74</ele>
        <time>2012-04-28T09:33:14Z</time>
      </trkpt>
      <trkpt lat="44.64035" lon="2.98866">
        <ele>1314.74</ele>
        <time>2012-04-28T09:33:21Z</time>
      </trkpt>
      <trkpt lat="44.6403" lon="2.98869">
        <ele>1315.22</ele>
        <time>2012-04-28T09:33:26Z</time>
      </trkpt>
      <trkpt lat="44.64026" lon="2.9887">
        <ele>1314.74</ele>
        <time>2012-04-28T09:33:30Z</time>
      </trkpt>
      <trkpt lat="44.64022" lon="2.98872">
        <ele>1315.7</ele>
        <time>2012-04-28T09:33:34Z</time>
      </trkpt>
      <trkpt lat="44.64019" lon="2.98874">
        <ele>1317.14</ele>
        <time>2012-04-28T09:33:41Z</time>
      </trkpt>
      <trkpt lat="44.64016" lon="2.98876">
        <ele>1317.14</ele>
        <time>2012-04-28T09:33:46Z</time>
      </trkpt>
      <trkpt lat="44.64" lon="2.98886">
        <ele>1317.62</ele>
        <time>2012-04-28T09:33:59Z</time>
      </trkpt>
      <trkpt lat="44.63996" lon="2.98888">
        <ele>1318.59</ele>
        <time>2012-04-28T09:34:03Z</time>
      </trkpt>
      <trkpt lat="44.63985" lon="2.98896">
        <ele>1320.51</ele>
        <time>2012-04-28T09:34:14Z</time>
      </trkpt>
      <trkpt lat="44.63973" lon="2.98903">
        <ele>1318.59</ele>
        <time>2012-04-28T09:34:25Z</time>
      </trkpt>
      <trkpt lat="44.63968" lon="2.98907">
        <ele>1319.55</ele>
        <time>2012-04-28T09:34:30Z</time>
      </trkpt>
      <trkpt lat="44.63958" lon="2.98914">
        <ele>1322.43</ele>
        <time>2012-04-28T09:34:38Z</time>
      </trkpt>
      <trkpt lat="44.63949" lon="2.98919">
        <ele>1321.95</ele>
        <time>2012-04-28T09:34:46Z</time>
      </trkpt>
      <trkpt lat="44.63942" lon="2.98925">
        <ele>1322.43</ele>
        <time>2012-04-28T09:34:55Z</time>
      </trkpt>
      <trkpt lat="44.63929" lon="2.98936">
        <ele>1321.95</ele>
        <time>2012-04-28T09:35:07Z</time>
      </trkpt>
      <trkpt lat="44.63926" lon="2.98938">
        <ele>1323.39</ele>
        <time>2012-04-28T09:35:10Z</time>
      </trkpt>
      <trkpt lat="44.63922" lon="2.98941">
        <ele>1323.39</ele>
        <time>2012-04-28T09:35:15Z</time>
      </trkpt>
      <trkpt lat="44.6392" lon="2.98942">
        <ele>1323.39</ele>
        <time>2012-04-28T09:35:17Z</time>
      </trkpt>
      <trkpt lat="44.63917" lon="2.98945">
        <ele>1323.39</ele>
        <time>2012-04-28T09:35:21Z</time>
      </trkpt>
      <trkpt lat="44.63911" lon="2.98951">
        <ele>1325.31</ele>
        <time>2012-04-28T09:35:28Z</time>
      </trkpt>
      <trkpt lat="44.6391" lon="2.98951">
        <ele>1325.8</ele>
        <time>2012-04-28T09:35:29Z</time>
      </trkpt>
      <trkpt lat="44.63906" lon="2.98954">
        <ele>1325.8</ele>
        <time>2012-04-28T09:35:33Z</time>
      </trkpt>
      <trkpt lat="44.63901" lon="2.98958">
        <ele>1325.31</ele>
        <time>2012-04-28T09:35:39Z</time>
      </trkpt>
      <trkpt lat="44.63897" lon="2.98963">
        <ele>1324.83</ele>
        <time>2012-04-28T09:35:44Z</time>
      </trkpt>
      <trkpt lat="44.63894" lon="2.98966">
        <ele>1326.28</ele>
        <time>2012-04-28T09:35:47Z</time>
      </trkpt>
      <trkpt lat="44.63891" lon="2.98972">
        <ele>1327.72</ele>
        <time>2012-04-28T09:35:52Z</time>
      </trkpt>
      <trkpt lat="44.63885" lon="2.98976">
        <ele>1327.72</ele>
        <time>2012-04-28T09:35:58Z</time>
      </trkpt>
      <trkpt lat="44.63877" lon="2.9898">
        <ele>1329.64</ele>
        <time>2012-04-28T09:36:06Z</time>
      </trkpt>
      <trkpt lat="44.63871" lon="2.98985">
        <ele>1330.12</ele>
        <time>2012-04-28T09:36:13Z</time>
      </trkpt>
      <trkpt lat="44.63868" lon="2.98988">
        <ele>1330.12</ele>
        <time>2012-04-28T09:36:17Z</time>
      </trkpt>
      <trkpt lat="44.6386" lon="2.98995">
        <ele>1330.12</ele>
        <time>2012-04-28T09:36:27Z</time>
      </trkpt>
      <trkpt lat="44.63858" lon="2.98995">
        <ele>1330.12</ele>
        <time>2012-04-28T09:36:29Z</time>
      </trkpt>
      <trkpt lat="44.6385" lon="2.99">
        <ele>1330.6</ele>
        <time>2012-04-28T09:36:37Z</time>
      </trkpt>
      <trkpt lat="44.63842" lon="2.99005">
        <ele>1331.56</ele>
        <time>2012-04-28T09:36:47Z</time>
      </trkpt>
      <trkpt lat="44.6384" lon="2.99008">
        <ele>1332.04</ele>
        <time>2012-04-28T09:36:50Z</time>
      </trkpt>
      <trkpt lat="44.63836" lon="2.99013">
        <ele>1333.49</ele>
        <time>2012-04-28T09:36:55Z</time>
      </trkpt>
      <trkpt lat="44.63829" lon="2.99018">
        <ele>1333.49</ele>
        <time>2012-04-28T09:37:03Z</time>
      </trkpt>
      <trkpt lat="44.63826" lon="2.99019">
        <ele>1335.41</ele>
        <time>2012-04-28T09:37:06Z</time>
      </trkpt>
      <trkpt lat="44.63822" lon="2.99022">
        <ele>1335.41</ele>
        <time>2012-04-28T09:37:11Z</time>
      </trkpt>
      <trkpt lat="44.63815" lon="2.99025">
        <ele>1334.93</ele>
        <time>2012-04-28T09:37:17Z</time>
      </trkpt>
      <trkpt lat="44.6381" lon="2.99029">
        <ele>1334.93</ele>
        <time>2012-04-28T09:37:23Z</time>
      </trkpt>
      <trkpt lat="44.63805" lon="2.9903">
        <ele>1335.89</ele>
        <time>2012-04-28T09:37:28Z</time>
      </trkpt>
      <trkpt lat="44.63801" lon="2.99034">
        <ele>1335.41</ele>
        <time>2012-04-28T09:37:32Z</time>
      </trkpt>
      <trkpt lat="44.638" lon="2.99036">
        <ele>1334.93</ele>
        <time>2012-04-28T09:37:34Z</time>
      </trkpt>
      <trkpt lat="44.63794" lon="2.99038">
        <ele>1336.85</ele>
        <time>2012-04-28T09:37:40Z</time>
      </trkpt>
      <trkpt lat="44.63791" lon="2.99039">
        <ele>1338.29</ele>
        <time>2012-04-28T09:37:43Z</time>
      </trkpt>
      <trkpt lat="44.6379" lon="2.99041">
        <ele>1336.37</ele>
        <time>2012-04-28T09:37:45Z</time>
      </trkpt>
      <trkpt lat="44.63788" lon="2.99041">
        <ele>1336.37</ele>
        <time>2012-04-28T09:37:47Z</time>
      </trkpt>
      <trkpt lat="44.63781" lon="2.99045">
        <ele>1339.73</ele>
        <time>2012-04-28T09:37:56Z</time>
      </trkpt>
      <trkpt lat="44.6378" lon="2.99047">
        <ele>1339.73</ele>
        <time>2012-04-28T09:37:58Z</time>
      </trkpt>
      <trkpt lat="44.63776" lon="2.99052">
        <ele>1342.62</ele>
        <time>2012-04-28T09:38:04Z</time>
      </trkpt>
      <trkpt lat="44.63773" lon="2.99056">
        <ele>1340.22</ele>
        <time>2012-04-28T09:38:07Z</time>
      </trkpt>
      <trkpt lat="44.63772" lon="2.99057">
        <ele>1340.7</ele>
        <time>2012-04-28T09:38:08Z</time>
      </trkpt>
      <trkpt lat="44.6377" lon="2.9906">
        <ele>1342.14</ele>
        <time>2012-04-28T09:38:11Z</time>
      </trkpt>
      <trkpt lat="44.6377" lon="2.99061">
        <ele>1341.18</ele>
        <time>2012-04-28T09:38:12Z</time>
      </trkpt>
      <trkpt lat="44.63761" lon="2.99069">
        <ele>1343.1</ele>
        <time>2012-04-28T09:38:23Z</time>
      </trkpt>
      <trkpt lat="44.63755" lon="2.99076">
        <ele>1344.06</ele>
        <time>2012-04-28T09:38:31Z</time>
      </trkpt>
      <trkpt lat="44.63752" lon="2.9908">
        <ele>1340.7</ele>
        <time>2012-04-28T09:38:35Z</time>
      </trkpt>
      <trkpt lat="44.63752" lon="2.99081">
        <ele>1340.7</ele>
        <time>2012-04-28T09:38:36Z</time>
      </trkpt>
      <trkpt lat="44.63751" lon="2.99084">
        <ele>1342.14</ele>
        <time>2012-04-28T09:38:38Z</time>
      </trkpt>
      <trkpt lat="44.63748" lon="2.99088">
        <ele>1342.62</ele>
        <time>2012-04-28T09:38:44Z</time>
      </trkpt>
      <trkpt lat="44.63746" lon="2.99091">
        <ele>1345.98</ele>
        <time>2012-04-28T09:38:47Z</time>
      </trkpt>
      <trkpt lat="44.63744" lon="2.99093">
        <ele>1346.94</ele>
        <time>2012-04-28T09:38:50Z</time>
      </trkpt>
      <trkpt lat="44.63741" lon="2.99093">
        <ele>1346.46</ele>
        <time>2012-04-28T09:38:54Z</time>
      </trkpt>
      <trkpt lat="44.63735" lon="2.99102">
        <ele>1349.83</ele>
        <time>2012-04-28T09:39:04Z</time>
      </trkpt>
      <trkpt lat="44.63735" lon="2.99102">
        <ele>1347.91</ele>
        <time>2012-04-28T09:39:05Z</time>
      </trkpt>
      <trkpt lat="44.63733" lon="2.99103">
        <ele>1350.79</ele>
        <time>2012-04-28T09:39:08Z</time>
      </trkpt>
      <trkpt lat="44.63733" lon="2.99104">
        <ele>1349.83</ele>
        <time>2012-04-28T09:39:09Z</time>
      </trkpt>
      <trkpt lat="44.63733" lon="2.99104">
        <ele>1346.46</ele>
        <time>2012-04-28T09:39:23Z</time>
      </trkpt>
      <trkpt lat="44.63732" lon="2.99105">
        <ele>1345.02</ele>
        <time>2012-04-28T09:39:26Z</time>
      </trkpt>
      <trkpt lat="44.6373" lon="2.99107">
        <ele>1348.39</ele>
        <time>2012-04-28T09:39:28Z</time>
      </trkpt>
      <trkpt lat="44.63725" lon="2.99114">
        <ele>1348.39</ele>
        <time>2012-04-28T09:39:35Z</time>
      </trkpt>
      <trkpt lat="44.63723" lon="2.99115">
        <ele>1348.87</ele>
        <time>2012-04-28T09:39:37Z</time>
      </trkpt>
      <trkpt lat="44.63719" lon="2.99122">
        <ele>1349.83</ele>
        <time>2012-04-28T09:39:43Z</time>
      </trkpt>
      <trkpt lat="44.63711" lon="2.99128">
        <ele>1353.19</ele>
        <time>2012-04-28T09:39:51Z</time>
      </trkpt>
      <trkpt lat="44.63707" lon="2.99132">
        <ele>1350.79</ele>
        <time>2012-04-28T09:39:56Z</time>
      </trkpt>
      <trkpt lat="44.63704" lon="2.99135">
        <ele>1349.83</ele>
        <time>2012-04-28T09:39:59Z</time>
      </trkpt>
      <trkpt lat="44.63699" lon="2.99139">
        <ele>1349.83</ele>
        <time>2012-04-28T09:40:04Z</time>
      </trkpt>
      <trkpt lat="44.63697" lon="2.9914">
        <ele>1350.79</ele>
        <time>2012-04-28T09:40:06Z</time>
      </trkpt>
      <trkpt lat="44.63693" lon="2.99144">
        <ele>1349.83</ele>
        <time>2012-04-28T09:40:12Z</time>
      </trkpt>
      <trkpt lat="44.63692" lon="2.99147">
        <ele>1352.23</ele>
        <time>2012-04-28T09:40:15Z</time>
      </trkpt>
      <trkpt lat="44.63689" lon="2.99149">
        <ele>1349.35</ele>
        <time>2012-04-28T09:40:19Z</time>
      </trkpt>
      <trkpt lat="44.63685" lon="2.99155">
        <ele>1352.71</ele>
        <time>2012-04-28T09:40:26Z</time>
      </trkpt>
      <trkpt lat="44.63683" lon="2.99157">
        <ele>1352.23</ele>
        <time>2012-04-28T09:40:28Z</time>
      </trkpt>
      <trkpt lat="44.6368" lon="2.9916">
        <ele>1352.23</ele>
        <time>2012-04-28T09:40:31Z</time>
      </trkpt>
      <trkpt lat="44.63677" lon="2.99166">
        <ele>1353.19</ele>
        <time>2012-04-28T09:40:37Z</time>
      </trkpt>
      <trkpt lat="44.63673" lon="2.99169">
        <ele>1353.67</ele>
        <time>2012-04-28T09:40:41Z</time>
      </trkpt>
      <trkpt lat="44.63672" lon="2.99172">
        <ele>1355.12</ele>
        <time>2012-04-28T09:40:45Z</time>
      </trkpt>
      <trkpt lat="44.6367" lon="2.99173">
        <ele>1354.63</ele>
        <time>2012-04-28T09:40:47Z</time>
      </trkpt>
      <trkpt lat="44.63667" lon="2.99176">
        <ele>1356.08</ele>
        <time>2012-04-28T09:41:01Z</time>
      </trkpt>
      <trkpt lat="44.63667" lon="2.99176">
        <ele>1357.52</ele>
        <time>2012-04-28T09:41:14Z</time>
      </trkpt>
      <trkpt lat="44.63667" lon="2.99176">
        <ele>1356.08</ele>
        <time>2012-04-28T09:41:20Z</time>
      </trkpt>
      <trkpt lat="44.63667" lon="2.99176">
        <ele>1352.71</ele>
        <time>2012-04-28T09:41:24Z</time>
      </trkpt>
      <trkpt lat="44.63667" lon="2.99176">
        <ele>1352.71</ele>
        <time>2012-04-28T09:41:59Z</time>
      </trkpt>
      <trkpt lat="44.63667" lon="2.99176">
        <ele>1353.67</ele>
        <time>2012-04-28T09:42:39Z</time>
      </trkpt>
      <trkpt lat="44.63667" lon="2.99176">
        <ele>1352.71</ele>
        <time>2012-04-28T09:43:14Z</time>
      </trkpt>
      <trkpt lat="44.63667" lon="2.99176">
        <ele>1352.71</ele>
        <time>2012-04-28T09:43:49Z</time>
      </trkpt>
      <trkpt lat="44.63667" lon="2.99176">
        <ele>1350.79</ele>
        <time>2012-04-28T09:44:27Z</time>
      </trkpt>
      <trkpt lat="44.63667" lon="2.99176">
        <ele>1350.79</ele>
        <time>2012-04-28T09:44:28Z</time>
      </trkpt>
      <trkpt lat="44.63667" lon="2.99176">
        <ele>1352.23</ele>
        <time>2012-04-28T09:44:34Z</time>
      </trkpt>
      <trkpt lat="44.63667" lon="2.99176">
        <ele>1350.79</ele>
        <time>2012-04-28T09:44:43Z</time>
      </trkpt>
      <trkpt lat="44.63667" lon="2.99176">
        <ele>1352.71</ele>
        <time>2012-04-28T09:44:45Z</time>
      </trkpt>
      <trkpt lat="44.63667" lon="2.99176">
        <ele>1353.67</ele>
        <time>2012-04-28T09:44:51Z</time>
      </trkpt>
      <trkpt lat="44.63667" lon="2.99175">
        <ele>1350.79</ele>
        <time>2012-04-28T09:44:59Z</time>
      </trkpt>
      <trkpt lat="44.63667" lon="2.99175">
        <ele>1354.15</ele>
        <time>2012-04-28T09:45:28Z</time>
      </trkpt>
      <trkpt lat="44.63667" lon="2.99175">
        <ele>1353.67</ele>
        <time>2012-04-28T09:45:29Z</time>
      </trkpt>
      <trkpt lat="44.63667" lon="2.99175">
        <ele>1355.6</ele>
        <time>2012-04-28T09:45:48Z</time>
      </trkpt>
      <trkpt lat="44.63667" lon="2.99175">
        <ele>1356.08</ele>
        <time>2012-04-28T09:46:12Z</time>
      </trkpt>
      <trkpt lat="44.63667" lon="2.99175">
        <ele>1358</ele>
        <time>2012-04-28T09:46:18Z</time>
      </trkpt>
      <trkpt lat="44.63667" lon="2.99175">
        <ele>1353.19</ele>
        <time>2012-04-28T09:46:22Z</time>
      </trkpt>
      <trkpt lat="44.63667" lon="2.99175">
        <ele>1357.04</ele>
        <time>2012-04-28T09:46:28Z</time>
      </trkpt>
      <trkpt lat="44.63667" lon="2.99176">
        <ele>1348.87</ele>
        <time>2012-04-28T09:46:35Z</time>
      </trkpt>
      <trkpt lat="44.63667" lon="2.99176">
        <ele>1349.83</ele>
        <time>2012-04-28T09:46:36Z</time>
      </trkpt>
      <trkpt lat="44.63666" lon="2.99177">
        <ele>1353.19</ele>
        <time>2012-04-28T09:46:37Z</time>
      </trkpt>
      <trkpt lat="44.63665" lon="2.99177">
        <ele>1352.71</ele>
        <time>2012-04-28T09:46:38Z</time>
      </trkpt>
      <trkpt lat="44.63663" lon="2.9918">
        <ele>1357.52</ele>
        <time>2012-04-28T09:46:42Z</time>
      </trkpt>
      <trkpt lat="44.63662" lon="2.99181">
        <ele>1354.15</ele>
        <time>2012-04-28T09:46:43Z</time>
      </trkpt>
      <trkpt lat="44.63662" lon="2.99182">
        <ele>1353.67</ele>
        <time>2012-04-28T09:46:44Z</time>
      </trkpt>
      <trkpt lat="44.63659" lon="2.99184">
        <ele>1358</ele>
        <time>2012-04-28T09:46:47Z</time>
      </trkpt>
      <trkpt lat="44.63658" lon="2.99184">
        <ele>1353.19</ele>
        <time>2012-04-28T09:46:48Z</time>
      </trkpt>
      <trkpt lat="44.63656" lon="2.99187">
        <ele>1355.6</ele>
        <time>2012-04-28T09:46:51Z</time>
      </trkpt>
      <trkpt lat="44.63648" lon="2.99195">
        <ele>1355.6</ele>
        <time>2012-04-28T09:47:02Z</time>
      </trkpt>
      <trkpt lat="44.63648" lon="2.99197">
        <ele>1353.67</ele>
        <time>2012-04-28T09:47:04Z</time>
      </trkpt>
      <trkpt lat="44.63647" lon="2.99201">
        <ele>1356.08</ele>
        <time>2012-04-28T09:47:07Z</time>
      </trkpt>
      <trkpt lat="44.63646" lon="2.99203">
        <ele>1354.63</ele>
        <time>2012-04-28T09:47:09Z</time>
      </trkpt>
      <trkpt lat="44.6364" lon="2.99209">
        <ele>1352.23</ele>
        <time>2012-04-28T09:47:16Z</time>
      </trkpt>
      <trkpt lat="44.6363" lon="2.99221">
        <ele>1353.19</ele>
        <time>2012-04-28T09:47:29Z</time>
      </trkpt>
      <trkpt lat="44.63624" lon="2.99226">
        <ele>1354.15</ele>
        <time>2012-04-28T09:47:35Z</time>
      </trkpt>
      <trkpt lat="44.63618" lon="2.99234">
        <ele>1354.63</ele>
        <time>2012-04-28T09:47:43Z</time>
      </trkpt>
      <trkpt lat="44.63615" lon="2.99236">
        <ele>1354.63</ele>
        <time>2012-04-28T09:47:47Z</time>
      </trkpt>
      <trkpt lat="44.6361" lon="2.99244">
        <ele>1356.56</ele>
        <time>2012-04-28T09:47:54Z</time>
      </trkpt>
      <trkpt lat="44.63607" lon="2.99247">
        <ele>1357.04</ele>
        <time>2012-04-28T09:47:58Z</time>
      </trkpt>
      <trkpt lat="44.63603" lon="2.99253">
        <ele>1356.56</ele>
        <time>2012-04-28T09:48:05Z</time>
      </trkpt>
      <trkpt lat="44.63603" lon="2.99254">
        <ele>1359.44</ele>
        <time>2012-04-28T09:48:06Z</time>
      </trkpt>
      <trkpt lat="44.63602" lon="2.99255">
        <ele>1358</ele>
        <time>2012-04-28T09:48:07Z</time>
      </trkpt>
      <trkpt lat="44.63601" lon="2.99258">
        <ele>1356.08</ele>
        <time>2012-04-28T09:48:10Z</time>
      </trkpt>
      <trkpt lat="44.63597" lon="2.99264">
        <ele>1356.56</ele>
        <time>2012-04-28T09:48:16Z</time>
      </trkpt>
      <trkpt lat="44.63588" lon="2.99276">
        <ele>1356.56</ele>
        <time>2012-04-28T09:48:27Z</time>
      </trkpt>
      <trkpt lat="44.63586" lon="2.99278">
        <ele>1358</ele>
        <time>2012-04-28T09:48:30Z</time>
      </trkpt>
      <trkpt lat="44.63585" lon="2.9928">
        <ele>1358</ele>
        <time>2012-04-28T09:48:32Z</time>
      </trkpt>
      <trkpt lat="44.63583" lon="2.99282">
        <ele>1358</ele>
        <time>2012-04-28T09:48:34Z</time>
      </trkpt>
      <trkpt lat="44.63581" lon="2.99285">
        <ele>1358.96</ele>
        <time>2012-04-28T09:48:36Z</time>
      </trkpt>
      <trkpt lat="44.63577" lon="2.99289">
        <ele>1359.92</ele>
        <time>2012-04-28T09:48:41Z</time>
      </trkpt>
      <trkpt lat="44.63573" lon="2.99292">
        <ele>1358.96</ele>
        <time>2012-04-28T09:48:45Z</time>
      </trkpt>
      <trkpt lat="44.63572" lon="2.99295">
        <ele>1358</ele>
        <time>2012-04-28T09:48:47Z</time>
      </trkpt>
      <trkpt lat="44.63567" lon="2.99301">
        <ele>1362.33</ele>
        <time>2012-04-28T09:48:53Z</time>
      </trkpt>
      <trkpt lat="44.63563" lon="2.99306">
        <ele>1359.44</ele>
        <time>2012-04-28T09:48:58Z</time>
      </trkpt>
      <trkpt lat="44.63561" lon="2.99309">
        <ele>1355.6</ele>
        <time>2012-04-28T09:49:00Z</time>
      </trkpt>
      <trkpt lat="44.63561" lon="2.99309">
        <ele>1355.6</ele>
        <time>2012-04-28T09:49:01Z</time>
      </trkpt>
      <trkpt lat="44.63559" lon="2.9931">
        <ele>1357.52</ele>
        <time>2012-04-28T09:49:03Z</time>
      </trkpt>
      <trkpt lat="44.63558" lon="2.99311">
        <ele>1358.48</ele>
        <time>2012-04-28T09:49:05Z</time>
      </trkpt>
      <trkpt lat="44.63555" lon="2.99313">
        <ele>1360.4</ele>
        <time>2012-04-28T09:49:08Z</time>
      </trkpt>
      <trkpt lat="44.63554" lon="2.99314">
        <ele>1358.96</ele>
        <time>2012-04-28T09:49:09Z</time>
      </trkpt>
      <trkpt lat="44.63553" lon="2.99317">
        <ele>1360.4</ele>
        <time>2012-04-28T09:49:12Z</time>
      </trkpt>
      <trkpt lat="44.63549" lon="2.99321">
        <ele>1360.4</ele>
        <time>2012-04-28T09:49:17Z</time>
      </trkpt>
      <trkpt lat="44.63548" lon="2.99323">
        <ele>1356.56</ele>
        <time>2012-04-28T09:49:19Z</time>
      </trkpt>
      <trkpt lat="44.63544" lon="2.99326">
        <ele>1357.52</ele>
        <time>2012-04-28T09:49:25Z</time>
      </trkpt>
      <trkpt lat="44.63543" lon="2.99326">
        <ele>1361.84</ele>
        <time>2012-04-28T09:49:26Z</time>
      </trkpt>
      <trkpt lat="44.63542" lon="2.99327">
        <ele>1358.96</ele>
        <time>2012-04-28T09:49:27Z</time>
      </trkpt>
      <trkpt lat="44.63539" lon="2.99331">
        <ele>1361.36</ele>
        <time>2012-04-28T09:49:31Z</time>
      </trkpt>
      <trkpt lat="44.63534" lon="2.99337">
        <ele>1360.4</ele>
        <time>2012-04-28T09:49:38Z</time>
      </trkpt>
      <trkpt lat="44.63532" lon="2.99339">
        <ele>1359.44</ele>
        <time>2012-04-28T09:49:40Z</time>
      </trkpt>
      <trkpt lat="44.63524" lon="2.99347">
        <ele>1355.6</ele>
        <time>2012-04-28T09:49:53Z</time>
      </trkpt>
      <trkpt lat="44.63522" lon="2.99349">
        <ele>1358.96</ele>
        <time>2012-04-28T09:49:56Z</time>
      </trkpt>
      <trkpt lat="44.63521" lon="2.9935">
        <ele>1358.96</ele>
        <time>2012-04-28T09:49:57Z</time>
      </trkpt>
      <trkpt lat="44.63517" lon="2.99359">
        <ele>1358.96</ele>
        <time>2012-04-28T09:50:07Z</time>
      </trkpt>
      <trkpt lat="44.63506" lon="2.99366">
        <ele>1358.96</ele>
        <time>2012-04-28T09:50:22Z</time>
      </trkpt>
      <trkpt lat="44.63504" lon="2.99368">
        <ele>1362.33</ele>
        <time>2012-04-28T09:50:25Z</time>
      </trkpt>
      <trkpt lat="44.63497" lon="2.99374">
        <ele>1366.17</ele>
        <time>2012-04-28T09:50:32Z</time>
      </trkpt>
      <trkpt lat="44.63496" lon="2.99375">
        <ele>1364.73</ele>
        <time>2012-04-28T09:50:34Z</time>
      </trkpt>
      <trkpt lat="44.63489" lon="2.9938">
        <ele>1370.02</ele>
        <time>2012-04-28T09:50:42Z</time>
      </trkpt>
      <trkpt lat="44.63489" lon="2.9938">
        <ele>1369.05</ele>
        <time>2012-04-28T09:50:43Z</time>
      </trkpt>
      <trkpt lat="44.63487" lon="2.99381">
        <ele>1366.17</ele>
        <time>2012-04-28T09:50:45Z</time>
      </trkpt>
      <trkpt lat="44.63486" lon="2.99381">
        <ele>1367.13</ele>
        <time>2012-04-28T09:50:47Z</time>
      </trkpt>
      <trkpt lat="44.6348" lon="2.99387">
        <ele>1362.81</ele>
        <time>2012-04-28T09:50:56Z</time>
      </trkpt>
      <trkpt lat="44.63476" lon="2.9939">
        <ele>1366.65</ele>
        <time>2012-04-28T09:51:01Z</time>
      </trkpt>
      <trkpt lat="44.63475" lon="2.99391">
        <ele>1362.81</ele>
        <time>2012-04-28T09:51:03Z</time>
      </trkpt>
      <trkpt lat="44.63474" lon="2.99392">
        <ele>1365.21</ele>
        <time>2012-04-28T09:51:04Z</time>
      </trkpt>
      <trkpt lat="44.63465" lon="2.99396">
        <ele>1365.21</ele>
        <time>2012-04-28T09:51:13Z</time>
      </trkpt>
      <trkpt lat="44.63456" lon="2.99401">
        <ele>1368.57</ele>
        <time>2012-04-28T09:51:23Z</time>
      </trkpt>
      <trkpt lat="44.63454" lon="2.99401">
        <ele>1365.21</ele>
        <time>2012-04-28T09:51:25Z</time>
      </trkpt>
      <trkpt lat="44.63454" lon="2.99402">
        <ele>1363.29</ele>
        <time>2012-04-28T09:51:26Z</time>
      </trkpt>
      <trkpt lat="44.6345" lon="2.99403">
        <ele>1366.65</ele>
        <time>2012-04-28T09:51:30Z</time>
      </trkpt>
      <trkpt lat="44.63448" lon="2.99404">
        <ele>1358.96</ele>
        <time>2012-04-28T09:51:32Z</time>
      </trkpt>
      <trkpt lat="44.63447" lon="2.99404">
        <ele>1362.81</ele>
        <time>2012-04-28T09:51:33Z</time>
      </trkpt>
      <trkpt lat="44.63445" lon="2.99405">
        <ele>1358</ele>
        <time>2012-04-28T09:51:36Z</time>
      </trkpt>
      <trkpt lat="44.63444" lon="2.99405">
        <ele>1356.56</ele>
        <time>2012-04-28T09:51:38Z</time>
      </trkpt>
      <trkpt lat="44.63443" lon="2.99405">
        <ele>1358.48</ele>
        <time>2012-04-28T09:51:39Z</time>
      </trkpt>
      <trkpt lat="44.63441" lon="2.99406">
        <ele>1359.92</ele>
        <time>2012-04-28T09:51:41Z</time>
      </trkpt>
      <trkpt lat="44.6344" lon="2.99406">
        <ele>1364.25</ele>
        <time>2012-04-28T09:51:43Z</time>
      </trkpt>
      <trkpt lat="44.63439" lon="2.99406">
        <ele>1360.4</ele>
        <time>2012-04-28T09:51:44Z</time>
      </trkpt>
      <trkpt lat="44.6343" lon="2.99409">
        <ele>1363.77</ele>
        <time>2012-04-28T09:51:52Z</time>
      </trkpt>
      <trkpt lat="44.63429" lon="2.9941">
        <ele>1368.09</ele>
        <time>2012-04-28T09:51:53Z</time>
      </trkpt>
      <trkpt lat="44.63428" lon="2.99411">
        <ele>1367.61</ele>
        <time>2012-04-28T09:51:54Z</time>
      </trkpt>
      <trkpt lat="44.63426" lon="2.99411">
        <ele>1365.69</ele>
        <time>2012-04-28T09:51:56Z</time>
      </trkpt>
      <trkpt lat="44.63423" lon="2.99412">
        <ele>1361.84</ele>
        <time>2012-04-28T09:51:59Z</time>
      </trkpt>
      <trkpt lat="44.63422" lon="2.99412">
        <ele>1367.61</ele>
        <time>2012-04-28T09:52:00Z</time>
      </trkpt>
      <trkpt lat="44.63418" lon="2.99414">
        <ele>1363.77</ele>
        <time>2012-04-28T09:52:04Z</time>
      </trkpt>
      <trkpt lat="44.63412" lon="2.99416">
        <ele>1363.77</ele>
        <time>2012-04-28T09:52:09Z</time>
      </trkpt>
      <trkpt lat="44.63406" lon="2.99418">
        <ele>1367.61</ele>
        <time>2012-04-28T09:52:15Z</time>
      </trkpt>
      <trkpt lat="44.634" lon="2.99421">
        <ele>1367.61</ele>
        <time>2012-04-28T09:52:21Z</time>
      </trkpt>
      <trkpt lat="44.63397" lon="2.99421">
        <ele>1369.05</ele>
        <time>2012-04-28T09:52:24Z</time>
      </trkpt>
      <trkpt lat="44.63391" lon="2.99424">
        <ele>1369.05</ele>
        <time>2012-04-28T09:52:30Z</time>
      </trkpt>
      <trkpt lat="44.63387" lon="2.99427">
        <ele>1364.73</ele>
        <time>2012-04-28T09:52:35Z</time>
      </trkpt>
      <trkpt lat="44.63385" lon="2.99428">
        <ele>1370.02</ele>
        <time>2012-04-28T09:52:38Z</time>
      </trkpt>
      <trkpt lat="44.63382" lon="2.9943">
        <ele>1371.94</ele>
        <time>2012-04-28T09:52:41Z</time>
      </trkpt>
      <trkpt lat="44.63379" lon="2.99432">
        <ele>1373.38</ele>
        <time>2012-04-28T09:52:45Z</time>
      </trkpt>
      <trkpt lat="44.63378" lon="2.99432">
        <ele>1375.3</ele>
        <time>2012-04-28T09:52:47Z</time>
      </trkpt>
      <trkpt lat="44.63374" lon="2.99432">
        <ele>1375.3</ele>
        <time>2012-04-28T09:52:52Z</time>
      </trkpt>
      <trkpt lat="44.63371" lon="2.99432">
        <ele>1372.9</ele>
        <time>2012-04-28T09:52:56Z</time>
      </trkpt>
      <trkpt lat="44.63369" lon="2.99432">
        <ele>1373.86</ele>
        <time>2012-04-28T09:53:02Z</time>
      </trkpt>
      <trkpt lat="44.63369" lon="2.99432">
        <ele>1372.42</ele>
        <time>2012-04-28T09:53:19Z</time>
      </trkpt>
      <trkpt lat="44.63369" lon="2.99432">
        <ele>1372.42</ele>
        <time>2012-04-28T09:53:44Z</time>
      </trkpt>
      <trkpt lat="44.63369" lon="2.99432">
        <ele>1372.9</ele>
        <time>2012-04-28T09:54:00Z</time>
      </trkpt>
      <trkpt lat="44.63368" lon="2.99435">
        <ele>1371.46</ele>
        <time>2012-04-28T09:54:13Z</time>
      </trkpt>
      <trkpt lat="44.63368" lon="2.99436">
        <ele>1370.98</ele>
        <time>2012-04-28T09:54:24Z</time>
      </trkpt>
      <trkpt lat="44.63368" lon="2.99436">
        <ele>1370.98</ele>
        <time>2012-04-28T09:54:28Z</time>
      </trkpt>
      <trkpt lat="44.63369" lon="2.99433">
        <ele>1374.34</ele>
        <time>2012-04-28T09:54:41Z</time>
      </trkpt>
      <trkpt lat="44.6337" lon="2.99435">
        <ele>1371.94</ele>
        <time>2012-04-28T09:54:43Z</time>
      </trkpt>
      <trkpt lat="44.63371" lon="2.99439">
        <ele>1369.54</ele>
        <time>2012-04-28T09:54:56Z</time>
      </trkpt>
      <trkpt lat="44.63371" lon="2.99439">
        <ele>1371.46</ele>
        <time>2012-04-28T09:55:01Z</time>
      </trkpt>
      <trkpt lat="44.63371" lon="2.99439">
        <ele>1370.02</ele>
        <time>2012-04-28T09:55:16Z</time>
      </trkpt>
      <trkpt lat="44.63371" lon="2.99439">
        <ele>1371.94</ele>
        <time>2012-04-28T09:55:23Z</time>
      </trkpt>
      <trkpt lat="44.6337" lon="2.99437">
        <ele>1372.9</ele>
        <time>2012-04-28T09:55:25Z</time>
      </trkpt>
      <trkpt lat="44.63372" lon="2.99433">
        <ele>1372.42</ele>
        <time>2012-04-28T09:55:31Z</time>
      </trkpt>
      <trkpt lat="44.63379" lon="2.99428">
        <ele>1371.46</ele>
        <time>2012-04-28T09:55:42Z</time>
      </trkpt>
      <trkpt lat="44.63376" lon="2.99428">
        <ele>1373.38</ele>
        <time>2012-04-28T09:55:46Z</time>
      </trkpt>
      <trkpt lat="44.63374" lon="2.99428">
        <ele>1372.42</ele>
        <time>2012-04-28T09:56:01Z</time>
      </trkpt>
      <trkpt lat="44.63373" lon="2.99428">
        <ele>1373.38</ele>
        <time>2012-04-28T09:56:23Z</time>
      </trkpt>
      <trkpt lat="44.63372" lon="2.99428">
        <ele>1373.38</ele>
        <time>2012-04-28T09:56:24Z</time>
      </trkpt>
      <trkpt lat="44.6337" lon="2.99426">
        <ele>1371.94</ele>
        <time>2012-04-28T09:56:38Z</time>
      </trkpt>
      <trkpt lat="44.63371" lon="2.99423">
        <ele>1372.9</ele>
        <time>2012-04-28T09:56:46Z</time>
      </trkpt>
      <trkpt lat="44.63371" lon="2.99423">
        <ele>1370.5</ele>
        <time>2012-04-28T09:56:50Z</time>
      </trkpt>
      <trkpt lat="44.63371" lon="2.99424">
        <ele>1370.98</ele>
        <time>2012-04-28T09:57:09Z</time>
      </trkpt>
      <trkpt lat="44.63371" lon="2.99425">
        <ele>1371.46</ele>
        <time>2012-04-28T09:57:11Z</time>
      </trkpt>
      <trkpt lat="44.63371" lon="2.99425">
        <ele>1367.13</ele>
        <time>2012-04-28T09:57:12Z</time>
      </trkpt>
      <trkpt lat="44.6337" lon="2.99425">
        <ele>1369.05</ele>
        <time>2012-04-28T09:57:13Z</time>
      </trkpt>
      <trkpt lat="44.63368" lon="2.99426">
        <ele>1370.02</ele>
        <time>2012-04-28T09:57:16Z</time>
      </trkpt>
      <trkpt lat="44.63368" lon="2.99428">
        <ele>1370.5</ele>
        <time>2012-04-28T09:57:30Z</time>
      </trkpt>
      <trkpt lat="44.63368" lon="2.99428">
        <ele>1371.46</ele>
        <time>2012-04-28T09:57:36Z</time>
      </trkpt>
      <trkpt lat="44.63367" lon="2.99428">
        <ele>1372.9</ele>
        <time>2012-04-28T09:57:53Z</time>
      </trkpt>
      <trkpt lat="44.63367" lon="2.99428">
        <ele>1373.38</ele>
        <time>2012-04-28T09:58:16Z</time>
      </trkpt>
      <trkpt lat="44.63367" lon="2.99428">
        <ele>1370.02</ele>
        <time>2012-04-28T09:58:20Z</time>
      </trkpt>
      <trkpt lat="44.63365" lon="2.99428">
        <ele>1370.5</ele>
        <time>2012-04-28T09:58:23Z</time>
      </trkpt>
      <trkpt lat="44.6336" lon="2.99425">
        <ele>1373.38</ele>
        <time>2012-04-28T09:58:30Z</time>
      </trkpt>
      <trkpt lat="44.63355" lon="2.99422">
        <ele>1372.42</ele>
        <time>2012-04-28T09:58:35Z</time>
      </trkpt>
      <trkpt lat="44.63353" lon="2.9942">
        <ele>1368.57</ele>
        <time>2012-04-28T09:58:37Z</time>
      </trkpt>
      <trkpt lat="44.63347" lon="2.99418">
        <ele>1368.09</ele>
        <time>2012-04-28T09:58:42Z</time>
      </trkpt>
      <trkpt lat="44.63333" lon="2.99408">
        <ele>1368.09</ele>
        <time>2012-04-28T09:58:54Z</time>
      </trkpt>
      <trkpt lat="44.63331" lon="2.99407">
        <ele>1367.13</ele>
        <time>2012-04-28T09:58:56Z</time>
      </trkpt>
      <trkpt lat="44.63325" lon="2.99403">
        <ele>1365.69</ele>
        <time>2012-04-28T09:59:01Z</time>
      </trkpt>
      <trkpt lat="44.63324" lon="2.99402">
        <ele>1365.21</ele>
        <time>2012-04-28T09:59:02Z</time>
      </trkpt>
      <trkpt lat="44.63306" lon="2.99386">
        <ele>1364.25</ele>
        <time>2012-04-28T09:59:18Z</time>
      </trkpt>
      <trkpt lat="44.63302" lon="2.99384">
        <ele>1364.25</ele>
        <time>2012-04-28T09:59:26Z</time>
      </trkpt>
      <trkpt lat="44.63295" lon="2.99379">
        <ele>1365.21</ele>
        <time>2012-04-28T09:59:34Z</time>
      </trkpt>
      <trkpt lat="44.63287" lon="2.99371">
        <ele>1363.77</ele>
        <time>2012-04-28T09:59:41Z</time>
      </trkpt>
      <trkpt lat="44.63275" lon="2.99362">
        <ele>1362.81</ele>
        <time>2012-04-28T09:59:52Z</time>
      </trkpt>
      <trkpt lat="44.6327" lon="2.99361">
        <ele>1363.29</ele>
        <time>2012-04-28T09:59:56Z</time>
      </trkpt>
      <trkpt lat="44.63257" lon="2.99348">
        <ele>1367.13</ele>
        <time>2012-04-28T10:00:09Z</time>
      </trkpt>
      <trkpt lat="44.63256" lon="2.99347">
        <ele>1367.13</ele>
        <time>2012-04-28T10:00:10Z</time>
      </trkpt>
      <trkpt lat="44.63254" lon="2.99344">
        <ele>1363.77</ele>
        <time>2012-04-28T10:00:13Z</time>
      </trkpt>
      <trkpt lat="44.63241" lon="2.99333">
        <ele>1362.33</ele>
        <time>2012-04-28T10:00:25Z</time>
      </trkpt>
      <trkpt lat="44.63229" lon="2.99323">
        <ele>1362.33</ele>
        <time>2012-04-28T10:00:38Z</time>
      </trkpt>
      <trkpt lat="44.63222" lon="2.99319">
        <ele>1359.92</ele>
        <time>2012-04-28T10:00:45Z</time>
      </trkpt>
      <trkpt lat="44.63211" lon="2.99312">
        <ele>1358.96</ele>
        <time>2012-04-28T10:00:55Z</time>
      </trkpt>
      <trkpt lat="44.63206" lon="2.99309">
        <ele>1359.44</ele>
        <time>2012-04-28T10:00:59Z</time>
      </trkpt>
      <trkpt lat="44.63205" lon="2.99306">
        <ele>1361.36</ele>
        <time>2012-04-28T10:01:01Z</time>
      </trkpt>
      <trkpt lat="44.63204" lon="2.99306">
        <ele>1361.36</ele>
        <time>2012-04-28T10:01:02Z</time>
      </trkpt>
      <trkpt lat="44.63197" lon="2.99301">
        <ele>1362.81</ele>
        <time>2012-04-28T10:01:08Z</time>
      </trkpt>
      <trkpt lat="44.63195" lon="2.99299">
        <ele>1362.81</ele>
        <time>2012-04-28T10:01:10Z</time>
      </trkpt>
      <trkpt lat="44.63193" lon="2.99297">
        <ele>1359.92</ele>
        <time>2012-04-28T10:01:12Z</time>
      </trkpt>
      <trkpt lat="44.63191" lon="2.99294">
        <ele>1360.88</ele>
        <time>2012-04-28T10:01:15Z</time>
      </trkpt>
      <trkpt lat="44.63187" lon="2.99296">
        <ele>1358.96</ele>
        <time>2012-04-28T10:01:19Z</time>
      </trkpt>
      <trkpt lat="44.63169" lon="2.99282">
        <ele>1358.96</ele>
        <time>2012-04-28T10:01:34Z</time>
      </trkpt>
      <trkpt lat="44.63166" lon="2.99279">
        <ele>1357.52</ele>
        <time>2012-04-28T10:01:37Z</time>
      </trkpt>
      <trkpt lat="44.63161" lon="2.99274">
        <ele>1357.52</ele>
        <time>2012-04-28T10:01:42Z</time>
      </trkpt>
      <trkpt lat="44.63152" lon="2.99269">
        <ele>1357.04</ele>
        <time>2012-04-28T10:01:55Z</time>
      </trkpt>
      <trkpt lat="44.63144" lon="2.99265">
        <ele>1356.56</ele>
        <time>2012-04-28T10:02:07Z</time>
      </trkpt>
      <trkpt lat="44.63143" lon="2.99267">
        <ele>1356.56</ele>
        <time>2012-04-28T10:02:12Z</time>
      </trkpt>
      <trkpt lat="44.63137" lon="2.99266">
        <ele>1356.56</ele>
        <time>2012-04-28T10:02:18Z</time>
      </trkpt>
      <trkpt lat="44.63124" lon="2.99254">
        <ele>1359.92</ele>
        <time>2012-04-28T10:02:33Z</time>
      </trkpt>
      <trkpt lat="44.63119" lon="2.99252">
        <ele>1360.88</ele>
        <time>2012-04-28T10:02:38Z</time>
      </trkpt>
      <trkpt lat="44.63117" lon="2.9925">
        <ele>1360.88</ele>
        <time>2012-04-28T10:02:41Z</time>
      </trkpt>
      <trkpt lat="44.63105" lon="2.9924">
        <ele>1358</ele>
        <time>2012-04-28T10:02:55Z</time>
      </trkpt>
      <trkpt lat="44.63105" lon="2.9924">
        <ele>1360.88</ele>
        <time>2012-04-28T10:02:59Z</time>
      </trkpt>
      <trkpt lat="44.63105" lon="2.9924">
        <ele>1358.96</ele>
        <time>2012-04-28T10:03:03Z</time>
      </trkpt>
      <trkpt lat="44.63105" lon="2.9924">
        <ele>1358</ele>
        <time>2012-04-28T10:03:05Z</time>
      </trkpt>
      <trkpt lat="44.63102" lon="2.99238">
        <ele>1358.48</ele>
        <time>2012-04-28T10:03:08Z</time>
      </trkpt>
      <trkpt lat="44.63101" lon="2.99236">
        <ele>1358.48</ele>
        <time>2012-04-28T10:03:10Z</time>
      </trkpt>
      <trkpt lat="44.63097" lon="2.99233">
        <ele>1359.92</ele>
        <time>2012-04-28T10:03:15Z</time>
      </trkpt>
      <trkpt lat="44.63091" lon="2.99227">
        <ele>1359.92</ele>
        <time>2012-04-28T10:03:22Z</time>
      </trkpt>
      <trkpt lat="44.63084" lon="2.99217">
        <ele>1361.84</ele>
        <time>2012-04-28T10:03:32Z</time>
      </trkpt>
      <trkpt lat="44.63082" lon="2.99213">
        <ele>1360.4</ele>
        <time>2012-04-28T10:03:35Z</time>
      </trkpt>
      <trkpt lat="44.63077" lon="2.99205">
        <ele>1362.33</ele>
        <time>2012-04-28T10:03:43Z</time>
      </trkpt>
      <trkpt lat="44.63068" lon="2.99193">
        <ele>1360.4</ele>
        <time>2012-04-28T10:03:54Z</time>
      </trkpt>
      <trkpt lat="44.63061" lon="2.9918">
        <ele>1361.84</ele>
        <time>2012-04-28T10:04:03Z</time>
      </trkpt>
      <trkpt lat="44.6305" lon="2.99159">
        <ele>1358.48</ele>
        <time>2012-04-28T10:04:19Z</time>
      </trkpt>
      <trkpt lat="44.63045" lon="2.99152">
        <ele>1358.48</ele>
        <time>2012-04-28T10:04:25Z</time>
      </trkpt>
      <trkpt lat="44.63043" lon="2.99149">
        <ele>1358.48</ele>
        <time>2012-04-28T10:04:28Z</time>
      </trkpt>
      <trkpt lat="44.6304" lon="2.99148">
        <ele>1357.52</ele>
        <time>2012-04-28T10:04:32Z</time>
      </trkpt>
      <trkpt lat="44.63039" lon="2.99146">
        <ele>1358.48</ele>
        <time>2012-04-28T10:04:34Z</time>
      </trkpt>
      <trkpt lat="44.63036" lon="2.99137">
        <ele>1357.52</ele>
        <time>2012-04-28T10:04:41Z</time>
      </trkpt>
      <trkpt lat="44.63034" lon="2.99128">
        <ele>1356.56</ele>
        <time>2012-04-28T10:04:47Z</time>
      </trkpt>
      <trkpt lat="44.63033" lon="2.99126">
        <ele>1356.08</ele>
        <time>2012-04-28T10:04:49Z</time>
      </trkpt>
      <trkpt lat="44.6303" lon="2.99116">
        <ele>1353.19</ele>
        <time>2012-04-28T10:04:57Z</time>
      </trkpt>
      <trkpt lat="44.63028" lon="2.9911">
        <ele>1355.12</ele>
        <time>2012-04-28T10:05:02Z</time>
      </trkpt>
      <trkpt lat="44.63027" lon="2.99104">
        <ele>1355.12</ele>
        <time>2012-04-28T10:05:06Z</time>
      </trkpt>
      <trkpt lat="44.63026" lon="2.99098">
        <ele>1356.56</ele>
        <time>2012-04-28T10:05:11Z</time>
      </trkpt>
      <trkpt lat="44.63022" lon="2.99091">
        <ele>1355.12</ele>
        <time>2012-04-28T10:05:16Z</time>
      </trkpt>
      <trkpt lat="44.6302" lon="2.99085">
        <ele>1354.63</ele>
        <time>2012-04-28T10:05:20Z</time>
      </trkpt>
      <trkpt lat="44.63019" lon="2.99083">
        <ele>1354.63</ele>
        <time>2012-04-28T10:05:22Z</time>
      </trkpt>
      <trkpt lat="44.63014" lon="2.9907">
        <ele>1353.67</ele>
        <time>2012-04-28T10:05:31Z</time>
      </trkpt>
      <trkpt lat="44.63012" lon="2.99068">
        <ele>1352.71</ele>
        <time>2012-04-28T10:05:33Z</time>
      </trkpt>
      <trkpt lat="44.63011" lon="2.99066">
        <ele>1355.12</ele>
        <time>2012-04-28T10:05:35Z</time>
      </trkpt>
      <trkpt lat="44.63006" lon="2.99056">
        <ele>1356.08</ele>
        <time>2012-04-28T10:05:42Z</time>
      </trkpt>
      <trkpt lat="44.63005" lon="2.99054">
        <ele>1348.39</ele>
        <time>2012-04-28T10:05:44Z</time>
      </trkpt>
      <trkpt lat="44.63005" lon="2.99054">
        <ele>1352.23</ele>
        <time>2012-04-28T10:05:45Z</time>
      </trkpt>
      <trkpt lat="44.63004" lon="2.99051">
        <ele>1355.12</ele>
        <time>2012-04-28T10:05:47Z</time>
      </trkpt>
      <trkpt lat="44.62999" lon="2.9904">
        <ele>1354.15</ele>
        <time>2012-04-28T10:05:54Z</time>
      </trkpt>
      <trkpt lat="44.62997" lon="2.99037">
        <ele>1351.75</ele>
        <time>2012-04-28T10:05:57Z</time>
      </trkpt>
      <trkpt lat="44.62996" lon="2.99034">
        <ele>1351.75</ele>
        <time>2012-04-28T10:05:59Z</time>
      </trkpt>
      <trkpt lat="44.62986" lon="2.99018">
        <ele>1349.35</ele>
        <time>2012-04-28T10:06:12Z</time>
      </trkpt>
      <trkpt lat="44.62985" lon="2.99017">
        <ele>1348.39</ele>
        <time>2012-04-28T10:06:13Z</time>
      </trkpt>
      <trkpt lat="44.62973" lon="2.98996">
        <ele>1348.87</ele>
        <time>2012-04-28T10:06:29Z</time>
      </trkpt>
      <trkpt lat="44.62967" lon="2.98987">
        <ele>1347.91</ele>
        <time>2012-04-28T10:06:36Z</time>
      </trkpt>
      <trkpt lat="44.62963" lon="2.98977">
        <ele>1346.46</ele>
        <time>2012-04-28T10:06:43Z</time>
      </trkpt>
      <trkpt lat="44.62953" lon="2.9896">
        <ele>1345.98</ele>
        <time>2012-04-28T10:06:56Z</time>
      </trkpt>
      <trkpt lat="44.62943" lon="2.98944">
        <ele>1345.02</ele>
        <time>2012-04-28T10:07:09Z</time>
      </trkpt>
      <trkpt lat="44.62941" lon="2.98941">
        <ele>1344.06</ele>
        <time>2012-04-28T10:07:12Z</time>
      </trkpt>
      <trkpt lat="44.62939" lon="2.98938">
        <ele>1345.5</ele>
        <time>2012-04-28T10:07:15Z</time>
      </trkpt>
      <trkpt lat="44.62935" lon="2.98936">
        <ele>1345.5</ele>
        <time>2012-04-28T10:07:18Z</time>
      </trkpt>
      <trkpt lat="44.62934" lon="2.98932">
        <ele>1345.02</ele>
        <time>2012-04-28T10:07:21Z</time>
      </trkpt>
      <trkpt lat="44.62932" lon="2.9893">
        <ele>1344.54</ele>
        <time>2012-04-28T10:07:23Z</time>
      </trkpt>
      <trkpt lat="44.6293" lon="2.98927">
        <ele>1345.5</ele>
        <time>2012-04-28T10:07:26Z</time>
      </trkpt>
      <trkpt lat="44.62923" lon="2.98918">
        <ele>1345.5</ele>
        <time>2012-04-28T10:07:35Z</time>
      </trkpt>
      <trkpt lat="44.62916" lon="2.98907">
        <ele>1345.98</ele>
        <time>2012-04-28T10:07:44Z</time>
      </trkpt>
      <trkpt lat="44.62914" lon="2.98903">
        <ele>1344.54</ele>
        <time>2012-04-28T10:07:54Z</time>
      </trkpt>
      <trkpt lat="44.62918" lon="2.989">
        <ele>1345.02</ele>
        <time>2012-04-28T10:08:00Z</time>
      </trkpt>
      <trkpt lat="44.62915" lon="2.98895">
        <ele>1345.5</ele>
        <time>2012-04-28T10:08:05Z</time>
      </trkpt>
      <trkpt lat="44.62912" lon="2.98893">
        <ele>1345.5</ele>
        <time>2012-04-28T10:08:09Z</time>
      </trkpt>
      <trkpt lat="44.62908" lon="2.98889">
        <ele>1345.5</ele>
        <time>2012-04-28T10:08:12Z</time>
      </trkpt>
      <trkpt lat="44.62904" lon="2.98884">
        <ele>1345.5</ele>
        <time>2012-04-28T10:08:16Z</time>
      </trkpt>
      <trkpt lat="44.62898" lon="2.98883">
        <ele>1344.06</ele>
        <time>2012-04-28T10:08:20Z</time>
      </trkpt>
      <trkpt lat="44.62885" lon="2.98873">
        <ele>1345.02</ele>
        <time>2012-04-28T10:08:32Z</time>
      </trkpt>
      <trkpt lat="44.62878" lon="2.98869">
        <ele>1345.02</ele>
        <time>2012-04-28T10:08:39Z</time>
      </trkpt>
      <trkpt lat="44.62869" lon="2.98861">
        <ele>1344.54</ele>
        <time>2012-04-28T10:08:49Z</time>
      </trkpt>
      <trkpt lat="44.62852" lon="2.98854">
        <ele>1342.62</ele>
        <time>2012-04-28T10:09:04Z</time>
      </trkpt>
      <trkpt lat="44.6284" lon="2.98854">
        <ele>1343.1</ele>
        <time>2012-04-28T10:09:15Z</time>
      </trkpt>
      <trkpt lat="44.62835" lon="2.98855">
        <ele>1347.43</ele>
        <time>2012-04-28T10:09:20Z</time>
      </trkpt>
      <trkpt lat="44.6283" lon="2.98855">
        <ele>1342.62</ele>
        <time>2012-04-28T10:09:24Z</time>
      </trkpt>
      <trkpt lat="44.62826" lon="2.98856">
        <ele>1343.58</ele>
        <time>2012-04-28T10:09:28Z</time>
      </trkpt>
      <trkpt lat="44.62823" lon="2.98857">
        <ele>1345.02</ele>
        <time>2012-04-28T10:09:31Z</time>
      </trkpt>
      <trkpt lat="44.62819" lon="2.98858">
        <ele>1343.58</ele>
        <time>2012-04-28T10:09:36Z</time>
      </trkpt>
      <trkpt lat="44.6282" lon="2.98859">
        <ele>1344.54</ele>
        <time>2012-04-28T10:09:42Z</time>
      </trkpt>
      <trkpt lat="44.62815" lon="2.98859">
        <ele>1344.06</ele>
        <time>2012-04-28T10:09:48Z</time>
      </trkpt>
      <trkpt lat="44.62808" lon="2.98855">
        <ele>1344.54</ele>
        <time>2012-04-28T10:09:58Z</time>
      </trkpt>
      <trkpt lat="44.62806" lon="2.98853">
        <ele>1344.54</ele>
        <time>2012-04-28T10:10:04Z</time>
      </trkpt>
      <trkpt lat="44.62799" lon="2.98849">
        <ele>1344.54</ele>
        <time>2012-04-28T10:10:11Z</time>
      </trkpt>
      <trkpt lat="44.62792" lon="2.98841">
        <ele>1344.54</ele>
        <time>2012-04-28T10:10:23Z</time>
      </trkpt>
      <trkpt lat="44.62791" lon="2.98839">
        <ele>1345.02</ele>
        <time>2012-04-28T10:10:25Z</time>
      </trkpt>
      <trkpt lat="44.62788" lon="2.98837">
        <ele>1342.62</ele>
        <time>2012-04-28T10:10:28Z</time>
      </trkpt>
      <trkpt lat="44.62784" lon="2.98835">
        <ele>1342.14</ele>
        <time>2012-04-28T10:10:32Z</time>
      </trkpt>
      <trkpt lat="44.6278" lon="2.98832">
        <ele>1342.62</ele>
        <time>2012-04-28T10:10:36Z</time>
      </trkpt>
      <trkpt lat="44.62777" lon="2.98829">
        <ele>1344.54</ele>
        <time>2012-04-28T10:10:40Z</time>
      </trkpt>
      <trkpt lat="44.62776" lon="2.98828">
        <ele>1344.54</ele>
        <time>2012-04-28T10:10:41Z</time>
      </trkpt>
      <trkpt lat="44.62773" lon="2.98826">
        <ele>1342.14</ele>
        <time>2012-04-28T10:10:44Z</time>
      </trkpt>
      <trkpt lat="44.62763" lon="2.98816">
        <ele>1338.77</ele>
        <time>2012-04-28T10:10:55Z</time>
      </trkpt>
      <trkpt lat="44.62754" lon="2.98808">
        <ele>1339.25</ele>
        <time>2012-04-28T10:11:03Z</time>
      </trkpt>
      <trkpt lat="44.62753" lon="2.98807">
        <ele>1337.33</ele>
        <time>2012-04-28T10:11:05Z</time>
      </trkpt>
      <trkpt lat="44.62749" lon="2.988">
        <ele>1336.37</ele>
        <time>2012-04-28T10:11:11Z</time>
      </trkpt>
      <trkpt lat="44.62744" lon="2.98796">
        <ele>1337.33</ele>
        <time>2012-04-28T10:11:16Z</time>
      </trkpt>
      <trkpt lat="44.62741" lon="2.98791">
        <ele>1335.41</ele>
        <time>2012-04-28T10:11:20Z</time>
      </trkpt>
      <trkpt lat="44.62729" lon="2.98778">
        <ele>1333.49</ele>
        <time>2012-04-28T10:11:33Z</time>
      </trkpt>
      <trkpt lat="44.62724" lon="2.98778">
        <ele>1333.01</ele>
        <time>2012-04-28T10:11:39Z</time>
      </trkpt>
      <trkpt lat="44.62722" lon="2.98779">
        <ele>1331.08</ele>
        <time>2012-04-28T10:11:50Z</time>
      </trkpt>
      <trkpt lat="44.62722" lon="2.98779">
        <ele>1330.12</ele>
        <time>2012-04-28T10:11:56Z</time>
      </trkpt>
      <trkpt lat="44.6272" lon="2.98779">
        <ele>1333.01</ele>
        <time>2012-04-28T10:12:10Z</time>
      </trkpt>
      <trkpt lat="44.62718" lon="2.98779">
        <ele>1333.49</ele>
        <time>2012-04-28T10:12:12Z</time>
      </trkpt>
      <trkpt lat="44.62708" lon="2.98778">
        <ele>1329.16</ele>
        <time>2012-04-28T10:12:21Z</time>
      </trkpt>
      <trkpt lat="44.62702" lon="2.98776">
        <ele>1329.64</ele>
        <time>2012-04-28T10:12:34Z</time>
      </trkpt>
      <trkpt lat="44.62699" lon="2.98776">
        <ele>1328.68</ele>
        <time>2012-04-28T10:12:37Z</time>
      </trkpt>
      <trkpt lat="44.62686" lon="2.98773">
        <ele>1325.8</ele>
        <time>2012-04-28T10:12:50Z</time>
      </trkpt>
      <trkpt lat="44.62684" lon="2.98772">
        <ele>1325.8</ele>
        <time>2012-04-28T10:12:56Z</time>
      </trkpt>
      <trkpt lat="44.62681" lon="2.98771">
        <ele>1323.39</ele>
        <time>2012-04-28T10:12:59Z</time>
      </trkpt>
      <trkpt lat="44.62679" lon="2.98771">
        <ele>1324.83</ele>
        <time>2012-04-28T10:13:01Z</time>
      </trkpt>
      <trkpt lat="44.62677" lon="2.9877">
        <ele>1322.43</ele>
        <time>2012-04-28T10:13:03Z</time>
      </trkpt>
      <trkpt lat="44.62676" lon="2.9877">
        <ele>1326.28</ele>
        <time>2012-04-28T10:13:04Z</time>
      </trkpt>
      <trkpt lat="44.62675" lon="2.9877">
        <ele>1324.35</ele>
        <time>2012-04-28T10:13:05Z</time>
      </trkpt>
      <trkpt lat="44.62667" lon="2.98766">
        <ele>1324.35</ele>
        <time>2012-04-28T10:13:12Z</time>
      </trkpt>
      <trkpt lat="44.62659" lon="2.98765">
        <ele>1323.87</ele>
        <time>2012-04-28T10:13:19Z</time>
      </trkpt>
      <trkpt lat="44.62656" lon="2.98765">
        <ele>1320.99</ele>
        <time>2012-04-28T10:13:22Z</time>
      </trkpt>
      <trkpt lat="44.62646" lon="2.98764">
        <ele>1324.35</ele>
        <time>2012-04-28T10:13:31Z</time>
      </trkpt>
      <trkpt lat="44.62644" lon="2.98763">
        <ele>1320.51</ele>
        <time>2012-04-28T10:13:33Z</time>
      </trkpt>
      <trkpt lat="44.62643" lon="2.98763">
        <ele>1320.03</ele>
        <time>2012-04-28T10:13:34Z</time>
      </trkpt>
      <trkpt lat="44.62633" lon="2.98763">
        <ele>1316.18</ele>
        <time>2012-04-28T10:13:42Z</time>
      </trkpt>
      <trkpt lat="44.62632" lon="2.98764">
        <ele>1315.7</ele>
        <time>2012-04-28T10:13:43Z</time>
      </trkpt>
      <trkpt lat="44.62627" lon="2.98769">
        <ele>1316.66</ele>
        <time>2012-04-28T10:13:48Z</time>
      </trkpt>
      <trkpt lat="44.62621" lon="2.98769">
        <ele>1317.14</ele>
        <time>2012-04-28T10:13:54Z</time>
      </trkpt>
      <trkpt lat="44.6262" lon="2.98769">
        <ele>1313.3</ele>
        <time>2012-04-28T10:13:55Z</time>
      </trkpt>
      <trkpt lat="44.6262" lon="2.98769">
        <ele>1312.34</ele>
        <time>2012-04-28T10:13:57Z</time>
      </trkpt>
      <trkpt lat="44.62619" lon="2.98769">
        <ele>1311.86</ele>
        <time>2012-04-28T10:13:58Z</time>
      </trkpt>
      <trkpt lat="44.62617" lon="2.9877">
        <ele>1310.9</ele>
        <time>2012-04-28T10:14:00Z</time>
      </trkpt>
      <trkpt lat="44.62615" lon="2.9877">
        <ele>1307.05</ele>
        <time>2012-04-28T10:14:03Z</time>
      </trkpt>
      <trkpt lat="44.62615" lon="2.98771">
        <ele>1308.01</ele>
        <time>2012-04-28T10:14:04Z</time>
      </trkpt>
      <trkpt lat="44.62615" lon="2.98771">
        <ele>1311.86</ele>
        <time>2012-04-28T10:14:06Z</time>
      </trkpt>
      <trkpt lat="44.62614" lon="2.9877">
        <ele>1313.3</ele>
        <time>2012-04-28T10:14:09Z</time>
      </trkpt>
      <trkpt lat="44.62613" lon="2.98768">
        <ele>1310.41</ele>
        <time>2012-04-28T10:14:12Z</time>
      </trkpt>
      <trkpt lat="44.62611" lon="2.98767">
        <ele>1313.3</ele>
        <time>2012-04-28T10:14:16Z</time>
      </trkpt>
      <trkpt lat="44.62608" lon="2.98762">
        <ele>1313.78</ele>
        <time>2012-04-28T10:14:21Z</time>
      </trkpt>
      <trkpt lat="44.62602" lon="2.98756">
        <ele>1317.62</ele>
        <time>2012-04-28T10:14:26Z</time>
      </trkpt>
      <trkpt lat="44.626" lon="2.98754">
        <ele>1318.59</ele>
        <time>2012-04-28T10:14:28Z</time>
      </trkpt>
      <trkpt lat="44.62597" lon="2.98755">
        <ele>1315.22</ele>
        <time>2012-04-28T10:14:31Z</time>
      </trkpt>
      <trkpt lat="44.62596" lon="2.98755">
        <ele>1309.45</ele>
        <time>2012-04-28T10:14:34Z</time>
      </trkpt>
      <trkpt lat="44.62596" lon="2.98757">
        <ele>1315.22</ele>
        <time>2012-04-28T10:14:37Z</time>
      </trkpt>
      <trkpt lat="44.62596" lon="2.98757">
        <ele>1317.14</ele>
        <time>2012-04-28T10:14:39Z</time>
      </trkpt>
      <trkpt lat="44.62596" lon="2.98757">
        <ele>1316.18</ele>
        <time>2012-04-28T10:14:41Z</time>
      </trkpt>
      <trkpt lat="44.62595" lon="2.98757">
        <ele>1305.61</ele>
        <time>2012-04-28T10:14:52Z</time>
      </trkpt>
      <trkpt lat="44.62595" lon="2.98757">
        <ele>1307.53</ele>
        <time>2012-04-28T10:14:53Z</time>
      </trkpt>
      <trkpt lat="44.62595" lon="2.98757">
        <ele>1302.72</ele>
        <time>2012-04-28T10:14:54Z</time>
      </trkpt>
      <trkpt lat="44.62595" lon="2.98757">
        <ele>1316.18</ele>
        <time>2012-04-28T10:14:56Z</time>
      </trkpt>
      <trkpt lat="44.62594" lon="2.98757">
        <ele>1315.7</ele>
        <time>2012-04-28T10:14:57Z</time>
      </trkpt>
      <trkpt lat="44.62593" lon="2.98756">
        <ele>1313.78</ele>
        <time>2012-04-28T10:14:58Z</time>
      </trkpt>
      <trkpt lat="44.62586" lon="2.98752">
        <ele>1310.41</ele>
        <time>2012-04-28T10:15:06Z</time>
      </trkpt>
      <trkpt lat="44.62585" lon="2.98751">
        <ele>1308.49</ele>
        <time>2012-04-28T10:15:07Z</time>
      </trkpt>
      <trkpt lat="44.6258" lon="2.98751">
        <ele>1306.57</ele>
        <time>2012-04-28T10:15:11Z</time>
      </trkpt>
      <trkpt lat="44.62575" lon="2.9875">
        <ele>1305.61</ele>
        <time>2012-04-28T10:15:14Z</time>
      </trkpt>
      <trkpt lat="44.62569" lon="2.9875">
        <ele>1303.69</ele>
        <time>2012-04-28T10:15:19Z</time>
      </trkpt>
      <trkpt lat="44.6255" lon="2.98747">
        <ele>1303.2</ele>
        <time>2012-04-28T10:15:32Z</time>
      </trkpt>
      <trkpt lat="44.62547" lon="2.98745">
        <ele>1307.05</ele>
        <time>2012-04-28T10:15:35Z</time>
      </trkpt>
      <trkpt lat="44.62545" lon="2.98745">
        <ele>1310.9</ele>
        <time>2012-04-28T10:15:37Z</time>
      </trkpt>
      <trkpt lat="44.62543" lon="2.98745">
        <ele>1306.57</ele>
        <time>2012-04-28T10:15:39Z</time>
      </trkpt>
      <trkpt lat="44.62542" lon="2.98746">
        <ele>1306.57</ele>
        <time>2012-04-28T10:15:40Z</time>
      </trkpt>
      <trkpt lat="44.62537" lon="2.98748">
        <ele>1302.24</ele>
        <time>2012-04-28T10:15:46Z</time>
      </trkpt>
      <trkpt lat="44.62536" lon="2.98748">
        <ele>1306.09</ele>
        <time>2012-04-28T10:15:51Z</time>
      </trkpt>
      <trkpt lat="44.62534" lon="2.98747">
        <ele>1301.76</ele>
        <time>2012-04-28T10:15:58Z</time>
      </trkpt>
      <trkpt lat="44.62534" lon="2.98747">
        <ele>1305.61</ele>
        <time>2012-04-28T10:15:59Z</time>
      </trkpt>
      <trkpt lat="44.62534" lon="2.98747">
        <ele>1303.69</ele>
        <time>2012-04-28T10:16:03Z</time>
      </trkpt>
      <trkpt lat="44.62532" lon="2.98745">
        <ele>1303.2</ele>
        <time>2012-04-28T10:16:07Z</time>
      </trkpt>
      <trkpt lat="44.62528" lon="2.98743">
        <ele>1301.28</ele>
        <time>2012-04-28T10:16:10Z</time>
      </trkpt>
      <trkpt lat="44.62521" lon="2.98737">
        <ele>1300.32</ele>
        <time>2012-04-28T10:16:18Z</time>
      </trkpt>
      <trkpt lat="44.62516" lon="2.98735">
        <ele>1300.8</ele>
        <time>2012-04-28T10:16:29Z</time>
      </trkpt>
      <trkpt lat="44.62515" lon="2.98733">
        <ele>1300.8</ele>
        <time>2012-04-28T10:16:31Z</time>
      </trkpt>
      <trkpt lat="44.62512" lon="2.98731">
        <ele>1301.28</ele>
        <time>2012-04-28T10:16:34Z</time>
      </trkpt>
      <trkpt lat="44.62511" lon="2.98731">
        <ele>1302.24</ele>
        <time>2012-04-28T10:16:36Z</time>
      </trkpt>
      <trkpt lat="44.62503" lon="2.98733">
        <ele>1302.24</ele>
        <time>2012-04-28T10:16:43Z</time>
      </trkpt>
      <trkpt lat="44.62501" lon="2.98733">
        <ele>1300.32</ele>
        <time>2012-04-28T10:16:45Z</time>
      </trkpt>
      <trkpt lat="44.62499" lon="2.98731">
        <ele>1298.88</ele>
        <time>2012-04-28T10:16:47Z</time>
      </trkpt>
      <trkpt lat="44.62497" lon="2.98731">
        <ele>1302.24</ele>
        <time>2012-04-28T10:16:49Z</time>
      </trkpt>
      <trkpt lat="44.62495" lon="2.9873">
        <ele>1298.88</ele>
        <time>2012-04-28T10:16:51Z</time>
      </trkpt>
      <trkpt lat="44.62494" lon="2.9873">
        <ele>1299.36</ele>
        <time>2012-04-28T10:16:52Z</time>
      </trkpt>
      <trkpt lat="44.62478" lon="2.98727">
        <ele>1300.32</ele>
        <time>2012-04-28T10:17:05Z</time>
      </trkpt>
      <trkpt lat="44.62477" lon="2.98727">
        <ele>1298.4</ele>
        <time>2012-04-28T10:17:07Z</time>
      </trkpt>
      <trkpt lat="44.62469" lon="2.98727">
        <ele>1299.36</ele>
        <time>2012-04-28T10:17:13Z</time>
      </trkpt>
      <trkpt lat="44.62463" lon="2.98727">
        <ele>1297.92</ele>
        <time>2012-04-28T10:17:18Z</time>
      </trkpt>
      <trkpt lat="44.62455" lon="2.98725">
        <ele>1299.84</ele>
        <time>2012-04-28T10:17:25Z</time>
      </trkpt>
      <trkpt lat="44.62454" lon="2.98725">
        <ele>1298.88</ele>
        <time>2012-04-28T10:17:26Z</time>
      </trkpt>
      <trkpt lat="44.62448" lon="2.98724">
        <ele>1302.24</ele>
        <time>2012-04-28T10:17:30Z</time>
      </trkpt>
      <trkpt lat="44.62442" lon="2.98723">
        <ele>1302.72</ele>
        <time>2012-04-28T10:17:35Z</time>
      </trkpt>
      <trkpt lat="44.6244" lon="2.98723">
        <ele>1299.84</ele>
        <time>2012-04-28T10:17:36Z</time>
      </trkpt>
      <trkpt lat="44.62439" lon="2.98723">
        <ele>1300.8</ele>
        <time>2012-04-28T10:17:37Z</time>
      </trkpt>
      <trkpt lat="44.62437" lon="2.98722">
        <ele>1299.36</ele>
        <time>2012-04-28T10:17:39Z</time>
      </trkpt>
      <trkpt lat="44.62431" lon="2.98723">
        <ele>1298.88</ele>
        <time>2012-04-28T10:17:44Z</time>
      </trkpt>
      <trkpt lat="44.62429" lon="2.98724">
        <ele>1298.88</ele>
        <time>2012-04-28T10:17:45Z</time>
      </trkpt>
      <trkpt lat="44.62424" lon="2.98723">
        <ele>1299.84</ele>
        <time>2012-04-28T10:17:49Z</time>
      </trkpt>
      <trkpt lat="44.62414" lon="2.98723">
        <ele>1300.8</ele>
        <time>2012-04-28T10:17:58Z</time>
      </trkpt>
      <trkpt lat="44.62403" lon="2.98722">
        <ele>1299.84</ele>
        <time>2012-04-28T10:18:12Z</time>
      </trkpt>
      <trkpt lat="44.62401" lon="2.9872">
        <ele>1299.36</ele>
        <time>2012-04-28T10:18:27Z</time>
      </trkpt>
      <trkpt lat="44.624" lon="2.98719">
        <ele>1303.2</ele>
        <time>2012-04-28T10:18:32Z</time>
      </trkpt>
      <trkpt lat="44.62399" lon="2.98719">
        <ele>1303.2</ele>
        <time>2012-04-28T10:18:33Z</time>
      </trkpt>
      <trkpt lat="44.62398" lon="2.98719">
        <ele>1303.69</ele>
        <time>2012-04-28T10:18:37Z</time>
      </trkpt>
      <trkpt lat="44.62395" lon="2.98717">
        <ele>1302.72</ele>
        <time>2012-04-28T10:18:41Z</time>
      </trkpt>
      <trkpt lat="44.62386" lon="2.98711">
        <ele>1301.76</ele>
        <time>2012-04-28T10:18:50Z</time>
      </trkpt>
      <trkpt lat="44.62383" lon="2.98709">
        <ele>1301.28</ele>
        <time>2012-04-28T10:18:53Z</time>
      </trkpt>
      <trkpt lat="44.62381" lon="2.98707">
        <ele>1301.76</ele>
        <time>2012-04-28T10:18:55Z</time>
      </trkpt>
      <trkpt lat="44.62379" lon="2.98706">
        <ele>1301.28</ele>
        <time>2012-04-28T10:18:58Z</time>
      </trkpt>
      <trkpt lat="44.62376" lon="2.98704">
        <ele>1300.8</ele>
        <time>2012-04-28T10:19:02Z</time>
      </trkpt>
      <trkpt lat="44.62366" lon="2.98701">
        <ele>1296.96</ele>
        <time>2012-04-28T10:19:11Z</time>
      </trkpt>
      <trkpt lat="44.62361" lon="2.987">
        <ele>1295.03</ele>
        <time>2012-04-28T10:19:17Z</time>
      </trkpt>
      <trkpt lat="44.62353" lon="2.98698">
        <ele>1295.51</ele>
        <time>2012-04-28T10:19:24Z</time>
      </trkpt>
      <trkpt lat="44.6235" lon="2.98701">
        <ele>1296.96</ele>
        <time>2012-04-28T10:19:27Z</time>
      </trkpt>
      <trkpt lat="44.62346" lon="2.98701">
        <ele>1292.15</ele>
        <time>2012-04-28T10:19:30Z</time>
      </trkpt>
      <trkpt lat="44.62345" lon="2.98701">
        <ele>1293.11</ele>
        <time>2012-04-28T10:19:31Z</time>
      </trkpt>
      <trkpt lat="44.62344" lon="2.98703">
        <ele>1294.55</ele>
        <time>2012-04-28T10:19:34Z</time>
      </trkpt>
      <trkpt lat="44.62341" lon="2.98705">
        <ele>1294.07</ele>
        <time>2012-04-28T10:19:37Z</time>
      </trkpt>
      <trkpt lat="44.62336" lon="2.9871">
        <ele>1294.07</ele>
        <time>2012-04-28T10:19:45Z</time>
      </trkpt>
      <trkpt lat="44.62332" lon="2.98714">
        <ele>1294.07</ele>
        <time>2012-04-28T10:19:49Z</time>
      </trkpt>
      <trkpt lat="44.62327" lon="2.98722">
        <ele>1295.03</ele>
        <time>2012-04-28T10:19:55Z</time>
      </trkpt>
      <trkpt lat="44.62324" lon="2.98727">
        <ele>1290.71</ele>
        <time>2012-04-28T10:19:58Z</time>
      </trkpt>
      <trkpt lat="44.62323" lon="2.98729">
        <ele>1292.15</ele>
        <time>2012-04-28T10:19:59Z</time>
      </trkpt>
      <trkpt lat="44.62312" lon="2.98745">
        <ele>1292.63</ele>
        <time>2012-04-28T10:20:11Z</time>
      </trkpt>
      <trkpt lat="44.62309" lon="2.98746">
        <ele>1291.67</ele>
        <time>2012-04-28T10:20:16Z</time>
      </trkpt>
      <trkpt lat="44.62307" lon="2.98746">
        <ele>1293.11</ele>
        <time>2012-04-28T10:20:19Z</time>
      </trkpt>
      <trkpt lat="44.62306" lon="2.98745">
        <ele>1293.11</ele>
        <time>2012-04-28T10:20:21Z</time>
      </trkpt>
      <trkpt lat="44.62302" lon="2.98742">
        <ele>1296.48</ele>
        <time>2012-04-28T10:20:26Z</time>
      </trkpt>
      <trkpt lat="44.62299" lon="2.98739">
        <ele>1294.55</ele>
        <time>2012-04-28T10:20:29Z</time>
      </trkpt>
      <trkpt lat="44.62297" lon="2.98736">
        <ele>1295.99</ele>
        <time>2012-04-28T10:20:34Z</time>
      </trkpt>
      <trkpt lat="44.62297" lon="2.98736">
        <ele>1296.96</ele>
        <time>2012-04-28T10:20:35Z</time>
      </trkpt>
      <trkpt lat="44.62296" lon="2.98734">
        <ele>1296.48</ele>
        <time>2012-04-28T10:20:37Z</time>
      </trkpt>
      <trkpt lat="44.62292" lon="2.98728">
        <ele>1295.99</ele>
        <time>2012-04-28T10:20:42Z</time>
      </trkpt>
      <trkpt lat="44.62288" lon="2.98725">
        <ele>1297.92</ele>
        <time>2012-04-28T10:20:46Z</time>
      </trkpt>
      <trkpt lat="44.62278" lon="2.98715">
        <ele>1298.88</ele>
        <time>2012-04-28T10:20:59Z</time>
      </trkpt>
      <trkpt lat="44.62278" lon="2.98714">
        <ele>1299.36</ele>
        <time>2012-04-28T10:21:02Z</time>
      </trkpt>
      <trkpt lat="44.62275" lon="2.98709">
        <ele>1299.84</ele>
        <time>2012-04-28T10:21:06Z</time>
      </trkpt>
      <trkpt lat="44.62273" lon="2.98708">
        <ele>1301.28</ele>
        <time>2012-04-28T10:21:08Z</time>
      </trkpt>
      <trkpt lat="44.62273" lon="2.98705">
        <ele>1301.28</ele>
        <time>2012-04-28T10:21:10Z</time>
      </trkpt>
      <trkpt lat="44.62265" lon="2.987">
        <ele>1302.24</ele>
        <time>2012-04-28T10:21:23Z</time>
      </trkpt>
      <trkpt lat="44.62263" lon="2.98698">
        <ele>1305.13</ele>
        <time>2012-04-28T10:21:25Z</time>
      </trkpt>
      <trkpt lat="44.62258" lon="2.98695">
        <ele>1303.2</ele>
        <time>2012-04-28T10:21:34Z</time>
      </trkpt>
      <trkpt lat="44.62258" lon="2.98695">
        <ele>1305.61</ele>
        <time>2012-04-28T10:21:37Z</time>
      </trkpt>
      <trkpt lat="44.62255" lon="2.98691">
        <ele>1307.05</ele>
        <time>2012-04-28T10:21:43Z</time>
      </trkpt>
      <trkpt lat="44.62254" lon="2.98691">
        <ele>1303.69</ele>
        <time>2012-04-28T10:21:44Z</time>
      </trkpt>
      <trkpt lat="44.62254" lon="2.98691">
        <ele>1304.17</ele>
        <time>2012-04-28T10:21:45Z</time>
      </trkpt>
      <trkpt lat="44.62249" lon="2.98691">
        <ele>1307.05</ele>
        <time>2012-04-28T10:21:56Z</time>
      </trkpt>
      <trkpt lat="44.62247" lon="2.98691">
        <ele>1303.69</ele>
        <time>2012-04-28T10:21:58Z</time>
      </trkpt>
      <trkpt lat="44.62245" lon="2.98691">
        <ele>1304.65</ele>
        <time>2012-04-28T10:22:00Z</time>
      </trkpt>
      <trkpt lat="44.62237" lon="2.98691">
        <ele>1308.49</ele>
        <time>2012-04-28T10:22:08Z</time>
      </trkpt>
      <trkpt lat="44.62237" lon="2.98691">
        <ele>1304.65</ele>
        <time>2012-04-28T10:22:09Z</time>
      </trkpt>
      <trkpt lat="44.62235" lon="2.98692">
        <ele>1306.57</ele>
        <time>2012-04-28T10:22:13Z</time>
      </trkpt>
      <trkpt lat="44.62231" lon="2.98693">
        <ele>1305.61</ele>
        <time>2012-04-28T10:22:28Z</time>
      </trkpt>
      <trkpt lat="44.6223" lon="2.98692">
        <ele>1308.97</ele>
        <time>2012-04-28T10:22:30Z</time>
      </trkpt>
      <trkpt lat="44.62229" lon="2.98691">
        <ele>1307.53</ele>
        <time>2012-04-28T10:22:31Z</time>
      </trkpt>
      <trkpt lat="44.62227" lon="2.9869">
        <ele>1318.1</ele>
        <time>2012-04-28T10:22:33Z</time>
      </trkpt>
      <trkpt lat="44.62226" lon="2.9869">
        <ele>1311.86</ele>
        <time>2012-04-28T10:22:34Z</time>
      </trkpt>
      <trkpt lat="44.62223" lon="2.98687">
        <ele>1309.45</ele>
        <time>2012-04-28T10:22:37Z</time>
      </trkpt>
      <trkpt lat="44.62219" lon="2.98687">
        <ele>1305.61</ele>
        <time>2012-04-28T10:22:44Z</time>
      </trkpt>
      <trkpt lat="44.62218" lon="2.98688">
        <ele>1308.49</ele>
        <time>2012-04-28T10:22:45Z</time>
      </trkpt>
      <trkpt lat="44.62216" lon="2.98691">
        <ele>1307.05</ele>
        <time>2012-04-28T10:22:49Z</time>
      </trkpt>
      <trkpt lat="44.62214" lon="2.98693">
        <ele>1305.61</ele>
        <time>2012-04-28T10:22:51Z</time>
      </trkpt>
      <trkpt lat="44.62213" lon="2.98694">
        <ele>1306.09</ele>
        <time>2012-04-28T10:22:52Z</time>
      </trkpt>
      <trkpt lat="44.62211" lon="2.98692">
        <ele>1302.24</ele>
        <time>2012-04-28T10:22:54Z</time>
      </trkpt>
      <trkpt lat="44.62211" lon="2.98693">
        <ele>1300.8</ele>
        <time>2012-04-28T10:22:57Z</time>
      </trkpt>
      <trkpt lat="44.62212" lon="2.98694">
        <ele>1305.61</ele>
        <time>2012-04-28T10:22:59Z</time>
      </trkpt>
      <trkpt lat="44.62212" lon="2.98694">
        <ele>1306.57</ele>
        <time>2012-04-28T10:23:01Z</time>
      </trkpt>
      <trkpt lat="44.62212" lon="2.98694">
        <ele>1311.38</ele>
        <time>2012-04-28T10:23:03Z</time>
      </trkpt>
      <trkpt lat="44.62212" lon="2.98694">
        <ele>1309.45</ele>
        <time>2012-04-28T10:23:04Z</time>
      </trkpt>
      <trkpt lat="44.62212" lon="2.98694">
        <ele>1306.09</ele>
        <time>2012-04-28T10:23:05Z</time>
      </trkpt>
      <trkpt lat="44.62212" lon="2.98694">
        <ele>1305.61</ele>
        <time>2012-04-28T10:23:06Z</time>
      </trkpt>
      <trkpt lat="44.62211" lon="2.98694">
        <ele>1307.05</ele>
        <time>2012-04-28T10:23:19Z</time>
      </trkpt>
      <trkpt lat="44.62211" lon="2.98694">
        <ele>1306.09</ele>
        <time>2012-04-28T10:23:20Z</time>
      </trkpt>
      <trkpt lat="44.62209" lon="2.98695">
        <ele>1303.69</ele>
        <time>2012-04-28T10:23:22Z</time>
      </trkpt>
      <trkpt lat="44.62206" lon="2.98695">
        <ele>1302.72</ele>
        <time>2012-04-28T10:23:24Z</time>
      </trkpt>
      <trkpt lat="44.62202" lon="2.98697">
        <ele>1300.32</ele>
        <time>2012-04-28T10:23:28Z</time>
      </trkpt>
      <trkpt lat="44.59322" lon="2.92921">
        <ele>883.11</ele>
        <time>2012-04-28T14:42:40Z</time>
      </trkpt>
      <trkpt lat="44.59321" lon="2.92915">
        <ele>884.07</ele>
        <time>2012-04-28T14:42:43Z</time>
      </trkpt>
      <trkpt lat="44.59316" lon="2.92892">
        <ele>885.99</ele>
        <time>2012-04-28T14:43:16Z</time>
      </trkpt>
      <trkpt lat="44.59311" lon="2.92885">
        <ele>888.4</ele>
        <time>2012-04-28T14:43:52Z</time>
      </trkpt>
      <trkpt lat="44.59317" lon="2.92874">
        <ele>884.55</ele>
        <time>2012-04-28T14:44:17Z</time>
      </trkpt>
      <trkpt lat="44.59316" lon="2.92875">
        <ele>878.78</ele>
        <time>2012-04-28T14:44:19Z</time>
      </trkpt>
      <trkpt lat="44.59316" lon="2.92876">
        <ele>874.46</ele>
        <time>2012-04-28T14:44:21Z</time>
      </trkpt>
      <trkpt lat="44.59316" lon="2.92877">
        <ele>871.09</ele>
        <time>2012-04-28T14:44:23Z</time>
      </trkpt>
      <trkpt lat="44.59316" lon="2.92877">
        <ele>867.25</ele>
        <time>2012-04-28T14:44:25Z</time>
      </trkpt>
      <trkpt lat="44.59316" lon="2.92877">
        <ele>864.36</ele>
        <time>2012-04-28T14:44:27Z</time>
      </trkpt>
      <trkpt lat="44.59316" lon="2.92877">
        <ele>860.52</ele>
        <time>2012-04-28T14:44:30Z</time>
      </trkpt>
      <trkpt lat="44.59316" lon="2.92877">
        <ele>857.63</ele>
        <time>2012-04-28T14:44:33Z</time>
      </trkpt>
      <trkpt lat="44.59316" lon="2.92877">
        <ele>854.27</ele>
        <time>2012-04-28T14:44:35Z</time>
      </trkpt>
      <trkpt lat="44.59316" lon="2.92877">
        <ele>850.9</ele>
        <time>2012-04-28T14:44:39Z</time>
      </trkpt>
      <trkpt lat="44.59316" lon="2.92877">
        <ele>846.58</ele>
        <time>2012-04-28T14:44:44Z</time>
      </trkpt>
      <trkpt lat="44.59316" lon="2.92877">
        <ele>843.21</ele>
        <time>2012-04-28T14:44:48Z</time>
      </trkpt>
      <trkpt lat="44.59316" lon="2.92877">
        <ele>840.33</ele>
        <time>2012-04-28T14:44:52Z</time>
      </trkpt>
      <trkpt lat="44.59316" lon="2.92877">
        <ele>836.96</ele>
        <time>2012-04-28T14:44:59Z</time>
      </trkpt>
      <trkpt lat="44.59316" lon="2.92877">
        <ele>833.12</ele>
        <time>2012-04-28T14:45:17Z</time>
      </trkpt>
      <trkpt lat="44.59316" lon="2.92877">
        <ele>833.12</ele>
        <time>2012-04-28T14:45:18Z</time>
      </trkpt>
      <trkpt lat="44.59316" lon="2.92877">
        <ele>829.76</ele>
        <time>2012-04-28T14:45:32Z</time>
      </trkpt>
      <trkpt lat="44.59316" lon="2.92877">
        <ele>828.31</ele>
        <time>2012-04-28T14:45:38Z</time>
      </trkpt>
      <trkpt lat="44.59315" lon="2.92877">
        <ele>831.68</ele>
        <time>2012-04-28T14:46:01Z</time>
      </trkpt>
      <trkpt lat="44.59315" lon="2.92877">
        <ele>831.68</ele>
        <time>2012-04-28T14:46:21Z</time>
      </trkpt>
      <trkpt lat="44.59315" lon="2.92877">
        <ele>828.79</ele>
        <time>2012-04-28T14:46:24Z</time>
      </trkpt>
      <trkpt lat="44.59314" lon="2.92877">
        <ele>830.72</ele>
        <time>2012-04-28T14:47:06Z</time>
      </trkpt>
      <trkpt lat="44.59314" lon="2.92877">
        <ele>832.64</ele>
        <time>2012-04-28T14:47:21Z</time>
      </trkpt>
      <trkpt lat="44.59314" lon="2.92878">
        <ele>830.24</ele>
        <time>2012-04-28T14:48:01Z</time>
      </trkpt>
      <trkpt lat="44.59314" lon="2.92878">
        <ele>831.68</ele>
        <time>2012-04-28T14:48:27Z</time>
      </trkpt>
      <trkpt lat="44.59314" lon="2.92878">
        <ele>832.16</ele>
        <time>2012-04-28T14:49:03Z</time>
      </trkpt>
      <trkpt lat="44.59314" lon="2.92878">
        <ele>828.79</ele>
        <time>2012-04-28T14:49:29Z</time>
      </trkpt>
      <trkpt lat="44.59309" lon="2.9288">
        <ele>830.24</ele>
        <time>2012-04-28T14:50:01Z</time>
      </trkpt>
      <trkpt lat="44.59309" lon="2.9288">
        <ele>828.31</ele>
        <time>2012-04-28T14:50:38Z</time>
      </trkpt>
      <trkpt lat="44.59309" lon="2.92881">
        <ele>831.68</ele>
        <time>2012-04-28T14:50:54Z</time>
      </trkpt>
      <trkpt lat="44.59309" lon="2.92881">
        <ele>828.31</ele>
        <time>2012-04-28T14:51:03Z</time>
      </trkpt>
      <trkpt lat="44.59309" lon="2.92881">
        <ele>829.76</ele>
        <time>2012-04-28T14:51:42Z</time>
      </trkpt>
      <trkpt lat="44.59309" lon="2.92881">
        <ele>831.2</ele>
        <time>2012-04-28T14:52:16Z</time>
      </trkpt>
      <trkpt lat="44.59309" lon="2.92881">
        <ele>830.72</ele>
        <time>2012-04-28T14:52:49Z</time>
      </trkpt>
      <trkpt lat="44.59309" lon="2.92881">
        <ele>831.68</ele>
        <time>2012-04-28T14:53:10Z</time>
      </trkpt>
      <trkpt lat="44.59309" lon="2.92881">
        <ele>834.56</ele>
        <time>2012-04-28T14:53:43Z</time>
      </trkpt>
      <trkpt lat="44.59309" lon="2.92881">
        <ele>833.12</ele>
        <time>2012-04-28T14:54:19Z</time>
      </trkpt>
      <trkpt lat="44.59309" lon="2.92881">
        <ele>829.76</ele>
        <time>2012-04-28T14:54:50Z</time>
      </trkpt>
      <trkpt lat="44.59309" lon="2.92881">
        <ele>829.76</ele>
        <time>2012-04-28T14:54:51Z</time>
      </trkpt>
      <trkpt lat="44.59309" lon="2.92881">
        <ele>833.12</ele>
        <time>2012-04-28T14:54:56Z</time>
      </trkpt>
      <trkpt lat="44.59309" lon="2.92881">
        <ele>832.64</ele>
        <time>2012-04-28T14:55:17Z</time>
      </trkpt>
      <trkpt lat="44.59311" lon="2.92882">
        <ele>832.64</ele>
        <time>2012-04-28T14:55:43Z</time>
      </trkpt>
      <trkpt lat="44.59311" lon="2.92882">
        <ele>832.64</ele>
        <time>2012-04-28T14:56:17Z</time>
      </trkpt>
      <trkpt lat="44.59311" lon="2.92882">
        <ele>833.6</ele>
        <time>2012-04-28T14:56:47Z</time>
      </trkpt>
      <trkpt lat="44.59311" lon="2.92881">
        <ele>835.04</ele>
        <time>2012-04-28T14:57:18Z</time>
      </trkpt>
      <trkpt lat="44.5931" lon="2.92881">
        <ele>834.56</ele>
        <time>2012-04-28T14:58:00Z</time>
      </trkpt>
      <trkpt lat="44.59302" lon="2.9288">
        <ele>836.48</ele>
        <time>2012-04-28T14:58:28Z</time>
      </trkpt>
      <trkpt lat="44.59302" lon="2.9288">
        <ele>836</ele>
        <time>2012-04-28T14:58:59Z</time>
      </trkpt>
      <trkpt lat="44.59302" lon="2.9288">
        <ele>835.04</ele>
        <time>2012-04-28T14:59:34Z</time>
      </trkpt>
      <trkpt lat="44.59302" lon="2.9288">
        <ele>835.04</ele>
        <time>2012-04-28T15:00:08Z</time>
      </trkpt>
      <trkpt lat="44.59302" lon="2.9288">
        <ele>832.64</ele>
        <time>2012-04-28T15:00:13Z</time>
      </trkpt>
      <trkpt lat="44.59302" lon="2.9288">
        <ele>836</ele>
        <time>2012-04-28T15:00:30Z</time>
      </trkpt>
      <trkpt lat="44.59302" lon="2.9288">
        <ele>833.6</ele>
        <time>2012-04-28T15:01:08Z</time>
      </trkpt>
      <trkpt lat="44.59302" lon="2.9288">
        <ele>833.12</ele>
        <time>2012-04-28T15:01:32Z</time>
      </trkpt>
      <trkpt lat="44.59302" lon="2.92879">
        <ele>836</ele>
        <time>2012-04-28T15:01:55Z</time>
      </trkpt>
      <trkpt lat="44.59302" lon="2.92879">
        <ele>836</ele>
        <time>2012-04-28T15:01:56Z</time>
      </trkpt>
      <trkpt lat="44.59302" lon="2.9288">
        <ele>836.96</ele>
        <time>2012-04-28T15:02:38Z</time>
      </trkpt>
      <trkpt lat="44.59302" lon="2.9288">
        <ele>835.52</ele>
        <time>2012-04-28T15:02:59Z</time>
      </trkpt>
      <trkpt lat="44.59302" lon="2.9288">
        <ele>836.48</ele>
        <time>2012-04-28T15:03:02Z</time>
      </trkpt>
      <trkpt lat="44.59302" lon="2.9288">
        <ele>834.08</ele>
        <time>2012-04-28T15:03:24Z</time>
      </trkpt>
      <trkpt lat="44.59302" lon="2.9288">
        <ele>833.6</ele>
        <time>2012-04-28T15:03:29Z</time>
      </trkpt>
      <trkpt lat="44.59303" lon="2.9288">
        <ele>836.96</ele>
        <time>2012-04-28T15:04:09Z</time>
      </trkpt>
      <trkpt lat="44.59303" lon="2.92881">
        <ele>836.48</ele>
        <time>2012-04-28T15:04:47Z</time>
      </trkpt>
      <trkpt lat="44.59303" lon="2.92881">
        <ele>837.45</ele>
        <time>2012-04-28T15:05:24Z</time>
      </trkpt>
      <trkpt lat="44.59303" lon="2.92881">
        <ele>840.81</ele>
        <time>2012-04-28T15:05:38Z</time>
      </trkpt>
      <trkpt lat="44.59304" lon="2.92881">
        <ele>839.37</ele>
        <time>2012-04-28T15:05:43Z</time>
      </trkpt>
      <trkpt lat="44.59304" lon="2.92881">
        <ele>840.81</ele>
        <time>2012-04-28T15:05:59Z</time>
      </trkpt>
      <trkpt lat="44.59304" lon="2.92881">
        <ele>837.93</ele>
        <time>2012-04-28T15:06:14Z</time>
      </trkpt>
      <trkpt lat="44.59305" lon="2.92881">
        <ele>838.89</ele>
        <time>2012-04-28T15:06:44Z</time>
      </trkpt>
      <trkpt lat="44.59305" lon="2.92881">
        <ele>835.04</ele>
        <time>2012-04-28T15:07:05Z</time>
      </trkpt>
      <trkpt lat="44.59305" lon="2.92881">
        <ele>831.68</ele>
        <time>2012-04-28T15:07:14Z</time>
      </trkpt>
      <trkpt lat="44.59305" lon="2.92881">
        <ele>835.52</ele>
        <time>2012-04-28T15:07:16Z</time>
      </trkpt>
      <trkpt lat="44.59305" lon="2.92881">
        <ele>832.64</ele>
        <time>2012-04-28T15:07:24Z</time>
      </trkpt>
      <trkpt lat="44.59305" lon="2.92881">
        <ele>836</ele>
        <time>2012-04-28T15:07:33Z</time>
      </trkpt>
      <trkpt lat="44.59305" lon="2.92881">
        <ele>836.96</ele>
        <time>2012-04-28T15:07:35Z</time>
      </trkpt>
      <trkpt lat="44.59305" lon="2.92881">
        <ele>838.41</ele>
        <time>2012-04-28T15:07:39Z</time>
      </trkpt>
      <trkpt lat="44.59305" lon="2.92882">
        <ele>836.48</ele>
        <time>2012-04-28T15:08:04Z</time>
      </trkpt>
      <trkpt lat="44.59305" lon="2.92882">
        <ele>835.04</ele>
        <time>2012-04-28T15:08:20Z</time>
      </trkpt>
      <trkpt lat="44.59305" lon="2.92882">
        <ele>836.48</ele>
        <time>2012-04-28T15:08:22Z</time>
      </trkpt>
      <trkpt lat="44.59303" lon="2.92884">
        <ele>836.96</ele>
        <time>2012-04-28T15:08:47Z</time>
      </trkpt>
      <trkpt lat="44.59303" lon="2.92884">
        <ele>840.81</ele>
        <time>2012-04-28T15:08:57Z</time>
      </trkpt>
      <trkpt lat="44.59303" lon="2.92884">
        <ele>840.33</ele>
        <time>2012-04-28T15:08:58Z</time>
      </trkpt>
      <trkpt lat="44.59303" lon="2.92884">
        <ele>837.45</ele>
        <time>2012-04-28T15:09:00Z</time>
      </trkpt>
      <trkpt lat="44.59304" lon="2.92884">
        <ele>839.85</ele>
        <time>2012-04-28T15:09:16Z</time>
      </trkpt>
      <trkpt lat="44.59304" lon="2.92884">
        <ele>838.41</ele>
        <time>2012-04-28T15:09:42Z</time>
      </trkpt>
      <trkpt lat="44.59304" lon="2.92884">
        <ele>839.37</ele>
        <time>2012-04-28T15:10:01Z</time>
      </trkpt>
      <trkpt lat="44.59304" lon="2.92884">
        <ele>839.37</ele>
        <time>2012-04-28T15:10:16Z</time>
      </trkpt>
      <trkpt lat="44.59304" lon="2.92884">
        <ele>836.48</ele>
        <time>2012-04-28T15:10:48Z</time>
      </trkpt>
      <trkpt lat="44.59304" lon="2.92884">
        <ele>838.41</ele>
        <time>2012-04-28T15:11:26Z</time>
      </trkpt>
      <trkpt lat="44.59304" lon="2.92884">
        <ele>839.37</ele>
        <time>2012-04-28T15:11:39Z</time>
      </trkpt>
      <trkpt lat="44.59304" lon="2.92884">
        <ele>839.37</ele>
        <time>2012-04-28T15:12:07Z</time>
      </trkpt>
      <trkpt lat="44.59304" lon="2.92885">
        <ele>837.93</ele>
        <time>2012-04-28T15:12:38Z</time>
      </trkpt>
      <trkpt lat="44.59304" lon="2.92885">
        <ele>838.41</ele>
        <time>2012-04-28T15:13:01Z</time>
      </trkpt>
      <trkpt lat="44.59304" lon="2.92885">
        <ele>842.73</ele>
        <time>2012-04-28T15:13:08Z</time>
      </trkpt>
      <trkpt lat="44.59304" lon="2.92885">
        <ele>842.25</ele>
        <time>2012-04-28T15:13:09Z</time>
      </trkpt>
      <trkpt lat="44.59304" lon="2.92885">
        <ele>838.41</ele>
        <time>2012-04-28T15:13:12Z</time>
      </trkpt>
      <trkpt lat="44.59304" lon="2.92885">
        <ele>835.52</ele>
        <time>2012-04-28T15:13:14Z</time>
      </trkpt>
      <trkpt lat="44.59304" lon="2.92885">
        <ele>833.6</ele>
        <time>2012-04-28T15:13:31Z</time>
      </trkpt>
      <trkpt lat="44.59304" lon="2.92885">
        <ele>834.56</ele>
        <time>2012-04-28T15:13:38Z</time>
      </trkpt>
      <trkpt lat="44.59304" lon="2.92884">
        <ele>838.41</ele>
        <time>2012-04-28T15:14:13Z</time>
      </trkpt>
      <trkpt lat="44.59305" lon="2.92884">
        <ele>838.41</ele>
        <time>2012-04-28T15:14:54Z</time>
      </trkpt>
      <trkpt lat="44.59305" lon="2.92884">
        <ele>838.41</ele>
        <time>2012-04-28T15:15:30Z</time>
      </trkpt>
      <trkpt lat="44.59305" lon="2.92884">
        <ele>835.04</ele>
        <time>2012-04-28T15:16:08Z</time>
      </trkpt>
      <trkpt lat="44.59305" lon="2.92884">
        <ele>838.41</ele>
        <time>2012-04-28T15:16:22Z</time>
      </trkpt>
      <trkpt lat="44.59305" lon="2.92884">
        <ele>842.25</ele>
        <time>2012-04-28T15:16:46Z</time>
      </trkpt>
      <trkpt lat="44.59305" lon="2.92884">
        <ele>841.77</ele>
        <time>2012-04-28T15:16:47Z</time>
      </trkpt>
      <trkpt lat="44.59305" lon="2.92884">
        <ele>838.89</ele>
        <time>2012-04-28T15:16:49Z</time>
      </trkpt>
      <trkpt lat="44.59305" lon="2.92884">
        <ele>836</ele>
        <time>2012-04-28T15:16:51Z</time>
      </trkpt>
      <trkpt lat="44.59305" lon="2.92884">
        <ele>838.89</ele>
        <time>2012-04-28T15:17:02Z</time>
      </trkpt>
      <trkpt lat="44.59305" lon="2.92884">
        <ele>838.89</ele>
        <time>2012-04-28T15:17:03Z</time>
      </trkpt>
      <trkpt lat="44.59305" lon="2.92884">
        <ele>838.41</ele>
        <time>2012-04-28T15:17:08Z</time>
      </trkpt>
      <trkpt lat="44.59305" lon="2.92884">
        <ele>837.93</ele>
        <time>2012-04-28T15:17:19Z</time>
      </trkpt>
      <trkpt lat="44.59305" lon="2.92884">
        <ele>838.89</ele>
        <time>2012-04-28T15:17:25Z</time>
      </trkpt>
      <trkpt lat="44.59305" lon="2.92884">
        <ele>840.33</ele>
        <time>2012-04-28T15:17:27Z</time>
      </trkpt>
      <trkpt lat="44.59305" lon="2.92884">
        <ele>839.85</ele>
        <time>2012-04-28T15:17:38Z</time>
      </trkpt>
      <trkpt lat="44.59305" lon="2.92884">
        <ele>840.33</ele>
        <time>2012-04-28T15:18:11Z</time>
      </trkpt>
      <trkpt lat="44.59332" lon="2.92881">
        <ele>845.14</ele>
        <time>2012-04-28T15:26:20Z</time>
      </trkpt>
      <trkpt lat="44.59333" lon="2.92882">
        <ele>844.18</ele>
        <time>2012-04-28T15:26:21Z</time>
      </trkpt>
      <trkpt lat="44.59333" lon="2.92886">
        <ele>841.77</ele>
        <time>2012-04-28T15:26:27Z</time>
      </trkpt>
      <trkpt lat="44.59321" lon="2.92883">
        <ele>843.69</ele>
        <time>2012-04-28T15:26:44Z</time>
      </trkpt>
      <trkpt lat="44.59318" lon="2.92883">
        <ele>845.14</ele>
        <time>2012-04-28T15:26:56Z</time>
      </trkpt>
      <trkpt lat="44.59317" lon="2.92882">
        <ele>841.77</ele>
        <time>2012-04-28T15:27:02Z</time>
      </trkpt>
      <trkpt lat="44.59316" lon="2.92882">
        <ele>841.29</ele>
        <time>2012-04-28T15:27:03Z</time>
      </trkpt>
      <trkpt lat="44.59316" lon="2.9288">
        <ele>845.14</ele>
        <time>2012-04-28T15:27:22Z</time>
      </trkpt>
      <trkpt lat="44.59314" lon="2.9288">
        <ele>848.5</ele>
        <time>2012-04-28T15:27:39Z</time>
      </trkpt>
      <trkpt lat="44.59316" lon="2.92883">
        <ele>848.5</ele>
        <time>2012-04-28T15:27:51Z</time>
      </trkpt>
      <trkpt lat="44.59311" lon="2.92896">
        <ele>848.02</ele>
        <time>2012-04-28T15:28:03Z</time>
      </trkpt>
      <trkpt lat="44.59312" lon="2.92896">
        <ele>847.54</ele>
        <time>2012-04-28T15:28:25Z</time>
      </trkpt>
      <trkpt lat="44.59312" lon="2.92896">
        <ele>849.46</ele>
        <time>2012-04-28T15:28:39Z</time>
      </trkpt>
      <trkpt lat="44.5931" lon="2.92896">
        <ele>850.9</ele>
        <time>2012-04-28T15:29:00Z</time>
      </trkpt>
      <trkpt lat="44.5931" lon="2.92896">
        <ele>849.94</ele>
        <time>2012-04-28T15:29:14Z</time>
      </trkpt>
      <trkpt lat="44.5931" lon="2.92896">
        <ele>850.9</ele>
        <time>2012-04-28T15:29:33Z</time>
      </trkpt>
      <trkpt lat="44.5931" lon="2.92893">
        <ele>849.94</ele>
        <time>2012-04-28T15:29:52Z</time>
      </trkpt>
      <trkpt lat="44.5931" lon="2.92893">
        <ele>851.38</ele>
        <time>2012-04-28T15:29:57Z</time>
      </trkpt>
      <trkpt lat="44.5931" lon="2.92892">
        <ele>851.38</ele>
        <time>2012-04-28T15:30:18Z</time>
      </trkpt>
      <trkpt lat="44.5931" lon="2.92892">
        <ele>849.46</ele>
        <time>2012-04-28T15:30:40Z</time>
      </trkpt>
      <trkpt lat="44.5931" lon="2.92892">
        <ele>849.46</ele>
        <time>2012-04-28T15:30:49Z</time>
      </trkpt>
      <trkpt lat="44.59309" lon="2.92892">
        <ele>849.94</ele>
        <time>2012-04-28T15:31:08Z</time>
      </trkpt>
      <trkpt lat="44.59309" lon="2.92892">
        <ele>848.98</ele>
        <time>2012-04-28T15:31:23Z</time>
      </trkpt>
      <trkpt lat="44.59302" lon="2.92895">
        <ele>848.98</ele>
        <time>2012-04-28T15:31:43Z</time>
      </trkpt>
      <trkpt lat="44.59303" lon="2.92897">
        <ele>848.5</ele>
        <time>2012-04-28T15:31:58Z</time>
      </trkpt>
      <trkpt lat="44.59302" lon="2.92897">
        <ele>846.1</ele>
        <time>2012-04-28T15:32:19Z</time>
      </trkpt>
      <trkpt lat="44.59299" lon="2.92898">
        <ele>848.02</ele>
        <time>2012-04-28T15:32:38Z</time>
      </trkpt>
      <trkpt lat="44.59303" lon="2.92905">
        <ele>848.98</ele>
        <time>2012-04-28T15:32:58Z</time>
      </trkpt>
      <trkpt lat="44.59297" lon="2.92897">
        <ele>850.42</ele>
        <time>2012-04-28T15:33:17Z</time>
      </trkpt>
      <trkpt lat="44.59294" lon="2.92896">
        <ele>849.46</ele>
        <time>2012-04-28T15:33:37Z</time>
      </trkpt>
      <trkpt lat="44.59285" lon="2.92899">
        <ele>848.98</ele>
        <time>2012-04-28T15:33:54Z</time>
      </trkpt>
      <trkpt lat="44.59284" lon="2.929">
        <ele>849.46</ele>
        <time>2012-04-28T15:33:55Z</time>
      </trkpt>
      <trkpt lat="44.59286" lon="2.92895">
        <ele>850.42</ele>
        <time>2012-04-28T15:34:03Z</time>
      </trkpt>
      <trkpt lat="44.59287" lon="2.92898">
        <ele>851.38</ele>
        <time>2012-04-28T15:34:15Z</time>
      </trkpt>
      <trkpt lat="44.59271" lon="2.92916">
        <ele>851.38</ele>
        <time>2012-04-28T15:34:38Z</time>
      </trkpt>
      <trkpt lat="44.59279" lon="2.92909">
        <ele>849.46</ele>
        <time>2012-04-28T15:34:43Z</time>
      </trkpt>
      <trkpt lat="44.59288" lon="2.92904">
        <ele>849.94</ele>
        <time>2012-04-28T15:34:59Z</time>
      </trkpt>
      <trkpt lat="44.59305" lon="2.92902">
        <ele>848.98</ele>
        <time>2012-04-28T15:35:19Z</time>
      </trkpt>
      <trkpt lat="44.59308" lon="2.92901">
        <ele>849.94</ele>
        <time>2012-04-28T15:35:33Z</time>
      </trkpt>
      <trkpt lat="44.59319" lon="2.92896">
        <ele>852.35</ele>
        <time>2012-04-28T15:35:43Z</time>
      </trkpt>
      <trkpt lat="44.59352" lon="2.92891">
        <ele>849.46</ele>
        <time>2012-04-28T15:36:04Z</time>
      </trkpt>
      <trkpt lat="44.59354" lon="2.9289">
        <ele>850.42</ele>
        <time>2012-04-28T15:36:10Z</time>
      </trkpt>
      <trkpt lat="44.59364" lon="2.92894">
        <ele>849.46</ele>
        <time>2012-04-28T15:36:28Z</time>
      </trkpt>
      <trkpt lat="44.5937" lon="2.92907">
        <ele>848.02</ele>
        <time>2012-04-28T15:36:50Z</time>
      </trkpt>
      <trkpt lat="44.59371" lon="2.92908">
        <ele>849.94</ele>
        <time>2012-04-28T15:36:53Z</time>
      </trkpt>
      <trkpt lat="44.59344" lon="2.92903">
        <ele>849.94</ele>
        <time>2012-04-28T15:37:19Z</time>
      </trkpt>
      <trkpt lat="44.59312" lon="2.92896">
        <ele>849.46</ele>
        <time>2012-04-28T15:37:37Z</time>
      </trkpt>
      <trkpt lat="44.59304" lon="2.92902">
        <ele>846.58</ele>
        <time>2012-04-28T15:37:55Z</time>
      </trkpt>
      <trkpt lat="44.59303" lon="2.92901">
        <ele>846.58</ele>
        <time>2012-04-28T15:37:56Z</time>
      </trkpt>
      <trkpt lat="44.593" lon="2.92899">
        <ele>848.98</ele>
        <time>2012-04-28T15:38:04Z</time>
      </trkpt>
      <trkpt lat="44.59295" lon="2.92899">
        <ele>852.35</ele>
        <time>2012-04-28T15:38:10Z</time>
      </trkpt>
      <trkpt lat="44.59293" lon="2.929">
        <ele>855.23</ele>
        <time>2012-04-28T15:38:28Z</time>
      </trkpt>
      <trkpt lat="44.59293" lon="2.929">
        <ele>854.27</ele>
        <time>2012-04-28T15:38:33Z</time>
      </trkpt>
      <trkpt lat="44.59294" lon="2.92899">
        <ele>853.79</ele>
        <time>2012-04-28T15:38:49Z</time>
      </trkpt>
      <trkpt lat="44.59294" lon="2.92899">
        <ele>850.9</ele>
        <time>2012-04-28T15:38:55Z</time>
      </trkpt>
      <trkpt lat="44.59294" lon="2.92899">
        <ele>849.94</ele>
        <time>2012-04-28T15:38:57Z</time>
      </trkpt>
      <trkpt lat="44.59288" lon="2.92899">
        <ele>849.94</ele>
        <time>2012-04-28T15:39:15Z</time>
      </trkpt>
      <trkpt lat="44.59284" lon="2.92902">
        <ele>850.42</ele>
        <time>2012-04-28T15:39:37Z</time>
      </trkpt>
      <trkpt lat="44.59281" lon="2.92906">
        <ele>847.06</ele>
        <time>2012-04-28T15:39:57Z</time>
      </trkpt>
      <trkpt lat="44.5928" lon="2.92908">
        <ele>849.46</ele>
        <time>2012-04-28T15:40:01Z</time>
      </trkpt>
      <trkpt lat="44.59297" lon="2.92903">
        <ele>849.94</ele>
        <time>2012-04-28T15:40:19Z</time>
      </trkpt>
      <trkpt lat="44.593" lon="2.929">
        <ele>850.9</ele>
        <time>2012-04-28T15:40:24Z</time>
      </trkpt>
      <trkpt lat="44.59302" lon="2.92899">
        <ele>848.02</ele>
        <time>2012-04-28T15:40:25Z</time>
      </trkpt>
      <trkpt lat="44.59307" lon="2.92893">
        <ele>845.62</ele>
        <time>2012-04-28T15:40:36Z</time>
      </trkpt>
      <trkpt lat="44.59309" lon="2.92893">
        <ele>847.06</ele>
        <time>2012-04-28T15:40:39Z</time>
      </trkpt>
      <trkpt lat="44.5931" lon="2.92893">
        <ele>848.98</ele>
        <time>2012-04-28T15:40:46Z</time>
      </trkpt>
      <trkpt lat="44.5931" lon="2.92893">
        <ele>850.9</ele>
        <time>2012-04-28T15:40:49Z</time>
      </trkpt>
      <trkpt lat="44.5931" lon="2.92893">
        <ele>848.5</ele>
        <time>2012-04-28T15:40:54Z</time>
      </trkpt>
      <trkpt lat="44.5931" lon="2.9289">
        <ele>847.54</ele>
        <time>2012-04-28T15:41:14Z</time>
      </trkpt>
      <trkpt lat="44.5931" lon="2.92888">
        <ele>847.54</ele>
        <time>2012-04-28T15:41:26Z</time>
      </trkpt>
      <trkpt lat="44.59309" lon="2.92884">
        <ele>847.54</ele>
        <time>2012-04-28T15:41:30Z</time>
      </trkpt>
      <trkpt lat="44.59309" lon="2.92876">
        <ele>849.46</ele>
        <time>2012-04-28T15:41:35Z</time>
      </trkpt>
      <trkpt lat="44.59307" lon="2.92867">
        <ele>848.5</ele>
        <time>2012-04-28T15:41:41Z</time>
      </trkpt>
      <trkpt lat="44.59301" lon="2.92866">
        <ele>846.58</ele>
        <time>2012-04-28T15:41:46Z</time>
      </trkpt>
      <trkpt lat="44.59298" lon="2.92867">
        <ele>843.69</ele>
        <time>2012-04-28T15:41:50Z</time>
      </trkpt>
      <trkpt lat="44.59295" lon="2.92857">
        <ele>846.58</ele>
        <time>2012-04-28T15:42:01Z</time>
      </trkpt>
      <trkpt lat="44.59293" lon="2.92854">
        <ele>843.21</ele>
        <time>2012-04-28T15:42:18Z</time>
      </trkpt>
      <trkpt lat="44.59293" lon="2.92854">
        <ele>841.77</ele>
        <time>2012-04-28T15:42:20Z</time>
      </trkpt>
      <trkpt lat="44.59293" lon="2.92852">
        <ele>838.89</ele>
        <time>2012-04-28T15:42:39Z</time>
      </trkpt>
      <trkpt lat="44.59293" lon="2.92851">
        <ele>837.93</ele>
        <time>2012-04-28T15:42:40Z</time>
      </trkpt>
      <trkpt lat="44.59295" lon="2.92845">
        <ele>840.33</ele>
        <time>2012-04-28T15:42:44Z</time>
      </trkpt>
      <trkpt lat="44.59294" lon="2.92842">
        <ele>840.81</ele>
        <time>2012-04-28T15:42:46Z</time>
      </trkpt>
      <trkpt lat="44.5929" lon="2.92834">
        <ele>841.29</ele>
        <time>2012-04-28T15:42:52Z</time>
      </trkpt>
      <trkpt lat="44.59286" lon="2.92827">
        <ele>842.73</ele>
        <time>2012-04-28T15:42:57Z</time>
      </trkpt>
      <trkpt lat="44.59282" lon="2.92818">
        <ele>844.18</ele>
        <time>2012-04-28T15:43:05Z</time>
      </trkpt>
      <trkpt lat="44.59277" lon="2.92805">
        <ele>842.73</ele>
        <time>2012-04-28T15:43:20Z</time>
      </trkpt>
      <trkpt lat="44.59275" lon="2.92802">
        <ele>840.33</ele>
        <time>2012-04-28T15:43:32Z</time>
      </trkpt>
      <trkpt lat="44.59272" lon="2.92798">
        <ele>837.45</ele>
        <time>2012-04-28T15:43:44Z</time>
      </trkpt>
      <trkpt lat="44.59272" lon="2.92798">
        <ele>834.08</ele>
        <time>2012-04-28T15:43:55Z</time>
      </trkpt>
      <trkpt lat="44.59272" lon="2.92798">
        <ele>834.08</ele>
        <time>2012-04-28T15:43:56Z</time>
      </trkpt>
      <trkpt lat="44.59272" lon="2.92798">
        <ele>837.45</ele>
        <time>2012-04-28T15:44:00Z</time>
      </trkpt>
      <trkpt lat="44.59272" lon="2.92798">
        <ele>840.33</ele>
        <time>2012-04-28T15:44:10Z</time>
      </trkpt>
      <trkpt lat="44.59266" lon="2.92792">
        <ele>839.85</ele>
        <time>2012-04-28T15:44:26Z</time>
      </trkpt>
      <trkpt lat="44.5926" lon="2.92786">
        <ele>836.96</ele>
        <time>2012-04-28T15:44:39Z</time>
      </trkpt>
      <trkpt lat="44.59254" lon="2.92777">
        <ele>837.93</ele>
        <time>2012-04-28T15:44:51Z</time>
      </trkpt>
      <trkpt lat="44.59248" lon="2.92768">
        <ele>836.96</ele>
        <time>2012-04-28T15:45:02Z</time>
      </trkpt>
      <trkpt lat="44.59245" lon="2.92764">
        <ele>837.45</ele>
        <time>2012-04-28T15:45:16Z</time>
      </trkpt>
      <trkpt lat="44.59243" lon="2.9276">
        <ele>835.52</ele>
        <time>2012-04-28T15:45:30Z</time>
      </trkpt>
      <trkpt lat="44.59235" lon="2.92749">
        <ele>833.12</ele>
        <time>2012-04-28T15:45:43Z</time>
      </trkpt>
      <trkpt lat="44.59231" lon="2.92737">
        <ele>829.76</ele>
        <time>2012-04-28T15:45:55Z</time>
      </trkpt>
      <trkpt lat="44.59231" lon="2.92736">
        <ele>829.27</ele>
        <time>2012-04-28T15:45:56Z</time>
      </trkpt>
      <trkpt lat="44.59228" lon="2.92728">
        <ele>828.79</ele>
        <time>2012-04-28T15:46:03Z</time>
      </trkpt>
      <trkpt lat="44.59224" lon="2.92718">
        <ele>827.35</ele>
        <time>2012-04-28T15:46:11Z</time>
      </trkpt>
      <trkpt lat="44.59222" lon="2.92715">
        <ele>827.35</ele>
        <time>2012-04-28T15:46:13Z</time>
      </trkpt>
      <trkpt lat="44.59214" lon="2.92706">
        <ele>825.91</ele>
        <time>2012-04-28T15:46:22Z</time>
      </trkpt>
      <trkpt lat="44.59204" lon="2.92698">
        <ele>825.91</ele>
        <time>2012-04-28T15:46:31Z</time>
      </trkpt>
      <trkpt lat="44.59197" lon="2.92688">
        <ele>822.06</ele>
        <time>2012-04-28T15:46:42Z</time>
      </trkpt>
      <trkpt lat="44.59196" lon="2.92687">
        <ele>822.06</ele>
        <time>2012-04-28T15:46:43Z</time>
      </trkpt>
      <trkpt lat="44.5919" lon="2.92684">
        <ele>819.66</ele>
        <time>2012-04-28T15:46:54Z</time>
      </trkpt>
      <trkpt lat="44.59189" lon="2.92682">
        <ele>819.18</ele>
        <time>2012-04-28T15:46:56Z</time>
      </trkpt>
      <trkpt lat="44.59185" lon="2.92672">
        <ele>819.18</ele>
        <time>2012-04-28T15:47:07Z</time>
      </trkpt>
      <trkpt lat="44.59179" lon="2.92661">
        <ele>816.78</ele>
        <time>2012-04-28T15:47:22Z</time>
      </trkpt>
      <trkpt lat="44.59176" lon="2.92647">
        <ele>816.78</ele>
        <time>2012-04-28T15:47:35Z</time>
      </trkpt>
      <trkpt lat="44.59175" lon="2.92644">
        <ele>816.78</ele>
        <time>2012-04-28T15:47:37Z</time>
      </trkpt>
      <trkpt lat="44.59173" lon="2.92627">
        <ele>816.78</ele>
        <time>2012-04-28T15:47:50Z</time>
      </trkpt>
      <trkpt lat="44.5917" lon="2.92613">
        <ele>817.74</ele>
        <time>2012-04-28T15:48:01Z</time>
      </trkpt>
      <trkpt lat="44.59169" lon="2.92609">
        <ele>817.74</ele>
        <time>2012-04-28T15:48:04Z</time>
      </trkpt>
      <trkpt lat="44.59167" lon="2.92602">
        <ele>818.22</ele>
        <time>2012-04-28T15:48:10Z</time>
      </trkpt>
      <trkpt lat="44.59162" lon="2.92587">
        <ele>818.7</ele>
        <time>2012-04-28T15:48:24Z</time>
      </trkpt>
      <trkpt lat="44.5916" lon="2.9258">
        <ele>816.3</ele>
        <time>2012-04-28T15:48:37Z</time>
      </trkpt>
      <trkpt lat="44.59159" lon="2.92576">
        <ele>818.22</ele>
        <time>2012-04-28T15:48:40Z</time>
      </trkpt>
      <trkpt lat="44.59159" lon="2.92571">
        <ele>817.74</ele>
        <time>2012-04-28T15:48:44Z</time>
      </trkpt>
      <trkpt lat="44.59158" lon="2.92559">
        <ele>818.22</ele>
        <time>2012-04-28T15:48:53Z</time>
      </trkpt>
      <trkpt lat="44.59156" lon="2.92542">
        <ele>819.18</ele>
        <time>2012-04-28T15:49:06Z</time>
      </trkpt>
      <trkpt lat="44.59156" lon="2.9254">
        <ele>819.18</ele>
        <time>2012-04-28T15:49:07Z</time>
      </trkpt>
      <trkpt lat="44.59158" lon="2.92525">
        <ele>819.66</ele>
        <time>2012-04-28T15:49:21Z</time>
      </trkpt>
      <trkpt lat="44.59158" lon="2.92509">
        <ele>822.06</ele>
        <time>2012-04-28T15:49:34Z</time>
      </trkpt>
      <trkpt lat="44.5916" lon="2.92504">
        <ele>818.7</ele>
        <time>2012-04-28T15:49:39Z</time>
      </trkpt>
      <trkpt lat="44.5916" lon="2.92503">
        <ele>819.66</ele>
        <time>2012-04-28T15:49:40Z</time>
      </trkpt>
      <trkpt lat="44.5916" lon="2.92501">
        <ele>822.06</ele>
        <time>2012-04-28T15:49:42Z</time>
      </trkpt>
      <trkpt lat="44.59161" lon="2.92497">
        <ele>821.58</ele>
        <time>2012-04-28T15:49:45Z</time>
      </trkpt>
      <trkpt lat="44.59162" lon="2.92487">
        <ele>822.06</ele>
        <time>2012-04-28T15:49:54Z</time>
      </trkpt>
      <trkpt lat="44.59165" lon="2.9247">
        <ele>822.06</ele>
        <time>2012-04-28T15:50:08Z</time>
      </trkpt>
      <trkpt lat="44.59164" lon="2.92452">
        <ele>823.03</ele>
        <time>2012-04-28T15:50:21Z</time>
      </trkpt>
      <trkpt lat="44.59159" lon="2.92438">
        <ele>824.47</ele>
        <time>2012-04-28T15:50:33Z</time>
      </trkpt>
      <trkpt lat="44.59156" lon="2.92425">
        <ele>824.95</ele>
        <time>2012-04-28T15:50:45Z</time>
      </trkpt>
      <trkpt lat="44.59154" lon="2.92422">
        <ele>824.95</ele>
        <time>2012-04-28T15:50:47Z</time>
      </trkpt>
      <trkpt lat="44.59151" lon="2.92418">
        <ele>824.47</ele>
        <time>2012-04-28T15:50:52Z</time>
      </trkpt>
      <trkpt lat="44.59149" lon="2.92414">
        <ele>823.99</ele>
        <time>2012-04-28T15:50:56Z</time>
      </trkpt>
      <trkpt lat="44.59147" lon="2.92411">
        <ele>822.55</ele>
        <time>2012-04-28T15:50:59Z</time>
      </trkpt>
      <trkpt lat="44.59141" lon="2.924">
        <ele>823.99</ele>
        <time>2012-04-28T15:51:11Z</time>
      </trkpt>
      <trkpt lat="44.59135" lon="2.92385">
        <ele>823.99</ele>
        <time>2012-04-28T15:51:26Z</time>
      </trkpt>
      <trkpt lat="44.59133" lon="2.9238">
        <ele>824.95</ele>
        <time>2012-04-28T15:51:41Z</time>
      </trkpt>
      <trkpt lat="44.59128" lon="2.92374">
        <ele>824.95</ele>
        <time>2012-04-28T15:51:52Z</time>
      </trkpt>
      <trkpt lat="44.59124" lon="2.92365">
        <ele>825.43</ele>
        <time>2012-04-28T15:52:01Z</time>
      </trkpt>
      <trkpt lat="44.59119" lon="2.9235">
        <ele>825.43</ele>
        <time>2012-04-28T15:52:16Z</time>
      </trkpt>
      <trkpt lat="44.59117" lon="2.92343">
        <ele>825.43</ele>
        <time>2012-04-28T15:52:23Z</time>
      </trkpt>
      <trkpt lat="44.59116" lon="2.92339">
        <ele>825.91</ele>
        <time>2012-04-28T15:52:27Z</time>
      </trkpt>
      <trkpt lat="44.59114" lon="2.92322">
        <ele>826.87</ele>
        <time>2012-04-28T15:52:41Z</time>
      </trkpt>
      <trkpt lat="44.59112" lon="2.92307">
        <ele>826.39</ele>
        <time>2012-04-28T15:52:57Z</time>
      </trkpt>
      <trkpt lat="44.59112" lon="2.92293">
        <ele>826.87</ele>
        <time>2012-04-28T15:53:09Z</time>
      </trkpt>
      <trkpt lat="44.59111" lon="2.9228">
        <ele>826.87</ele>
        <time>2012-04-28T15:53:22Z</time>
      </trkpt>
      <trkpt lat="44.5911" lon="2.92269">
        <ele>825.43</ele>
        <time>2012-04-28T15:53:34Z</time>
      </trkpt>
      <trkpt lat="44.5911" lon="2.92256">
        <ele>824.95</ele>
        <time>2012-04-28T15:53:46Z</time>
      </trkpt>
      <trkpt lat="44.5911" lon="2.92249">
        <ele>825.43</ele>
        <time>2012-04-28T15:53:59Z</time>
      </trkpt>
      <trkpt lat="44.5911" lon="2.92249">
        <ele>824.47</ele>
        <time>2012-04-28T15:54:17Z</time>
      </trkpt>
      <trkpt lat="44.5911" lon="2.92248">
        <ele>825.43</ele>
        <time>2012-04-28T15:54:43Z</time>
      </trkpt>
      <trkpt lat="44.59111" lon="2.92246">
        <ele>825.91</ele>
        <time>2012-04-28T15:55:03Z</time>
      </trkpt>
      <trkpt lat="44.5911" lon="2.92246">
        <ele>826.39</ele>
        <time>2012-04-28T15:55:05Z</time>
      </trkpt>
      <trkpt lat="44.59108" lon="2.92235">
        <ele>824.47</ele>
        <time>2012-04-28T15:55:17Z</time>
      </trkpt>
      <trkpt lat="44.59107" lon="2.9223">
        <ele>823.99</ele>
        <time>2012-04-28T15:55:30Z</time>
      </trkpt>
      <trkpt lat="44.59105" lon="2.92214">
        <ele>823.51</ele>
        <time>2012-04-28T15:55:45Z</time>
      </trkpt>
      <trkpt lat="44.59103" lon="2.92202">
        <ele>822.06</ele>
        <time>2012-04-28T15:55:57Z</time>
      </trkpt>
      <trkpt lat="44.59099" lon="2.92188">
        <ele>821.1</ele>
        <time>2012-04-28T15:56:11Z</time>
      </trkpt>
      <trkpt lat="44.59098" lon="2.92173">
        <ele>823.99</ele>
        <time>2012-04-28T15:56:25Z</time>
      </trkpt>
      <trkpt lat="44.59092" lon="2.92165">
        <ele>823.51</ele>
        <time>2012-04-28T15:56:39Z</time>
      </trkpt>
      <trkpt lat="44.59081" lon="2.92167">
        <ele>822.55</ele>
        <time>2012-04-28T15:56:53Z</time>
      </trkpt>
      <trkpt lat="44.59072" lon="2.92179">
        <ele>821.1</ele>
        <time>2012-04-28T15:57:06Z</time>
      </trkpt>
      <trkpt lat="44.59069" lon="2.9218">
        <ele>821.1</ele>
        <time>2012-04-28T15:57:11Z</time>
      </trkpt>
      <trkpt lat="44.59067" lon="2.9218">
        <ele>821.58</ele>
        <time>2012-04-28T15:57:15Z</time>
      </trkpt>
      <trkpt lat="44.59062" lon="2.92177">
        <ele>822.55</ele>
        <time>2012-04-28T15:57:32Z</time>
      </trkpt>
      <trkpt lat="44.59057" lon="2.92166">
        <ele>820.62</ele>
        <time>2012-04-28T15:57:45Z</time>
      </trkpt>
      <trkpt lat="44.59052" lon="2.92152">
        <ele>820.14</ele>
        <time>2012-04-28T15:58:00Z</time>
      </trkpt>
      <trkpt lat="44.59051" lon="2.92151">
        <ele>819.18</ele>
        <time>2012-04-28T15:58:18Z</time>
      </trkpt>
      <trkpt lat="44.59046" lon="2.92145">
        <ele>819.18</ele>
        <time>2012-04-28T15:58:35Z</time>
      </trkpt>
      <trkpt lat="44.59043" lon="2.92136">
        <ele>820.14</ele>
        <time>2012-04-28T15:58:49Z</time>
      </trkpt>
      <trkpt lat="44.59042" lon="2.92133">
        <ele>820.14</ele>
        <time>2012-04-28T15:59:01Z</time>
      </trkpt>
      <trkpt lat="44.59037" lon="2.92126">
        <ele>819.66</ele>
        <time>2012-04-28T15:59:18Z</time>
      </trkpt>
      <trkpt lat="44.59036" lon="2.92123">
        <ele>819.66</ele>
        <time>2012-04-28T15:59:37Z</time>
      </trkpt>
      <trkpt lat="44.59036" lon="2.92123">
        <ele>820.14</ele>
        <time>2012-04-28T15:59:40Z</time>
      </trkpt>
      <trkpt lat="44.59032" lon="2.92098">
        <ele>820.14</ele>
        <time>2012-04-28T15:59:55Z</time>
      </trkpt>
      <trkpt lat="44.59028" lon="2.92079">
        <ele>820.14</ele>
        <time>2012-04-28T16:00:07Z</time>
      </trkpt>
      <trkpt lat="44.59032" lon="2.92058">
        <ele>820.62</ele>
        <time>2012-04-28T16:00:23Z</time>
      </trkpt>
      <trkpt lat="44.59033" lon="2.92046">
        <ele>821.1</ele>
        <time>2012-04-28T16:00:41Z</time>
      </trkpt>
      <trkpt lat="44.59033" lon="2.92027">
        <ele>821.58</ele>
        <time>2012-04-28T16:00:56Z</time>
      </trkpt>
      <trkpt lat="44.59022" lon="2.92029">
        <ele>821.1</ele>
        <time>2012-04-28T16:01:09Z</time>
      </trkpt>
      <trkpt lat="44.59017" lon="2.92034">
        <ele>821.1</ele>
        <time>2012-04-28T16:01:24Z</time>
      </trkpt>
      <trkpt lat="44.59016" lon="2.92039">
        <ele>822.55</ele>
        <time>2012-04-28T16:01:35Z</time>
      </trkpt>
      <trkpt lat="44.5902" lon="2.9205">
        <ele>822.55</ele>
        <time>2012-04-28T16:02:00Z</time>
      </trkpt>
      <trkpt lat="44.59008" lon="2.92029">
        <ele>820.62</ele>
        <time>2012-04-28T16:07:24Z</time>
      </trkpt>
      <trkpt lat="44.59002" lon="2.92049">
        <ele>819.66</ele>
        <time>2012-04-28T16:07:39Z</time>
      </trkpt>
      <trkpt lat="44.58997" lon="2.92055">
        <ele>819.66</ele>
        <time>2012-04-28T16:07:52Z</time>
      </trkpt>
      <trkpt lat="44.58997" lon="2.92065">
        <ele>820.14</ele>
        <time>2012-04-28T16:08:07Z</time>
      </trkpt>
      <trkpt lat="44.58996" lon="2.92075">
        <ele>818.7</ele>
        <time>2012-04-28T16:08:15Z</time>
      </trkpt>
      <trkpt lat="44.59003" lon="2.92091">
        <ele>818.22</ele>
        <time>2012-04-28T16:08:28Z</time>
      </trkpt>
      <trkpt lat="44.59008" lon="2.92098">
        <ele>818.22</ele>
        <time>2012-04-28T16:08:39Z</time>
      </trkpt>
      <trkpt lat="44.59014" lon="2.92114">
        <ele>817.74</ele>
        <time>2012-04-28T16:08:52Z</time>
      </trkpt>
      <trkpt lat="44.5902" lon="2.92115">
        <ele>816.78</ele>
        <time>2012-04-28T16:09:08Z</time>
      </trkpt>
      <trkpt lat="44.5902" lon="2.92113">
        <ele>817.74</ele>
        <time>2012-04-28T16:09:35Z</time>
      </trkpt>
      <trkpt lat="44.59022" lon="2.92111">
        <ele>818.22</ele>
        <time>2012-04-28T16:09:53Z</time>
      </trkpt>
      <trkpt lat="44.59021" lon="2.92109">
        <ele>817.26</ele>
        <time>2012-04-28T16:10:08Z</time>
      </trkpt>
      <trkpt lat="44.59021" lon="2.92109">
        <ele>816.78</ele>
        <time>2012-04-28T16:10:27Z</time>
      </trkpt>
      <trkpt lat="44.59021" lon="2.92108">
        <ele>816.78</ele>
        <time>2012-04-28T16:10:46Z</time>
      </trkpt>
      <trkpt lat="44.59021" lon="2.92108">
        <ele>816.78</ele>
        <time>2012-04-28T16:11:07Z</time>
      </trkpt>
      <trkpt lat="44.59022" lon="2.92109">
        <ele>816.78</ele>
        <time>2012-04-28T16:11:10Z</time>
      </trkpt>
      <trkpt lat="44.59031" lon="2.92115">
        <ele>817.74</ele>
        <time>2012-04-28T16:11:22Z</time>
      </trkpt>
      <trkpt lat="44.59033" lon="2.92117">
        <ele>818.22</ele>
        <time>2012-04-28T16:11:32Z</time>
      </trkpt>
      <trkpt lat="44.59033" lon="2.92119">
        <ele>819.18</ele>
        <time>2012-04-28T16:11:55Z</time>
      </trkpt>
      <trkpt lat="44.59034" lon="2.92122">
        <ele>818.22</ele>
        <time>2012-04-28T16:11:57Z</time>
      </trkpt>
      <trkpt lat="44.59036" lon="2.92124">
        <ele>818.22</ele>
        <time>2012-04-28T16:12:00Z</time>
      </trkpt>
      <trkpt lat="44.59041" lon="2.92134">
        <ele>818.7</ele>
        <time>2012-04-28T16:12:10Z</time>
      </trkpt>
      <trkpt lat="44.59042" lon="2.92138">
        <ele>819.18</ele>
        <time>2012-04-28T16:12:14Z</time>
      </trkpt>
      <trkpt lat="44.59041" lon="2.92144">
        <ele>819.18</ele>
        <time>2012-04-28T16:12:28Z</time>
      </trkpt>
      <trkpt lat="44.59041" lon="2.92144">
        <ele>819.66</ele>
        <time>2012-04-28T16:12:53Z</time>
      </trkpt>
      <trkpt lat="44.59042" lon="2.92144">
        <ele>817.74</ele>
        <time>2012-04-28T16:13:10Z</time>
      </trkpt>
      <trkpt lat="44.59042" lon="2.92144">
        <ele>818.22</ele>
        <time>2012-04-28T16:13:36Z</time>
      </trkpt>
      <trkpt lat="44.59042" lon="2.92145">
        <ele>816.78</ele>
        <time>2012-04-28T16:14:02Z</time>
      </trkpt>
      <trkpt lat="44.59042" lon="2.92147">
        <ele>817.74</ele>
        <time>2012-04-28T16:14:36Z</time>
      </trkpt>
      <trkpt lat="44.59042" lon="2.92147">
        <ele>818.7</ele>
        <time>2012-04-28T16:15:07Z</time>
      </trkpt>
      <trkpt lat="44.59042" lon="2.92147">
        <ele>818.22</ele>
        <time>2012-04-28T16:15:40Z</time>
      </trkpt>
      <trkpt lat="44.59042" lon="2.92147">
        <ele>818.22</ele>
        <time>2012-04-28T16:16:13Z</time>
      </trkpt>
      <trkpt lat="44.59042" lon="2.92148">
        <ele>818.7</ele>
        <time>2012-04-28T16:16:36Z</time>
      </trkpt>
      <trkpt lat="44.59042" lon="2.92148">
        <ele>818.7</ele>
        <time>2012-04-28T16:17:09Z</time>
      </trkpt>
      <trkpt lat="44.59042" lon="2.92149">
        <ele>818.7</ele>
        <time>2012-04-28T16:17:34Z</time>
      </trkpt>
      <trkpt lat="44.59042" lon="2.92149">
        <ele>819.18</ele>
        <time>2012-04-28T16:18:02Z</time>
      </trkpt>
      <trkpt lat="44.59042" lon="2.92149">
        <ele>819.66</ele>
        <time>2012-04-28T16:18:15Z</time>
      </trkpt>
      <trkpt lat="44.59042" lon="2.92149">
        <ele>818.7</ele>
        <time>2012-04-28T16:18:38Z</time>
      </trkpt>
      <trkpt lat="44.59043" lon="2.9215">
        <ele>817.74</ele>
        <time>2012-04-28T16:19:08Z</time>
      </trkpt>
      <trkpt lat="44.59043" lon="2.9215">
        <ele>817.26</ele>
        <time>2012-04-28T16:19:39Z</time>
      </trkpt>
      <trkpt lat="44.59043" lon="2.9215">
        <ele>819.18</ele>
        <time>2012-04-28T16:19:49Z</time>
      </trkpt>
      <trkpt lat="44.59043" lon="2.9215">
        <ele>818.22</ele>
        <time>2012-04-28T16:20:19Z</time>
      </trkpt>
      <trkpt lat="44.59042" lon="2.92151">
        <ele>817.26</ele>
        <time>2012-04-28T16:20:50Z</time>
      </trkpt>
      <trkpt lat="44.59042" lon="2.92151">
        <ele>816.78</ele>
        <time>2012-04-28T16:21:25Z</time>
      </trkpt>
      <trkpt lat="44.59038" lon="2.92153">
        <ele>818.7</ele>
        <time>2012-04-28T16:21:55Z</time>
      </trkpt>
      <trkpt lat="44.59038" lon="2.92153">
        <ele>817.74</ele>
        <time>2012-04-28T16:22:23Z</time>
      </trkpt>
      <trkpt lat="44.59038" lon="2.92154">
        <ele>817.74</ele>
        <time>2012-04-28T16:22:34Z</time>
      </trkpt>
      <trkpt lat="44.59038" lon="2.92154">
        <ele>816.78</ele>
        <time>2012-04-28T16:23:07Z</time>
      </trkpt>
      <trkpt lat="44.59038" lon="2.92154">
        <ele>817.26</ele>
        <time>2012-04-28T16:23:35Z</time>
      </trkpt>
      <trkpt lat="44.59038" lon="2.92154">
        <ele>816.78</ele>
        <time>2012-04-28T16:24:02Z</time>
      </trkpt>
      <trkpt lat="44.59037" lon="2.92154">
        <ele>816.78</ele>
        <time>2012-04-28T16:24:35Z</time>
      </trkpt>
      <trkpt lat="44.59037" lon="2.92154">
        <ele>817.74</ele>
        <time>2012-04-28T16:24:59Z</time>
      </trkpt>
      <trkpt lat="44.59037" lon="2.92154">
        <ele>817.74</ele>
        <time>2012-04-28T16:25:24Z</time>
      </trkpt>
      <trkpt lat="44.59037" lon="2.92154">
        <ele>817.26</ele>
        <time>2012-04-28T16:26:00Z</time>
      </trkpt>
      <trkpt lat="44.59038" lon="2.92154">
        <ele>814.85</ele>
        <time>2012-04-28T16:26:36Z</time>
      </trkpt>
      <trkpt lat="44.59038" lon="2.92154">
        <ele>817.26</ele>
        <time>2012-04-28T16:27:07Z</time>
      </trkpt>
      <trkpt lat="44.59037" lon="2.92153">
        <ele>815.82</ele>
        <time>2012-04-28T16:27:34Z</time>
      </trkpt>
      <trkpt lat="44.59037" lon="2.92153">
        <ele>816.78</ele>
        <time>2012-04-28T16:28:05Z</time>
      </trkpt>
      <trkpt lat="44.59037" lon="2.92153">
        <ele>815.82</ele>
        <time>2012-04-28T16:28:40Z</time>
      </trkpt>
      <trkpt lat="44.59037" lon="2.92153">
        <ele>817.26</ele>
        <time>2012-04-28T16:29:08Z</time>
      </trkpt>
      <trkpt lat="44.59037" lon="2.92153">
        <ele>816.3</ele>
        <time>2012-04-28T16:29:39Z</time>
      </trkpt>
      <trkpt lat="44.59037" lon="2.92154">
        <ele>815.82</ele>
        <time>2012-04-28T16:30:06Z</time>
      </trkpt>
      <trkpt lat="44.59033" lon="2.92154">
        <ele>815.34</ele>
        <time>2012-04-28T16:30:31Z</time>
      </trkpt>
      <trkpt lat="44.59032" lon="2.92153">
        <ele>815.82</ele>
        <time>2012-04-28T16:30:55Z</time>
      </trkpt>
      <trkpt lat="44.59039" lon="2.9215">
        <ele>815.82</ele>
        <time>2012-04-28T16:31:07Z</time>
      </trkpt>
      <trkpt lat="44.59066" lon="2.92133">
        <ele>815.34</ele>
        <time>2012-04-28T16:31:29Z</time>
      </trkpt>
      <trkpt lat="44.59067" lon="2.92133">
        <ele>815.34</ele>
        <time>2012-04-28T16:31:50Z</time>
      </trkpt>
      <trkpt lat="44.59068" lon="2.92134">
        <ele>814.85</ele>
        <time>2012-04-28T16:32:16Z</time>
      </trkpt>
      <trkpt lat="44.59051" lon="2.92147">
        <ele>814.85</ele>
        <time>2012-04-28T16:32:46Z</time>
      </trkpt>
      <trkpt lat="44.59042" lon="2.92153">
        <ele>814.85</ele>
        <time>2012-04-28T16:33:13Z</time>
      </trkpt>
      <trkpt lat="44.59042" lon="2.92153">
        <ele>817.26</ele>
        <time>2012-04-28T16:33:44Z</time>
      </trkpt>
      <trkpt lat="44.59046" lon="2.92149">
        <ele>816.78</ele>
        <time>2012-04-28T16:34:13Z</time>
      </trkpt>
      <trkpt lat="44.59041" lon="2.92153">
        <ele>817.26</ele>
        <time>2012-04-28T16:34:33Z</time>
      </trkpt>
      <trkpt lat="44.59041" lon="2.92153">
        <ele>816.78</ele>
        <time>2012-04-28T16:35:04Z</time>
      </trkpt>
      <trkpt lat="44.5904" lon="2.92153">
        <ele>816.3</ele>
        <time>2012-04-28T16:35:36Z</time>
      </trkpt>
      <trkpt lat="44.5904" lon="2.92151">
        <ele>816.78</ele>
        <time>2012-04-28T16:36:00Z</time>
      </trkpt>
      <trkpt lat="44.5904" lon="2.92151">
        <ele>817.26</ele>
        <time>2012-04-28T16:36:30Z</time>
      </trkpt>
      <trkpt lat="44.59039" lon="2.92152">
        <ele>813.41</ele>
        <time>2012-04-28T16:36:55Z</time>
      </trkpt>
      <trkpt lat="44.59039" lon="2.92152">
        <ele>818.7</ele>
        <time>2012-04-28T16:36:56Z</time>
      </trkpt>
      <trkpt lat="44.59039" lon="2.92152">
        <ele>815.34</ele>
        <time>2012-04-28T16:37:01Z</time>
      </trkpt>
      <trkpt lat="44.5904" lon="2.92151">
        <ele>817.26</ele>
        <time>2012-04-28T16:37:27Z</time>
      </trkpt>
      <trkpt lat="44.5904" lon="2.92152">
        <ele>817.74</ele>
        <time>2012-04-28T16:37:56Z</time>
      </trkpt>
      <trkpt lat="44.5904" lon="2.92152">
        <ele>814.37</ele>
        <time>2012-04-28T16:38:12Z</time>
      </trkpt>
      <trkpt lat="44.5904" lon="2.92152">
        <ele>819.18</ele>
        <time>2012-04-28T16:38:32Z</time>
      </trkpt>
      <trkpt lat="44.5904" lon="2.92152">
        <ele>816.3</ele>
        <time>2012-04-28T16:39:01Z</time>
      </trkpt>
      <trkpt lat="44.5904" lon="2.92152">
        <ele>816.78</ele>
        <time>2012-04-28T16:39:26Z</time>
      </trkpt>
      <trkpt lat="44.5904" lon="2.92152">
        <ele>815.34</ele>
        <time>2012-04-28T16:39:52Z</time>
      </trkpt>
      <trkpt lat="44.5904" lon="2.92152">
        <ele>819.66</ele>
        <time>2012-04-28T16:40:07Z</time>
      </trkpt>
      <trkpt lat="44.5904" lon="2.92152">
        <ele>816.3</ele>
        <time>2012-04-28T16:40:08Z</time>
      </trkpt>
      <trkpt lat="44.5904" lon="2.92151">
        <ele>814.37</ele>
        <time>2012-04-28T16:40:44Z</time>
      </trkpt>
      <trkpt lat="44.5904" lon="2.92151">
        <ele>815.82</ele>
        <time>2012-04-28T16:40:48Z</time>
      </trkpt>
      <trkpt lat="44.5904" lon="2.92151">
        <ele>815.82</ele>
        <time>2012-04-28T16:41:19Z</time>
      </trkpt>
      <trkpt lat="44.5904" lon="2.92151">
        <ele>814.37</ele>
        <time>2012-04-28T16:41:27Z</time>
      </trkpt>
      <trkpt lat="44.5904" lon="2.92151">
        <ele>814.37</ele>
        <time>2012-04-28T16:41:36Z</time>
      </trkpt>
      <trkpt lat="44.5904" lon="2.92151">
        <ele>816.78</ele>
        <time>2012-04-28T16:41:44Z</time>
      </trkpt>
      <trkpt lat="44.5904" lon="2.92151">
        <ele>814.37</ele>
        <time>2012-04-28T16:41:47Z</time>
      </trkpt>
      <trkpt lat="44.5904" lon="2.92151">
        <ele>818.22</ele>
        <time>2012-04-28T16:42:05Z</time>
      </trkpt>
      <trkpt lat="44.5904" lon="2.92151">
        <ele>814.85</ele>
        <time>2012-04-28T16:42:28Z</time>
      </trkpt>
      <trkpt lat="44.5904" lon="2.92151">
        <ele>815.82</ele>
        <time>2012-04-28T16:42:56Z</time>
      </trkpt>
      <trkpt lat="44.5904" lon="2.92151">
        <ele>815.34</ele>
        <time>2012-04-28T16:43:22Z</time>
      </trkpt>
      <trkpt lat="44.5904" lon="2.92151">
        <ele>815.82</ele>
        <time>2012-04-28T16:43:49Z</time>
      </trkpt>
      <trkpt lat="44.5904" lon="2.92151">
        <ele>816.78</ele>
        <time>2012-04-28T16:44:17Z</time>
      </trkpt>
      <trkpt lat="44.5904" lon="2.92151">
        <ele>816.3</ele>
        <time>2012-04-28T16:44:44Z</time>
      </trkpt>
      <trkpt lat="44.5904" lon="2.92151">
        <ele>815.82</ele>
        <time>2012-04-28T16:45:12Z</time>
      </trkpt>
      <trkpt lat="44.5904" lon="2.92151">
        <ele>814.85</ele>
        <time>2012-04-28T16:45:39Z</time>
      </trkpt>
      <trkpt lat="44.5904" lon="2.92151">
        <ele>816.78</ele>
        <time>2012-04-28T16:46:09Z</time>
      </trkpt>
      <trkpt lat="44.5904" lon="2.9215">
        <ele>817.26</ele>
        <time>2012-04-28T16:46:38Z</time>
      </trkpt>
      <trkpt lat="44.5904" lon="2.92151">
        <ele>816.78</ele>
        <time>2012-04-28T16:47:12Z</time>
      </trkpt>
      <trkpt lat="44.5904" lon="2.9215">
        <ele>814.85</ele>
        <time>2012-04-28T16:47:36Z</time>
      </trkpt>
      <trkpt lat="44.5904" lon="2.9215">
        <ele>816.3</ele>
        <time>2012-04-28T16:48:08Z</time>
      </trkpt>
      <trkpt lat="44.5904" lon="2.9215">
        <ele>813.89</ele>
        <time>2012-04-28T16:48:31Z</time>
      </trkpt>
      <trkpt lat="44.5904" lon="2.9215">
        <ele>814.37</ele>
        <time>2012-04-28T16:48:56Z</time>
      </trkpt>
      <trkpt lat="44.5904" lon="2.9215">
        <ele>815.82</ele>
        <time>2012-04-28T16:49:20Z</time>
      </trkpt>
      <trkpt lat="44.59039" lon="2.9215">
        <ele>816.3</ele>
        <time>2012-04-28T16:49:40Z</time>
      </trkpt>
      <trkpt lat="44.59041" lon="2.9215">
        <ele>816.78</ele>
        <time>2012-04-28T16:49:58Z</time>
      </trkpt>
      <trkpt lat="44.59045" lon="2.92152">
        <ele>818.22</ele>
        <time>2012-04-28T16:50:13Z</time>
      </trkpt>
      <trkpt lat="44.59045" lon="2.92152">
        <ele>817.74</ele>
        <time>2012-04-28T16:50:26Z</time>
      </trkpt>
      <trkpt lat="44.59058" lon="2.92169">
        <ele>820.14</ele>
        <time>2012-04-28T16:50:42Z</time>
      </trkpt>
      <trkpt lat="44.59067" lon="2.92172">
        <ele>819.18</ele>
        <time>2012-04-28T16:50:55Z</time>
      </trkpt>
      <trkpt lat="44.59079" lon="2.92173">
        <ele>819.66</ele>
        <time>2012-04-28T16:51:10Z</time>
      </trkpt>
      <trkpt lat="44.59097" lon="2.92175">
        <ele>820.62</ele>
        <time>2012-04-28T16:51:27Z</time>
      </trkpt>
      <trkpt lat="44.59098" lon="2.92177">
        <ele>821.58</ele>
        <time>2012-04-28T16:51:29Z</time>
      </trkpt>
      <trkpt lat="44.59099" lon="2.92195">
        <ele>821.1</ele>
        <time>2012-04-28T16:51:46Z</time>
      </trkpt>
      <trkpt lat="44.59099" lon="2.9221">
        <ele>821.58</ele>
        <time>2012-04-28T16:52:02Z</time>
      </trkpt>
      <trkpt lat="44.59113" lon="2.92229">
        <ele>822.06</ele>
        <time>2012-04-28T16:52:19Z</time>
      </trkpt>
      <trkpt lat="44.59112" lon="2.92242">
        <ele>823.51</ele>
        <time>2012-04-28T16:52:34Z</time>
      </trkpt>
      <trkpt lat="44.59111" lon="2.92258">
        <ele>822.06</ele>
        <time>2012-04-28T16:52:49Z</time>
      </trkpt>
      <trkpt lat="44.59111" lon="2.92271">
        <ele>823.03</ele>
        <time>2012-04-28T16:53:00Z</time>
      </trkpt>
      <trkpt lat="44.59112" lon="2.92286">
        <ele>823.99</ele>
        <time>2012-04-28T16:53:14Z</time>
      </trkpt>
      <trkpt lat="44.59111" lon="2.92304">
        <ele>823.51</ele>
        <time>2012-04-28T16:53:30Z</time>
      </trkpt>
      <trkpt lat="44.59112" lon="2.92321">
        <ele>821.58</ele>
        <time>2012-04-28T16:53:43Z</time>
      </trkpt>
      <trkpt lat="44.59116" lon="2.92337">
        <ele>821.1</ele>
        <time>2012-04-28T16:53:56Z</time>
      </trkpt>
      <trkpt lat="44.59121" lon="2.92356">
        <ele>821.1</ele>
        <time>2012-04-28T16:54:11Z</time>
      </trkpt>
      <trkpt lat="44.59124" lon="2.92366">
        <ele>819.66</ele>
        <time>2012-04-28T16:54:23Z</time>
      </trkpt>
      <trkpt lat="44.5913" lon="2.92379">
        <ele>818.7</ele>
        <time>2012-04-28T16:54:37Z</time>
      </trkpt>
      <trkpt lat="44.59139" lon="2.92395">
        <ele>820.14</ele>
        <time>2012-04-28T16:54:52Z</time>
      </trkpt>
      <trkpt lat="44.59144" lon="2.92405">
        <ele>819.18</ele>
        <time>2012-04-28T16:55:05Z</time>
      </trkpt>
      <trkpt lat="44.59149" lon="2.92418">
        <ele>818.22</ele>
        <time>2012-04-28T16:55:21Z</time>
      </trkpt>
      <trkpt lat="44.5915" lon="2.9242">
        <ele>817.26</ele>
        <time>2012-04-28T16:55:23Z</time>
      </trkpt>
      <trkpt lat="44.59157" lon="2.92433">
        <ele>817.74</ele>
        <time>2012-04-28T16:55:38Z</time>
      </trkpt>
      <trkpt lat="44.59161" lon="2.9245">
        <ele>816.78</ele>
        <time>2012-04-28T16:55:54Z</time>
      </trkpt>
      <trkpt lat="44.59165" lon="2.92463">
        <ele>816.78</ele>
        <time>2012-04-28T16:56:07Z</time>
      </trkpt>
      <trkpt lat="44.59163" lon="2.92476">
        <ele>815.82</ele>
        <time>2012-04-28T16:56:20Z</time>
      </trkpt>
      <trkpt lat="44.5916" lon="2.92489">
        <ele>813.89</ele>
        <time>2012-04-28T16:56:33Z</time>
      </trkpt>
      <trkpt lat="44.59158" lon="2.92494">
        <ele>814.85</ele>
        <time>2012-04-28T16:56:38Z</time>
      </trkpt>
      <trkpt lat="44.59159" lon="2.92513">
        <ele>814.37</ele>
        <time>2012-04-28T16:56:53Z</time>
      </trkpt>
      <trkpt lat="44.5916" lon="2.92522">
        <ele>816.78</ele>
        <time>2012-04-28T16:57:06Z</time>
      </trkpt>
      <trkpt lat="44.59161" lon="2.9254">
        <ele>816.3</ele>
        <time>2012-04-28T16:57:20Z</time>
      </trkpt>
      <trkpt lat="44.59163" lon="2.92548">
        <ele>815.34</ele>
        <time>2012-04-28T16:57:27Z</time>
      </trkpt>
      <trkpt lat="44.59168" lon="2.92567">
        <ele>813.41</ele>
        <time>2012-04-28T16:57:42Z</time>
      </trkpt>
      <trkpt lat="44.59171" lon="2.92579">
        <ele>813.41</ele>
        <time>2012-04-28T16:57:52Z</time>
      </trkpt>
      <trkpt lat="44.59173" lon="2.92584">
        <ele>814.85</ele>
        <time>2012-04-28T16:57:56Z</time>
      </trkpt>
      <trkpt lat="44.59174" lon="2.92597">
        <ele>815.34</ele>
        <time>2012-04-28T16:58:08Z</time>
      </trkpt>
      <trkpt lat="44.59174" lon="2.92618">
        <ele>812.93</ele>
        <time>2012-04-28T16:58:24Z</time>
      </trkpt>
      <trkpt lat="44.59175" lon="2.9262">
        <ele>813.41</ele>
        <time>2012-04-28T16:58:26Z</time>
      </trkpt>
      <trkpt lat="44.59178" lon="2.92626">
        <ele>812.93</ele>
        <time>2012-04-28T16:58:31Z</time>
      </trkpt>
      <trkpt lat="44.59179" lon="2.92632">
        <ele>813.41</ele>
        <time>2012-04-28T16:58:37Z</time>
      </trkpt>
      <trkpt lat="44.59181" lon="2.92647">
        <ele>812.45</ele>
        <time>2012-04-28T16:58:51Z</time>
      </trkpt>
      <trkpt lat="44.59184" lon="2.92662">
        <ele>813.89</ele>
        <time>2012-04-28T16:59:05Z</time>
      </trkpt>
      <trkpt lat="44.59187" lon="2.92673">
        <ele>814.37</ele>
        <time>2012-04-28T16:59:16Z</time>
      </trkpt>
      <trkpt lat="44.59193" lon="2.9268">
        <ele>815.82</ele>
        <time>2012-04-28T16:59:31Z</time>
      </trkpt>
      <trkpt lat="44.59198" lon="2.92688">
        <ele>817.26</ele>
        <time>2012-04-28T16:59:43Z</time>
      </trkpt>
      <trkpt lat="44.59206" lon="2.92697">
        <ele>817.74</ele>
        <time>2012-04-28T16:59:57Z</time>
      </trkpt>
      <trkpt lat="44.59213" lon="2.92702">
        <ele>821.1</ele>
        <time>2012-04-28T17:00:08Z</time>
      </trkpt>
      <trkpt lat="44.5922" lon="2.9271">
        <ele>820.14</ele>
        <time>2012-04-28T17:00:23Z</time>
      </trkpt>
      <trkpt lat="44.59223" lon="2.92719">
        <ele>822.55</ele>
        <time>2012-04-28T17:00:34Z</time>
      </trkpt>
      <trkpt lat="44.59227" lon="2.92731">
        <ele>823.51</ele>
        <time>2012-04-28T17:00:49Z</time>
      </trkpt>
      <trkpt lat="44.59233" lon="2.92743">
        <ele>823.99</ele>
        <time>2012-04-28T17:01:04Z</time>
      </trkpt>
      <trkpt lat="44.59236" lon="2.92747">
        <ele>825.91</ele>
        <time>2012-04-28T17:01:17Z</time>
      </trkpt>
      <trkpt lat="44.59241" lon="2.92756">
        <ele>825.43</ele>
        <time>2012-04-28T17:01:29Z</time>
      </trkpt>
      <trkpt lat="44.59245" lon="2.92763">
        <ele>829.27</ele>
        <time>2012-04-28T17:01:41Z</time>
      </trkpt>
      <trkpt lat="44.59249" lon="2.92775">
        <ele>830.72</ele>
        <time>2012-04-28T17:01:56Z</time>
      </trkpt>
      <trkpt lat="44.59254" lon="2.92783">
        <ele>832.16</ele>
        <time>2012-04-28T17:02:10Z</time>
      </trkpt>
      <trkpt lat="44.59261" lon="2.92789">
        <ele>835.04</ele>
        <time>2012-04-28T17:02:26Z</time>
      </trkpt>
      <trkpt lat="44.59263" lon="2.9279">
        <ele>836</ele>
        <time>2012-04-28T17:02:28Z</time>
      </trkpt>
      <trkpt lat="44.59265" lon="2.92791">
        <ele>837.93</ele>
        <time>2012-04-28T17:02:33Z</time>
      </trkpt>
      <trkpt lat="44.59275" lon="2.928">
        <ele>836.96</ele>
        <time>2012-04-28T17:02:45Z</time>
      </trkpt>
      <trkpt lat="44.59281" lon="2.92808">
        <ele>833.6</ele>
        <time>2012-04-28T17:02:54Z</time>
      </trkpt>
      <trkpt lat="44.59282" lon="2.92809">
        <ele>836</ele>
        <time>2012-04-28T17:02:57Z</time>
      </trkpt>
      <trkpt lat="44.59286" lon="2.92813">
        <ele>837.45</ele>
        <time>2012-04-28T17:03:05Z</time>
      </trkpt>
      <trkpt lat="44.59287" lon="2.92818">
        <ele>842.25</ele>
        <time>2012-04-28T17:03:10Z</time>
      </trkpt>
      <trkpt lat="44.59287" lon="2.92818">
        <ele>841.29</ele>
        <time>2012-04-28T17:03:11Z</time>
      </trkpt>
      <trkpt lat="44.59287" lon="2.92819">
        <ele>836</ele>
        <time>2012-04-28T17:03:12Z</time>
      </trkpt>
      <trkpt lat="44.59288" lon="2.92819">
        <ele>831.2</ele>
        <time>2012-04-28T17:03:13Z</time>
      </trkpt>
      <trkpt lat="44.59288" lon="2.9282">
        <ele>839.37</ele>
        <time>2012-04-28T17:03:14Z</time>
      </trkpt>
      <trkpt lat="44.59288" lon="2.92822">
        <ele>848.02</ele>
        <time>2012-04-28T17:03:16Z</time>
      </trkpt>
      <trkpt lat="44.59288" lon="2.92823">
        <ele>844.18</ele>
        <time>2012-04-28T17:03:17Z</time>
      </trkpt>
      <trkpt lat="44.59288" lon="2.92824">
        <ele>837.93</ele>
        <time>2012-04-28T17:03:18Z</time>
      </trkpt>
      <trkpt lat="44.59288" lon="2.92825">
        <ele>840.81</ele>
        <time>2012-04-28T17:03:19Z</time>
      </trkpt>
      <trkpt lat="44.59291" lon="2.9283">
        <ele>843.69</ele>
        <time>2012-04-28T17:03:24Z</time>
      </trkpt>
      <trkpt lat="44.59292" lon="2.92831">
        <ele>849.46</ele>
        <time>2012-04-28T17:03:25Z</time>
      </trkpt>
      <trkpt lat="44.59292" lon="2.92832">
        <ele>841.29</ele>
        <time>2012-04-28T17:03:26Z</time>
      </trkpt>
      <trkpt lat="44.59293" lon="2.92834">
        <ele>835.04</ele>
        <time>2012-04-28T17:03:28Z</time>
      </trkpt>
      <trkpt lat="44.59294" lon="2.92834">
        <ele>842.73</ele>
        <time>2012-04-28T17:03:29Z</time>
      </trkpt>
      <trkpt lat="44.59294" lon="2.92835">
        <ele>846.1</ele>
        <time>2012-04-28T17:03:30Z</time>
      </trkpt>
      <trkpt lat="44.59295" lon="2.92836">
        <ele>839.85</ele>
        <time>2012-04-28T17:03:31Z</time>
      </trkpt>
      <trkpt lat="44.59296" lon="2.92837">
        <ele>844.18</ele>
        <time>2012-04-28T17:03:33Z</time>
      </trkpt>
      <trkpt lat="44.59298" lon="2.9284">
        <ele>839.85</ele>
        <time>2012-04-28T17:03:37Z</time>
      </trkpt>
      <trkpt lat="44.59298" lon="2.92841">
        <ele>839.85</ele>
        <time>2012-04-28T17:03:38Z</time>
      </trkpt>
      <trkpt lat="44.59301" lon="2.92853">
        <ele>840.33</ele>
        <time>2012-04-28T17:03:51Z</time>
      </trkpt>
      <trkpt lat="44.59304" lon="2.92865">
        <ele>840.33</ele>
        <time>2012-04-28T17:04:04Z</time>
      </trkpt>
      <trkpt lat="44.59309" lon="2.92877">
        <ele>842.25</ele>
        <time>2012-04-28T17:04:16Z</time>
      </trkpt>
      <trkpt lat="44.59309" lon="2.92887">
        <ele>841.77</ele>
        <time>2012-04-28T17:04:26Z</time>
      </trkpt>
      <trkpt lat="44.59306" lon="2.92896">
        <ele>841.77</ele>
        <time>2012-04-28T17:04:37Z</time>
      </trkpt>
      <trkpt lat="44.59307" lon="2.92902">
        <ele>842.25</ele>
        <time>2012-04-28T17:04:58Z</time>
      </trkpt>
      <trkpt lat="44.59306" lon="2.92911">
        <ele>844.18</ele>
        <time>2012-04-28T17:05:18Z</time>
      </trkpt>
      <trkpt lat="44.59308" lon="2.92914">
        <ele>841.77</ele>
        <time>2012-04-28T17:05:47Z</time>
      </trkpt>
      <trkpt lat="44.5931" lon="2.92916">
        <ele>843.69</ele>
        <time>2012-04-28T17:06:00Z</time>
      </trkpt>
      <trkpt lat="44.59303" lon="2.9291">
        <ele>843.21</ele>
        <time>2012-04-28T17:06:03Z</time>
      </trkpt>
      <trkpt lat="44.5928" lon="2.92888">
        <ele>841.29</ele>
        <time>2012-04-28T17:06:23Z</time>
      </trkpt>
      <trkpt lat="44.5928" lon="2.92888">
        <ele>841.77</ele>
        <time>2012-04-28T17:06:24Z</time>
      </trkpt>
      <trkpt lat="44.5928" lon="2.92889">
        <ele>841.29</ele>
        <time>2012-04-28T17:06:30Z</time>
      </trkpt>
    </trkseg>
  </trk>
</gpx>